<?xml version="1.0" encoding="UTF-8" standalone="no" ?>
<gpx xmlns="http://www.topografix.com/GPX/1/1" xmlns:xsi="http://www.w3.org/2001/XMLSchema-instance" xsi:schemaLocation="http://www.topografix.com/GPX/1/1 http://www.topografix.com/GPX/1/1/gpx.xsd" version="1.1" creator="VisuGPX - https://www.visugpx.com">
  <metadata>
    <name>Circuit VTT Fontainebleau MBF + WIWI RIDER KOMOOT episode 3 bis</name>
  </metadata>
  <trk>
    <name><![CDATA[Circuit VTT Fontainebleau MBF + WIWI RIDER KOMOOT episode 3 bis]]></name>
    <extensions>
      <line xmlns="http://www.topografix.com/GPX/gpx_style/0/2">
        <color>0000FF</color>
        <width>4</width>
      </line>
    </extensions>
    <trkseg>
      <trkpt lat="48.41348" lon="2.67467">
        <ele>112.1</ele>
        <time>2022-06-18T10:14:11.000Z</time>
      </trkpt>
      <trkpt lat="48.41353" lon="2.67475">
        <ele>112.7</ele>
        <time>2022-06-18T10:14:13.945Z</time>
      </trkpt>
      <trkpt lat="48.41366" lon="2.67461">
        <ele>113.7</ele>
        <time>2022-06-18T10:14:19.489Z</time>
      </trkpt>
      <trkpt lat="48.41389" lon="2.67458">
        <ele>115.8</ele>
        <time>2022-06-18T10:14:29.535Z</time>
      </trkpt>
      <trkpt lat="48.41402" lon="2.67441">
        <ele>116.2</ele>
        <time>2022-06-18T10:14:33.517Z</time>
      </trkpt>
      <trkpt lat="48.41471" lon="2.67406">
        <ele>122.9</ele>
        <time>2022-06-18T10:15:05.504Z</time>
      </trkpt>
      <trkpt lat="48.41584" lon="2.67456">
        <ele>137.1</ele>
        <time>2022-06-18T10:16:15.248Z</time>
      </trkpt>
      <trkpt lat="48.41595" lon="2.67459">
        <ele>137.8</ele>
        <time>2022-06-18T10:16:19.128Z</time>
      </trkpt>
      <trkpt lat="48.41636" lon="2.6745">
        <ele>140.7</ele>
        <time>2022-06-18T10:16:34.307Z</time>
      </trkpt>
      <trkpt lat="48.41675" lon="2.67402">
        <ele>144</ele>
        <time>2022-06-18T10:16:52.156Z</time>
      </trkpt>
      <trkpt lat="48.41715" lon="2.67394">
        <ele>143.8</ele>
        <time>2022-06-18T10:16:58.984Z</time>
      </trkpt>
      <trkpt lat="48.41806" lon="2.67323">
        <ele>140.5</ele>
        <time>2022-06-18T10:17:10.378Z</time>
      </trkpt>
      <trkpt lat="48.41813" lon="2.67352">
        <ele>141.5</ele>
        <time>2022-06-18T10:17:16.849Z</time>
      </trkpt>
      <trkpt lat="48.41839" lon="2.67364">
        <ele>142.4</ele>
        <time>2022-06-18T10:17:23.954Z</time>
      </trkpt>
      <trkpt lat="48.41892" lon="2.67467">
        <ele>145.5</ele>
        <time>2022-06-18T10:17:47.400Z</time>
      </trkpt>
      <trkpt lat="48.41769" lon="2.67942">
        <ele>145.8</ele>
        <time>2022-06-18T10:18:49.518Z</time>
      </trkpt>
      <trkpt lat="48.41812" lon="2.68069">
        <ele>141.4</ele>
        <time>2022-06-18T10:18:58.693Z</time>
      </trkpt>
      <trkpt lat="48.41948" lon="2.68474">
        <ele>119.2</ele>
        <time>2022-06-18T10:19:25.704Z</time>
      </trkpt>
      <trkpt lat="48.42002" lon="2.68619">
        <ele>114.5</ele>
        <time>2022-06-18T10:19:36.791Z</time>
      </trkpt>
      <trkpt lat="48.4205" lon="2.68755">
        <ele>110.3</ele>
        <time>2022-06-18T10:19:47.209Z</time>
      </trkpt>
      <trkpt lat="48.42128" lon="2.68931">
        <ele>109.1</ele>
        <time>2022-06-18T10:20:07.831Z</time>
      </trkpt>
      <trkpt lat="48.42212" lon="2.69107">
        <ele>116.3</ele>
        <time>2022-06-18T10:20:53.648Z</time>
      </trkpt>
      <trkpt lat="48.42226" lon="2.69156">
        <ele>118.5</ele>
        <time>2022-06-18T10:21:05.893Z</time>
      </trkpt>
      <trkpt lat="48.42224" lon="2.69201">
        <ele>121.8</ele>
        <time>2022-06-18T10:21:21.639Z</time>
      </trkpt>
      <trkpt lat="48.42231" lon="2.69233">
        <ele>125.8</ele>
        <time>2022-06-18T10:21:37.342Z</time>
      </trkpt>
      <trkpt lat="48.42244" lon="2.69245">
        <ele>128.7</ele>
        <time>2022-06-18T10:21:48.048Z</time>
      </trkpt>
      <trkpt lat="48.42271" lon="2.69262">
        <ele>132.2</ele>
        <time>2022-06-18T10:22:05.176Z</time>
      </trkpt>
      <trkpt lat="48.42295" lon="2.69288">
        <ele>135.4</ele>
        <time>2022-06-18T10:22:20.397Z</time>
      </trkpt>
      <trkpt lat="48.42337" lon="2.69323">
        <ele>140.5</ele>
        <time>2022-06-18T10:22:44.598Z</time>
      </trkpt>
      <trkpt lat="48.42386" lon="2.69364">
        <ele>141.2</ele>
        <time>2022-06-18T10:22:56.121Z</time>
      </trkpt>
      <trkpt lat="48.42473" lon="2.69418">
        <ele>143.3</ele>
        <time>2022-06-18T10:23:17.655Z</time>
      </trkpt>
      <trkpt lat="48.42473" lon="2.69752">
        <ele>142.7</ele>
        <time>2022-06-18T10:23:56.404Z</time>
      </trkpt>
      <trkpt lat="48.4242" lon="2.70089">
        <ele>146.1</ele>
        <time>2022-06-18T10:24:44.809Z</time>
      </trkpt>
      <trkpt lat="48.42491" lon="2.70209">
        <ele>145.2</ele>
        <time>2022-06-18T10:25:00.497Z</time>
      </trkpt>
      <trkpt lat="48.42543" lon="2.70235">
        <ele>146.2</ele>
        <time>2022-06-18T10:25:12.475Z</time>
      </trkpt>
      <trkpt lat="48.42659" lon="2.70271">
        <ele>150.3</ele>
        <time>2022-06-18T10:25:44.052Z</time>
      </trkpt>
      <trkpt lat="48.42764" lon="2.70304">
        <ele>150.6</ele>
        <time>2022-06-18T10:26:04.094Z</time>
      </trkpt>
      <trkpt lat="48.42802" lon="2.70322">
        <ele>150.9</ele>
        <time>2022-06-18T10:26:11.884Z</time>
      </trkpt>
      <trkpt lat="48.4282" lon="2.70326">
        <ele>151.1</ele>
        <time>2022-06-18T10:26:15.568Z</time>
      </trkpt>
      <trkpt lat="48.42834" lon="2.70341">
        <ele>151</ele>
        <time>2022-06-18T10:26:18.439Z</time>
      </trkpt>
      <trkpt lat="48.4282" lon="2.70448">
        <ele>151.2</ele>
        <time>2022-06-18T10:26:31.958Z</time>
      </trkpt>
      <trkpt lat="48.42864" lon="2.70434">
        <ele>151.19702</ele>
        <time>2022-06-18T10:26:40.137Z</time>
      </trkpt>
      <trkpt lat="48.42904" lon="2.70426">
        <ele>151.00327</ele>
        <time>2022-06-18T10:26:46.981Z</time>
      </trkpt>
      <trkpt lat="48.42909" lon="2.70303">
        <ele>150.40297</ele>
        <time>2022-06-18T10:26:59.186Z</time>
      </trkpt>
      <trkpt lat="48.4303" lon="2.70224">
        <ele>147.45307</ele>
        <time>2022-06-18T10:27:15.493Z</time>
      </trkpt>
      <trkpt lat="48.43086" lon="2.70199">
        <ele>146.21143</ele>
        <time>2022-06-18T10:27:22.808Z</time>
      </trkpt>
      <trkpt lat="48.4313" lon="2.70192">
        <ele>145.49985</ele>
        <time>2022-06-18T10:27:28.702Z</time>
      </trkpt>
      <trkpt lat="48.43186" lon="2.70192">
        <ele>143.54083</ele>
        <time>2022-06-18T10:27:34.756Z</time>
      </trkpt>
      <trkpt lat="48.4324" lon="2.70205">
        <ele>140.72113</ele>
        <time>2022-06-18T10:27:39.829Z</time>
      </trkpt>
      <trkpt lat="48.4331" lon="2.70271">
        <ele>138.48894</ele>
        <time>2022-06-18T10:27:49.524Z</time>
      </trkpt>
      <trkpt lat="48.43351" lon="2.7028">
        <ele>135.38863</ele>
        <time>2022-06-18T10:27:53.239Z</time>
      </trkpt>
      <trkpt lat="48.43409" lon="2.70258">
        <ele>131.04743</ele>
        <time>2022-06-18T10:27:58.602Z</time>
      </trkpt>
      <trkpt lat="48.43429" lon="2.70246">
        <ele>128.83315</ele>
        <time>2022-06-18T10:28:00.532Z</time>
      </trkpt>
      <trkpt lat="48.43431" lon="2.70238">
        <ele>128.05021</ele>
        <time>2022-06-18T10:28:01.041Z</time>
      </trkpt>
      <trkpt lat="48.43455" lon="2.70231">
        <ele>125.64213</ele>
        <time>2022-06-18T10:28:03.232Z</time>
      </trkpt>
      <trkpt lat="48.43465" lon="2.70218">
        <ele>123.91066</ele>
        <time>2022-06-18T10:28:04.417Z</time>
      </trkpt>
      <trkpt lat="48.43484" lon="2.70221">
        <ele>122.92891</ele>
        <time>2022-06-18T10:28:06.191Z</time>
      </trkpt>
      <trkpt lat="48.43497" lon="2.70245">
        <ele>123.81888</ele>
        <time>2022-06-18T10:28:12.394Z</time>
      </trkpt>
      <trkpt lat="48.4352" lon="2.70304">
        <ele>126.70529</ele>
        <time>2022-06-18T10:28:28.259Z</time>
      </trkpt>
      <trkpt lat="48.43532" lon="2.70403">
        <ele>130.98534</ele>
        <time>2022-06-18T10:28:51.681Z</time>
      </trkpt>
      <trkpt lat="48.43536" lon="2.70417">
        <ele>131.42992</ele>
        <time>2022-06-18T10:28:54.763Z</time>
      </trkpt>
      <trkpt lat="48.43537" lon="2.7044">
        <ele>132.48724</ele>
        <time>2022-06-18T10:29:00.330Z</time>
      </trkpt>
      <trkpt lat="48.43544" lon="2.70499">
        <ele>134.92414</ele>
        <time>2022-06-18T10:29:14.001Z</time>
      </trkpt>
      <trkpt lat="48.43541" lon="2.70526">
        <ele>135.50883</ele>
        <time>2022-06-18T10:29:18.691Z</time>
      </trkpt>
      <trkpt lat="48.43541" lon="2.70547">
        <ele>135.77655</ele>
        <time>2022-06-18T10:29:21.769Z</time>
      </trkpt>
      <trkpt lat="48.43555" lon="2.70573">
        <ele>136.88021</ele>
        <time>2022-06-18T10:29:28.827Z</time>
      </trkpt>
      <trkpt lat="48.4356" lon="2.70616">
        <ele>137.79079</ele>
        <time>2022-06-18T10:29:36.234Z</time>
      </trkpt>
      <trkpt lat="48.43572" lon="2.70644">
        <ele>139.03502</ele>
        <time>2022-06-18T10:29:43.576Z</time>
      </trkpt>
      <trkpt lat="48.43571" lon="2.70669">
        <ele>139.05603</ele>
        <time>2022-06-18T10:29:46.637Z</time>
      </trkpt>
      <trkpt lat="48.43577" lon="2.70687">
        <ele>139.66429</ele>
        <time>2022-06-18T10:29:50.770Z</time>
      </trkpt>
      <trkpt lat="48.43586" lon="2.70686">
        <ele>140.29145</ele>
        <time>2022-06-18T10:29:54.064Z</time>
      </trkpt>
      <trkpt lat="48.43595" lon="2.70663">
        <ele>140.63263</ele>
        <time>2022-06-18T10:29:57.980Z</time>
      </trkpt>
      <trkpt lat="48.43602" lon="2.70634">
        <ele>140.87234</ele>
        <time>2022-06-18T10:30:02.156Z</time>
      </trkpt>
      <trkpt lat="48.43603" lon="2.70599">
        <ele>140.65763</ele>
        <time>2022-06-18T10:30:05.537Z</time>
      </trkpt>
      <trkpt lat="48.43616" lon="2.70561">
        <ele>140.95675</ele>
        <time>2022-06-18T10:30:11.254Z</time>
      </trkpt>
      <trkpt lat="48.43616" lon="2.7054">
        <ele>140.35577</ele>
        <time>2022-06-18T10:30:12.647Z</time>
      </trkpt>
      <trkpt lat="48.43627" lon="2.70516">
        <ele>140.66181</ele>
        <time>2022-06-18T10:30:16.767Z</time>
      </trkpt>
      <trkpt lat="48.43625" lon="2.70479">
        <ele>138.92909</ele>
        <time>2022-06-18T10:30:18.975Z</time>
      </trkpt>
      <trkpt lat="48.43638" lon="2.70432">
        <ele>138.17117</ele>
        <time>2022-06-18T10:30:23.150Z</time>
      </trkpt>
      <trkpt lat="48.43653" lon="2.70415">
        <ele>139.21523</ele>
        <time>2022-06-18T10:30:29.354Z</time>
      </trkpt>
      <trkpt lat="48.43666" lon="2.70388">
        <ele>139.94628</ele>
        <time>2022-06-18T10:30:35.132Z</time>
      </trkpt>
      <trkpt lat="48.43665" lon="2.70372">
        <ele>140.07267</ele>
        <time>2022-06-18T10:30:37.310Z</time>
      </trkpt>
      <trkpt lat="48.4366" lon="2.70367">
        <ele>139.73538</ele>
        <time>2022-06-18T10:30:37.845Z</time>
      </trkpt>
      <trkpt lat="48.43665" lon="2.70353">
        <ele>140.16787</ele>
        <time>2022-06-18T10:30:40.921Z</time>
      </trkpt>
      <trkpt lat="48.4367" lon="2.70295">
        <ele>138.55821</ele>
        <time>2022-06-18T10:30:44.860Z</time>
      </trkpt>
      <trkpt lat="48.43681" lon="2.7027">
        <ele>137.96499</ele>
        <time>2022-06-18T10:30:47.129Z</time>
      </trkpt>
      <trkpt lat="48.4369" lon="2.70267">
        <ele>138.52015</ele>
        <time>2022-06-18T10:30:50.274Z</time>
      </trkpt>
      <trkpt lat="48.43699" lon="2.70272">
        <ele>139.39697</ele>
        <time>2022-06-18T10:30:54.465Z</time>
      </trkpt>
      <trkpt lat="48.43706" lon="2.70284">
        <ele>140.1459</ele>
        <time>2022-06-18T10:30:58.368Z</time>
      </trkpt>
      <trkpt lat="48.43709" lon="2.70315">
        <ele>140.60943</ele>
        <time>2022-06-18T10:31:03.124Z</time>
      </trkpt>
      <trkpt lat="48.4369" lon="2.7035">
        <ele>140.87</ele>
        <time>2022-06-18T10:31:09.059Z</time>
      </trkpt>
      <trkpt lat="48.43681" lon="2.70378">
        <ele>140.34983</ele>
        <time>2022-06-18T10:31:11.532Z</time>
      </trkpt>
      <trkpt lat="48.43686" lon="2.70407">
        <ele>139.78557</ele>
        <time>2022-06-18T10:31:13.832Z</time>
      </trkpt>
      <trkpt lat="48.43699" lon="2.70433">
        <ele>139.52905</ele>
        <time>2022-06-18T10:31:16.867Z</time>
      </trkpt>
      <trkpt lat="48.43701" lon="2.70523">
        <ele>142.75925</ele>
        <time>2022-06-18T10:31:36.408Z</time>
      </trkpt>
      <trkpt lat="48.43713" lon="2.70563">
        <ele>142.53653</ele>
        <time>2022-06-18T10:31:40.737Z</time>
      </trkpt>
      <trkpt lat="48.43733" lon="2.70579">
        <ele>140.87952</ele>
        <time>2022-06-18T10:31:42.767Z</time>
      </trkpt>
      <trkpt lat="48.43728" lon="2.70609">
        <ele>140.61234</ele>
        <time>2022-06-18T10:31:45.608Z</time>
      </trkpt>
      <trkpt lat="48.43738" lon="2.7063">
        <ele>138.72194</ele>
        <time>2022-06-18T10:31:47.146Z</time>
      </trkpt>
      <trkpt lat="48.43758" lon="2.70644">
        <ele>135.60954</ele>
        <time>2022-06-18T10:31:49.123Z</time>
      </trkpt>
      <trkpt lat="48.43773" lon="2.70679">
        <ele>132.16685</ele>
        <time>2022-06-18T10:31:51.602Z</time>
      </trkpt>
      <trkpt lat="48.4387" lon="2.70693">
        <ele>117.18123</ele>
        <time>2022-06-18T10:32:00.339Z</time>
      </trkpt>
      <trkpt lat="48.43886" lon="2.70729">
        <ele>118.13835</ele>
        <time>2022-06-18T10:32:07.870Z</time>
      </trkpt>
      <trkpt lat="48.43827" lon="2.71026">
        <ele>115.34903</ele>
        <time>2022-06-18T10:32:36.147Z</time>
      </trkpt>
      <trkpt lat="48.43752" lon="2.70998">
        <ele>121.12458</ele>
        <time>2022-06-18T10:33:05.507Z</time>
      </trkpt>
      <trkpt lat="48.43738" lon="2.71007">
        <ele>120.82851</ele>
        <time>2022-06-18T10:33:07.454Z</time>
      </trkpt>
      <trkpt lat="48.43734" lon="2.71048">
        <ele>115.62317</ele>
        <time>2022-06-18T10:33:09.920Z</time>
      </trkpt>
      <trkpt lat="48.43709" lon="2.71096">
        <ele>112.09002</ele>
        <time>2022-06-18T10:33:13.550Z</time>
      </trkpt>
      <trkpt lat="48.43656" lon="2.71463">
        <ele>102.16016</ele>
        <time>2022-06-18T10:33:39.241Z</time>
      </trkpt>
      <trkpt lat="48.4365" lon="2.71475">
        <ele>102.32228</ele>
        <time>2022-06-18T10:33:41.374Z</time>
      </trkpt>
      <trkpt lat="48.43653" lon="2.71503">
        <ele>101.94142</ele>
        <time>2022-06-18T10:33:43.759Z</time>
      </trkpt>
      <trkpt lat="48.43651" lon="2.71533">
        <ele>102.54857</ele>
        <time>2022-06-18T10:33:48.803Z</time>
      </trkpt>
      <trkpt lat="48.43664" lon="2.71554">
        <ele>102.43047</ele>
        <time>2022-06-18T10:33:51.972Z</time>
      </trkpt>
      <trkpt lat="48.43653" lon="2.71628">
        <ele>103.66592</ele>
        <time>2022-06-18T10:34:03.791Z</time>
      </trkpt>
      <trkpt lat="48.43637" lon="2.71645">
        <ele>103.95135</ele>
        <time>2022-06-18T10:34:07.905Z</time>
      </trkpt>
      <trkpt lat="48.43628" lon="2.71638">
        <ele>104.18724</ele>
        <time>2022-06-18T10:34:10.249Z</time>
      </trkpt>
      <trkpt lat="48.43628" lon="2.71621">
        <ele>104.27692</ele>
        <time>2022-06-18T10:34:12.464Z</time>
      </trkpt>
      <trkpt lat="48.4362" lon="2.71594">
        <ele>104.595</ele>
        <time>2022-06-18T10:34:16.659Z</time>
      </trkpt>
      <trkpt lat="48.4361" lon="2.71589">
        <ele>105.02554</ele>
        <time>2022-06-18T10:34:19.725Z</time>
      </trkpt>
      <trkpt lat="48.4357" lon="2.71661">
        <ele>107.6718</ele>
        <time>2022-06-18T10:34:38.292Z</time>
      </trkpt>
      <trkpt lat="48.43548" lon="2.71661">
        <ele>111.27791</ele>
        <time>2022-06-18T10:34:53.743Z</time>
      </trkpt>
      <trkpt lat="48.43546" lon="2.71702">
        <ele>110.44405</ele>
        <time>2022-06-18T10:34:56.827Z</time>
      </trkpt>
      <trkpt lat="48.43558" lon="2.71724">
        <ele>107.72921</ele>
        <time>2022-06-18T10:34:58.521Z</time>
      </trkpt>
      <trkpt lat="48.43567" lon="2.71724">
        <ele>106.37679</ele>
        <time>2022-06-18T10:34:59.328Z</time>
      </trkpt>
      <trkpt lat="48.43572" lon="2.71736">
        <ele>105.40686</ele>
        <time>2022-06-18T10:35:00.171Z</time>
      </trkpt>
      <trkpt lat="48.43567" lon="2.71749">
        <ele>105.78197</ele>
        <time>2022-06-18T10:35:02.941Z</time>
      </trkpt>
      <trkpt lat="48.43576" lon="2.71749">
        <ele>104.69871</ele>
        <time>2022-06-18T10:35:03.748Z</time>
      </trkpt>
      <trkpt lat="48.43583" lon="2.71759">
        <ele>103.94447</ele>
        <time>2022-06-18T10:35:04.613Z</time>
      </trkpt>
      <trkpt lat="48.4357" lon="2.71778">
        <ele>105.06358</ele>
        <time>2022-06-18T10:35:10.861Z</time>
      </trkpt>
      <trkpt lat="48.43557" lon="2.71836">
        <ele>105.93287</ele>
        <time>2022-06-18T10:35:20.060Z</time>
      </trkpt>
      <trkpt lat="48.4352" lon="2.71875">
        <ele>109.1591</ele>
        <time>2022-06-18T10:35:36.785Z</time>
      </trkpt>
      <trkpt lat="48.43518" lon="2.7189">
        <ele>109.42076</ele>
        <time>2022-06-18T10:35:39.205Z</time>
      </trkpt>
      <trkpt lat="48.43526" lon="2.71894">
        <ele>108.7545</ele>
        <time>2022-06-18T10:35:39.960Z</time>
      </trkpt>
      <trkpt lat="48.43544" lon="2.71926">
        <ele>107.26355</ele>
        <time>2022-06-18T10:35:42.499Z</time>
      </trkpt>
      <trkpt lat="48.43553" lon="2.71929">
        <ele>106.42921</ele>
        <time>2022-06-18T10:35:43.325Z</time>
      </trkpt>
      <trkpt lat="48.43562" lon="2.71921">
        <ele>105.59706</ele>
        <time>2022-06-18T10:35:44.262Z</time>
      </trkpt>
      <trkpt lat="48.43599" lon="2.71911">
        <ele>103.18974</ele>
        <time>2022-06-18T10:35:47.413Z</time>
      </trkpt>
      <trkpt lat="48.43613" lon="2.71932">
        <ele>102.51963</ele>
        <time>2022-06-18T10:35:49.571Z</time>
      </trkpt>
      <trkpt lat="48.43606" lon="2.71974">
        <ele>102.64087</ele>
        <time>2022-06-18T10:35:55.012Z</time>
      </trkpt>
      <trkpt lat="48.43618" lon="2.71995">
        <ele>101.92769</ele>
        <time>2022-06-18T10:35:56.927Z</time>
      </trkpt>
      <trkpt lat="48.43621" lon="2.72009">
        <ele>101.70722</ele>
        <time>2022-06-18T10:35:58.131Z</time>
      </trkpt>
      <trkpt lat="48.43639" lon="2.72042">
        <ele>100.66766</ele>
        <time>2022-06-18T10:36:01.145Z</time>
      </trkpt>
      <trkpt lat="48.4365" lon="2.72044">
        <ele>100.24183</ele>
        <time>2022-06-18T10:36:02.303Z</time>
      </trkpt>
      <trkpt lat="48.43648" lon="2.72073">
        <ele>100.33666</ele>
        <time>2022-06-18T10:36:05.990Z</time>
      </trkpt>
      <trkpt lat="48.43656" lon="2.72081">
        <ele>100.19248</ele>
        <time>2022-06-18T10:36:07.286Z</time>
      </trkpt>
      <trkpt lat="48.43648" lon="2.72089">
        <ele>100.53317</ele>
        <time>2022-06-18T10:36:09.876Z</time>
      </trkpt>
      <trkpt lat="48.43639" lon="2.7209">
        <ele>100.82939</ele>
        <time>2022-06-18T10:36:12.225Z</time>
      </trkpt>
      <trkpt lat="48.43634" lon="2.72119">
        <ele>101.62935</ele>
        <time>2022-06-18T10:36:17.958Z</time>
      </trkpt>
      <trkpt lat="48.43638" lon="2.72131">
        <ele>101.88516</ele>
        <time>2022-06-18T10:36:20.159Z</time>
      </trkpt>
      <trkpt lat="48.43648" lon="2.72137">
        <ele>101.9651</ele>
        <time>2022-06-18T10:36:22.262Z</time>
      </trkpt>
      <trkpt lat="48.43644" lon="2.72151">
        <ele>102.4339</ele>
        <time>2022-06-18T10:36:25.406Z</time>
      </trkpt>
      <trkpt lat="48.43623" lon="2.72181">
        <ele>102.97855</ele>
        <time>2022-06-18T10:36:31.772Z</time>
      </trkpt>
      <trkpt lat="48.43596" lon="2.72241">
        <ele>102.77838</ele>
        <time>2022-06-18T10:36:40.005Z</time>
      </trkpt>
      <trkpt lat="48.43534" lon="2.72272">
        <ele>106.48696</ele>
        <time>2022-06-18T10:37:01.767Z</time>
      </trkpt>
      <trkpt lat="48.43535" lon="2.72286">
        <ele>106.50054</ele>
        <time>2022-06-18T10:37:03.491Z</time>
      </trkpt>
      <trkpt lat="48.43548" lon="2.72309">
        <ele>105.73469</ele>
        <time>2022-06-18T10:37:05.591Z</time>
      </trkpt>
      <trkpt lat="48.43538" lon="2.72336">
        <ele>106.95723</ele>
        <time>2022-06-18T10:37:12.560Z</time>
      </trkpt>
      <trkpt lat="48.43529" lon="2.72341">
        <ele>107.78884</ele>
        <time>2022-06-18T10:37:16.581Z</time>
      </trkpt>
      <trkpt lat="48.43565" lon="2.72365">
        <ele>105.68968</ele>
        <time>2022-06-18T10:37:20.178Z</time>
      </trkpt>
      <trkpt lat="48.43604" lon="2.72369">
        <ele>103.7966</ele>
        <time>2022-06-18T10:37:23.904Z</time>
      </trkpt>
      <trkpt lat="48.43613" lon="2.72374">
        <ele>103.54278</ele>
        <time>2022-06-18T10:37:25.037Z</time>
      </trkpt>
      <trkpt lat="48.43623" lon="2.724">
        <ele>103.99335</ele>
        <time>2022-06-18T10:37:29.615Z</time>
      </trkpt>
      <trkpt lat="48.4361" lon="2.7248">
        <ele>105.70914</ele>
        <time>2022-06-18T10:37:43.582Z</time>
      </trkpt>
      <trkpt lat="48.43596" lon="2.72715">
        <ele>109.47995</ele>
        <time>2022-06-18T10:38:20.153Z</time>
      </trkpt>
      <trkpt lat="48.43585" lon="2.72755">
        <ele>107.69582</ele>
        <time>2022-06-18T10:38:22.597Z</time>
      </trkpt>
      <trkpt lat="48.43557" lon="2.72738">
        <ele>110.24506</ele>
        <time>2022-06-18T10:38:35.009Z</time>
      </trkpt>
      <trkpt lat="48.43556" lon="2.72723">
        <ele>110.96879</ele>
        <time>2022-06-18T10:38:38.740Z</time>
      </trkpt>
      <trkpt lat="48.4355" lon="2.72712">
        <ele>111.84732</ele>
        <time>2022-06-18T10:38:42.927Z</time>
      </trkpt>
      <trkpt lat="48.43541" lon="2.72707">
        <ele>112.72251</ele>
        <time>2022-06-18T10:38:47.112Z</time>
      </trkpt>
      <trkpt lat="48.43519" lon="2.72675">
        <ele>115.16669</ele>
        <time>2022-06-18T10:38:59.221Z</time>
      </trkpt>
      <trkpt lat="48.43472" lon="2.72641">
        <ele>121.29688</ele>
        <time>2022-06-18T10:39:29.011Z</time>
      </trkpt>
      <trkpt lat="48.43467" lon="2.72628">
        <ele>122.44967</ele>
        <time>2022-06-18T10:39:34.579Z</time>
      </trkpt>
      <trkpt lat="48.43442" lon="2.72597">
        <ele>126.20562</ele>
        <time>2022-06-18T10:39:52.743Z</time>
      </trkpt>
      <trkpt lat="48.43427" lon="2.72556">
        <ele>128.27347</ele>
        <time>2022-06-18T10:40:03.837Z</time>
      </trkpt>
      <trkpt lat="48.43409" lon="2.72572">
        <ele>128.33194</ele>
        <time>2022-06-18T10:40:07.742Z</time>
      </trkpt>
      <trkpt lat="48.43402" lon="2.72593">
        <ele>127.63144</ele>
        <time>2022-06-18T10:40:09.276Z</time>
      </trkpt>
      <trkpt lat="48.43402" lon="2.7263">
        <ele>127.00062</ele>
        <time>2022-06-18T10:40:12.200Z</time>
      </trkpt>
      <trkpt lat="48.43392" lon="2.72654">
        <ele>125.89273</ele>
        <time>2022-06-18T10:40:13.841Z</time>
      </trkpt>
      <trkpt lat="48.43373" lon="2.72662">
        <ele>124.06645</ele>
        <time>2022-06-18T10:40:15.610Z</time>
      </trkpt>
      <trkpt lat="48.43358" lon="2.72645">
        <ele>123.08505</ele>
        <time>2022-06-18T10:40:17.340Z</time>
      </trkpt>
      <trkpt lat="48.43353" lon="2.72618">
        <ele>123.12585</ele>
        <time>2022-06-18T10:40:20.796Z</time>
      </trkpt>
      <trkpt lat="48.43347" lon="2.72607">
        <ele>122.7213</ele>
        <time>2022-06-18T10:40:21.743Z</time>
      </trkpt>
      <trkpt lat="48.43343" lon="2.7262">
        <ele>122.09112</ele>
        <time>2022-06-18T10:40:22.527Z</time>
      </trkpt>
      <trkpt lat="48.43335" lon="2.72628">
        <ele>121.19846</ele>
        <time>2022-06-18T10:40:23.388Z</time>
      </trkpt>
      <trkpt lat="48.43309" lon="2.72617">
        <ele>118.86605</ele>
        <time>2022-06-18T10:40:25.809Z</time>
      </trkpt>
      <trkpt lat="48.43278" lon="2.72614">
        <ele>115.63925</ele>
        <time>2022-06-18T10:40:28.594Z</time>
      </trkpt>
      <trkpt lat="48.43227" lon="2.72593">
        <ele>114.68747</ele>
        <time>2022-06-18T10:40:35.475Z</time>
      </trkpt>
      <trkpt lat="48.43197" lon="2.72591">
        <ele>116.07317</ele>
        <time>2022-06-18T10:40:44.800Z</time>
      </trkpt>
      <trkpt lat="48.4318" lon="2.72578">
        <ele>117.6291</ele>
        <time>2022-06-18T10:40:52.455Z</time>
      </trkpt>
      <trkpt lat="48.4316" lon="2.72572">
        <ele>118.96781</ele>
        <time>2022-06-18T10:40:59.689Z</time>
      </trkpt>
      <trkpt lat="48.43138" lon="2.72579">
        <ele>119.80319</ele>
        <time>2022-06-18T10:41:05.895Z</time>
      </trkpt>
      <trkpt lat="48.43061" lon="2.72584">
        <ele>122.08085</ele>
        <time>2022-06-18T10:41:25.136Z</time>
      </trkpt>
      <trkpt lat="48.43048" lon="2.7258">
        <ele>122.36614</ele>
        <time>2022-06-18T10:41:28.144Z</time>
      </trkpt>
      <trkpt lat="48.42976" lon="2.72588">
        <ele>119.9564</ele>
        <time>2022-06-18T10:41:36.076Z</time>
      </trkpt>
      <trkpt lat="48.42956" lon="2.72582">
        <ele>119.76253</ele>
        <time>2022-06-18T10:41:39.032Z</time>
      </trkpt>
      <trkpt lat="48.42845" lon="2.72596">
        <ele>113.39617</ele>
        <time>2022-06-18T10:41:48.892Z</time>
      </trkpt>
      <trkpt lat="48.42833" lon="2.72602">
        <ele>112.53984</ele>
        <time>2022-06-18T10:41:50.026Z</time>
      </trkpt>
      <trkpt lat="48.42832" lon="2.72576">
        <ele>113.03165</ele>
        <time>2022-06-18T10:41:54.282Z</time>
      </trkpt>
      <trkpt lat="48.42825" lon="2.72224">
        <ele>125.22139</ele>
        <time>2022-06-18T10:43:09.748Z</time>
      </trkpt>
      <trkpt lat="48.42818" lon="2.72194">
        <ele>126.81096</ele>
        <time>2022-06-18T10:43:17.803Z</time>
      </trkpt>
      <trkpt lat="48.42802" lon="2.72176">
        <ele>127.88371</ele>
        <time>2022-06-18T10:43:24.318Z</time>
      </trkpt>
      <trkpt lat="48.42783" lon="2.72169">
        <ele>128.89746</ele>
        <time>2022-06-18T10:43:30.621Z</time>
      </trkpt>
      <trkpt lat="48.42771" lon="2.7221">
        <ele>127.04073</ele>
        <time>2022-06-18T10:43:33.144Z</time>
      </trkpt>
      <trkpt lat="48.42762" lon="2.72216">
        <ele>127.07572</ele>
        <time>2022-06-18T10:43:34.996Z</time>
      </trkpt>
      <trkpt lat="48.42734" lon="2.72206">
        <ele>127.68993</ele>
        <time>2022-06-18T10:43:41.509Z</time>
      </trkpt>
      <trkpt lat="48.42714" lon="2.72216">
        <ele>127.22466</ele>
        <time>2022-06-18T10:43:44.124Z</time>
      </trkpt>
      <trkpt lat="48.42661" lon="2.72211">
        <ele>126.88826</ele>
        <time>2022-06-18T10:43:52.937Z</time>
      </trkpt>
      <trkpt lat="48.42652" lon="2.72192">
        <ele>127.77851</ele>
        <time>2022-06-18T10:43:58.123Z</time>
      </trkpt>
      <trkpt lat="48.42639" lon="2.72182">
        <ele>128.04257</ele>
        <time>2022-06-18T10:44:01.308Z</time>
      </trkpt>
      <trkpt lat="48.4263" lon="2.72187">
        <ele>127.392</ele>
        <time>2022-06-18T10:44:02.168Z</time>
      </trkpt>
      <trkpt lat="48.4259" lon="2.72246">
        <ele>123.38913</ele>
        <time>2022-06-18T10:44:07.187Z</time>
      </trkpt>
      <trkpt lat="48.42583" lon="2.72249">
        <ele>123.05241</ele>
        <time>2022-06-18T10:44:07.894Z</time>
      </trkpt>
      <trkpt lat="48.42585" lon="2.72218">
        <ele>124.70996</ele>
        <time>2022-06-18T10:44:16.097Z</time>
      </trkpt>
      <trkpt lat="48.42618" lon="2.72166">
        <ele>128.56796</ele>
        <time>2022-06-18T10:44:35.141Z</time>
      </trkpt>
      <trkpt lat="48.42623" lon="2.72139">
        <ele>131.71922</ele>
        <time>2022-06-18T10:44:48.205Z</time>
      </trkpt>
      <trkpt lat="48.4266" lon="2.72094">
        <ele>138.71914</ele>
        <time>2022-06-18T10:45:21.596Z</time>
      </trkpt>
      <trkpt lat="48.4268" lon="2.7204">
        <ele>143.81486</ele>
        <time>2022-06-18T10:45:47.014Z</time>
      </trkpt>
      <trkpt lat="48.42676" lon="2.72026">
        <ele>144.87964</ele>
        <time>2022-06-18T10:45:52.063Z</time>
      </trkpt>
      <trkpt lat="48.42679" lon="2.72012">
        <ele>145.82246</ele>
        <time>2022-06-18T10:45:56.536Z</time>
      </trkpt>
      <trkpt lat="48.42688" lon="2.72002">
        <ele>146.22135</ele>
        <time>2022-06-18T10:45:59.560Z</time>
      </trkpt>
      <trkpt lat="48.42697" lon="2.71977">
        <ele>147.52563</ele>
        <time>2022-06-18T10:46:06.429Z</time>
      </trkpt>
      <trkpt lat="48.42706" lon="2.71975">
        <ele>147.08233</ele>
        <time>2022-06-18T10:46:07.293Z</time>
      </trkpt>
      <trkpt lat="48.42737" lon="2.71934">
        <ele>147.02003</ele>
        <time>2022-06-18T10:46:14.633Z</time>
      </trkpt>
      <trkpt lat="48.42784" lon="2.71853">
        <ele>149.74748</ele>
        <time>2022-06-18T10:46:34.630Z</time>
      </trkpt>
      <trkpt lat="48.42792" lon="2.71809">
        <ele>152.18967</ele>
        <time>2022-06-18T10:46:46.692Z</time>
      </trkpt>
      <trkpt lat="48.42788" lon="2.71778">
        <ele>153.38647</ele>
        <time>2022-06-18T10:46:53.690Z</time>
      </trkpt>
      <trkpt lat="48.42782" lon="2.71761">
        <ele>154.03611</ele>
        <time>2022-06-18T10:46:57.780Z</time>
      </trkpt>
      <trkpt lat="48.42771" lon="2.71695">
        <ele>155.4603</ele>
        <time>2022-06-18T10:47:09.342Z</time>
      </trkpt>
      <trkpt lat="48.42776" lon="2.71682">
        <ele>155.43123</ele>
        <time>2022-06-18T10:47:11.080Z</time>
      </trkpt>
      <trkpt lat="48.4276" lon="2.71634">
        <ele>155.82642</ele>
        <time>2022-06-18T10:47:18.303Z</time>
      </trkpt>
      <trkpt lat="48.42732" lon="2.71598">
        <ele>156.44364</ele>
        <time>2022-06-18T10:47:26.221Z</time>
      </trkpt>
      <trkpt lat="48.42709" lon="2.71587">
        <ele>156.79757</ele>
        <time>2022-06-18T10:47:31.296Z</time>
      </trkpt>
      <trkpt lat="48.42689" lon="2.71566">
        <ele>157.05059</ele>
        <time>2022-06-18T10:47:36.201Z</time>
      </trkpt>
      <trkpt lat="48.42679" lon="2.71531">
        <ele>157.47403</ele>
        <time>2022-06-18T10:47:41.639Z</time>
      </trkpt>
      <trkpt lat="48.42673" lon="2.71489">
        <ele>157.88319</ele>
        <time>2022-06-18T10:47:47.616Z</time>
      </trkpt>
      <trkpt lat="48.426" lon="2.71421">
        <ele>160.84809</ele>
        <time>2022-06-18T10:48:10.475Z</time>
      </trkpt>
      <trkpt lat="48.42534" lon="2.71391">
        <ele>158.52576</ele>
        <time>2022-06-18T10:48:18.025Z</time>
      </trkpt>
      <trkpt lat="48.42526" lon="2.7141">
        <ele>158.21516</ele>
        <time>2022-06-18T10:48:19.905Z</time>
      </trkpt>
      <trkpt lat="48.42497" lon="2.71452">
        <ele>157.37609</ele>
        <time>2022-06-18T10:48:24.966Z</time>
      </trkpt>
      <trkpt lat="48.42486" lon="2.71478">
        <ele>157.55875</ele>
        <time>2022-06-18T10:48:29.024Z</time>
      </trkpt>
      <trkpt lat="48.42446" lon="2.71544">
        <ele>156.85347</ele>
        <time>2022-06-18T10:48:37.355Z</time>
      </trkpt>
      <trkpt lat="48.42435" lon="2.71549">
        <ele>156.60793</ele>
        <time>2022-06-18T10:48:38.792Z</time>
      </trkpt>
      <trkpt lat="48.42424" lon="2.71546">
        <ele>156.3152</ele>
        <time>2022-06-18T10:48:40.117Z</time>
      </trkpt>
      <trkpt lat="48.42414" lon="2.71534">
        <ele>155.93515</ele>
        <time>2022-06-18T10:48:41.575Z</time>
      </trkpt>
      <trkpt lat="48.4243" lon="2.71491">
        <ele>156.5682</ele>
        <time>2022-06-18T10:48:48.815Z</time>
      </trkpt>
      <trkpt lat="48.42429" lon="2.71472">
        <ele>156.62072</ele>
        <time>2022-06-18T10:48:51.209Z</time>
      </trkpt>
      <trkpt lat="48.42411" lon="2.71418">
        <ele>155.57059</ele>
        <time>2022-06-18T10:48:55.961Z</time>
      </trkpt>
      <trkpt lat="48.42413" lon="2.71405">
        <ele>155.55371</ele>
        <time>2022-06-18T10:48:57.528Z</time>
      </trkpt>
      <trkpt lat="48.42421" lon="2.71395">
        <ele>155.90726</ele>
        <time>2022-06-18T10:49:00.277Z</time>
      </trkpt>
      <trkpt lat="48.42442" lon="2.71395">
        <ele>156.58875</ele>
        <time>2022-06-18T10:49:05.718Z</time>
      </trkpt>
      <trkpt lat="48.42458" lon="2.71379">
        <ele>156.49072</ele>
        <time>2022-06-18T10:49:08.961Z</time>
      </trkpt>
      <trkpt lat="48.42468" lon="2.71352">
        <ele>156.32277</ele>
        <time>2022-06-18T10:49:11.988Z</time>
      </trkpt>
      <trkpt lat="48.42486" lon="2.71349">
        <ele>156.64167</ele>
        <time>2022-06-18T10:49:15.919Z</time>
      </trkpt>
      <trkpt lat="48.42493" lon="2.71341">
        <ele>156.8022</ele>
        <time>2022-06-18T10:49:17.841Z</time>
      </trkpt>
      <trkpt lat="48.42519" lon="2.71254">
        <ele>157.80366</ele>
        <time>2022-06-18T10:49:31.322Z</time>
      </trkpt>
      <trkpt lat="48.42535" lon="2.71179">
        <ele>156.48703</ele>
        <time>2022-06-18T10:49:37.586Z</time>
      </trkpt>
      <trkpt lat="48.42529" lon="2.71134">
        <ele>155.39371</ele>
        <time>2022-06-18T10:49:40.849Z</time>
      </trkpt>
      <trkpt lat="48.42532" lon="2.71104">
        <ele>154.8199</ele>
        <time>2022-06-18T10:49:43.176Z</time>
      </trkpt>
      <trkpt lat="48.4254" lon="2.71093">
        <ele>154.47231</ele>
        <time>2022-06-18T10:49:44.381Z</time>
      </trkpt>
      <trkpt lat="48.42537" lon="2.71045">
        <ele>153.28058</ele>
        <time>2022-06-18T10:49:47.764Z</time>
      </trkpt>
      <trkpt lat="48.42529" lon="2.71016">
        <ele>152.41784</ele>
        <time>2022-06-18T10:49:49.881Z</time>
      </trkpt>
      <trkpt lat="48.42537" lon="2.71008">
        <ele>152.08406</ele>
        <time>2022-06-18T10:49:50.921Z</time>
      </trkpt>
      <trkpt lat="48.42547" lon="2.70971">
        <ele>150.37479</ele>
        <time>2022-06-18T10:49:53.136Z</time>
      </trkpt>
      <trkpt lat="48.42546" lon="2.70957">
        <ele>149.57657</ele>
        <time>2022-06-18T10:49:53.974Z</time>
      </trkpt>
      <trkpt lat="48.42538" lon="2.70944">
        <ele>148.41628</ele>
        <time>2022-06-18T10:49:55.029Z</time>
      </trkpt>
      <trkpt lat="48.42529" lon="2.70944">
        <ele>147.90166</ele>
        <time>2022-06-18T10:49:55.825Z</time>
      </trkpt>
      <trkpt lat="48.42528" lon="2.70933">
        <ele>147.05969</ele>
        <time>2022-06-18T10:49:56.486Z</time>
      </trkpt>
      <trkpt lat="48.42494" lon="2.70938">
        <ele>145.4</ele>
        <time>2022-06-18T10:49:59.738Z</time>
      </trkpt>
      <trkpt lat="48.42476" lon="2.70974">
        <ele>147.1</ele>
        <time>2022-06-18T10:50:09.707Z</time>
      </trkpt>
      <trkpt lat="48.42448" lon="2.71036">
        <ele>148</ele>
        <time>2022-06-18T10:50:20.567Z</time>
      </trkpt>
      <trkpt lat="48.42429" lon="2.71072">
        <ele>147.7</ele>
        <time>2022-06-18T10:50:24.973Z</time>
      </trkpt>
      <trkpt lat="48.42401" lon="2.71112">
        <ele>145.8</ele>
        <time>2022-06-18T10:50:28.624Z</time>
      </trkpt>
      <trkpt lat="48.42384" lon="2.7115">
        <ele>144.7</ele>
        <time>2022-06-18T10:50:31.873Z</time>
      </trkpt>
      <trkpt lat="48.42377" lon="2.71157">
        <ele>144</ele>
        <time>2022-06-18T10:50:32.627Z</time>
      </trkpt>
      <trkpt lat="48.42348" lon="2.71177">
        <ele>141.2</ele>
        <time>2022-06-18T10:50:35.486Z</time>
      </trkpt>
      <trkpt lat="48.42332" lon="2.71194">
        <ele>140.3</ele>
        <time>2022-06-18T10:50:37.394Z</time>
      </trkpt>
      <trkpt lat="48.42328" lon="2.71195">
        <ele>140.3</ele>
        <time>2022-06-18T10:50:38.132Z</time>
      </trkpt>
      <trkpt lat="48.42295" lon="2.71197">
        <ele>140.1</ele>
        <time>2022-06-18T10:50:43.635Z</time>
      </trkpt>
      <trkpt lat="48.42282" lon="2.71187">
        <ele>139.5</ele>
        <time>2022-06-18T10:50:45.122Z</time>
      </trkpt>
      <trkpt lat="48.42261" lon="2.71195">
        <ele>139.8</ele>
        <time>2022-06-18T10:50:49.639Z</time>
      </trkpt>
      <trkpt lat="48.42245" lon="2.71185">
        <ele>139.2</ele>
        <time>2022-06-18T10:50:51.518Z</time>
      </trkpt>
      <trkpt lat="48.42216" lon="2.71197">
        <ele>140.6</ele>
        <time>2022-06-18T10:51:00.881Z</time>
      </trkpt>
      <trkpt lat="48.4217" lon="2.71188">
        <ele>141.2</ele>
        <time>2022-06-18T10:51:10.461Z</time>
      </trkpt>
      <trkpt lat="48.42151" lon="2.71147">
        <ele>137.1</ele>
        <time>2022-06-18T10:51:13.437Z</time>
      </trkpt>
      <trkpt lat="48.42122" lon="2.71142">
        <ele>135.7</ele>
        <time>2022-06-18T10:51:16.231Z</time>
      </trkpt>
      <trkpt lat="48.42098" lon="2.71087">
        <ele>131.1</ele>
        <time>2022-06-18T10:51:20.148Z</time>
      </trkpt>
      <trkpt lat="48.42065" lon="2.71066">
        <ele>127.1</ele>
        <time>2022-06-18T10:51:23.360Z</time>
      </trkpt>
      <trkpt lat="48.42047" lon="2.71039">
        <ele>123.6</ele>
        <time>2022-06-18T10:51:25.637Z</time>
      </trkpt>
      <trkpt lat="48.42025" lon="2.71021">
        <ele>121.8</ele>
        <time>2022-06-18T10:51:27.882Z</time>
      </trkpt>
      <trkpt lat="48.4199" lon="2.71003">
        <ele>119.7</ele>
        <time>2022-06-18T10:51:31.166Z</time>
      </trkpt>
      <trkpt lat="48.41976" lon="2.70983">
        <ele>116.5</ele>
        <time>2022-06-18T10:51:32.896Z</time>
      </trkpt>
      <trkpt lat="48.41954" lon="2.70974">
        <ele>113.5</ele>
        <time>2022-06-18T10:51:34.940Z</time>
      </trkpt>
      <trkpt lat="48.41936" lon="2.70953">
        <ele>110.7</ele>
        <time>2022-06-18T10:51:36.981Z</time>
      </trkpt>
      <trkpt lat="48.41892" lon="2.7089">
        <ele>104.6</ele>
        <time>2022-06-18T10:51:42.424Z</time>
      </trkpt>
      <trkpt lat="48.41857" lon="2.70822">
        <ele>100</ele>
        <time>2022-06-18T10:51:47.545Z</time>
      </trkpt>
      <trkpt lat="48.41862" lon="2.70772">
        <ele>100.2</ele>
        <time>2022-06-18T10:51:54.008Z</time>
      </trkpt>
      <trkpt lat="48.41868" lon="2.70773">
        <ele>100.7</ele>
        <time>2022-06-18T10:51:56.456Z</time>
      </trkpt>
      <trkpt lat="48.41892" lon="2.70747">
        <ele>103.4</ele>
        <time>2022-06-18T10:52:09.363Z</time>
      </trkpt>
      <trkpt lat="48.41944" lon="2.70632">
        <ele>109.2</ele>
        <time>2022-06-18T10:52:41.458Z</time>
      </trkpt>
      <trkpt lat="48.41962" lon="2.70414">
        <ele>108.9</ele>
        <time>2022-06-18T10:53:07.192Z</time>
      </trkpt>
      <trkpt lat="48.41979" lon="2.70353">
        <ele>109.2</ele>
        <time>2022-06-18T10:53:15.720Z</time>
      </trkpt>
      <trkpt lat="48.42008" lon="2.70266">
        <ele>110.7</ele>
        <time>2022-06-18T10:53:30.662Z</time>
      </trkpt>
      <trkpt lat="48.42023" lon="2.70191">
        <ele>110</ele>
        <time>2022-06-18T10:53:37.818Z</time>
      </trkpt>
      <trkpt lat="48.42062" lon="2.69988">
        <ele>107.9</ele>
        <time>2022-06-18T10:53:56.761Z</time>
      </trkpt>
      <trkpt lat="48.4209" lon="2.69868">
        <ele>106.5</ele>
        <time>2022-06-18T10:54:07.938Z</time>
      </trkpt>
      <trkpt lat="48.41985" lon="2.6973">
        <ele>98</ele>
        <time>2022-06-18T10:54:19.897Z</time>
      </trkpt>
      <trkpt lat="48.41892" lon="2.69605">
        <ele>97.2</ele>
        <time>2022-06-18T10:54:40.556Z</time>
      </trkpt>
      <trkpt lat="48.41871" lon="2.69575">
        <ele>98.2</ele>
        <time>2022-06-18T10:54:48.265Z</time>
      </trkpt>
      <trkpt lat="48.4182" lon="2.69509">
        <ele>98.7</ele>
        <time>2022-06-18T10:55:01.400Z</time>
      </trkpt>
      <trkpt lat="48.41797" lon="2.69472">
        <ele>100.3</ele>
        <time>2022-06-18T10:55:11.943Z</time>
      </trkpt>
      <trkpt lat="48.41785" lon="2.69468">
        <ele>101.2</ele>
        <time>2022-06-18T10:55:16.558Z</time>
      </trkpt>
      <trkpt lat="48.41744" lon="2.69449">
        <ele>104.7</ele>
        <time>2022-06-18T10:55:33.779Z</time>
      </trkpt>
      <trkpt lat="48.4163" lon="2.69397">
        <ele>114.3</ele>
        <time>2022-06-18T10:56:21.209Z</time>
      </trkpt>
      <trkpt lat="48.41404" lon="2.69289">
        <ele>127</ele>
        <time>2022-06-18T10:57:38.498Z</time>
      </trkpt>
      <trkpt lat="48.41263" lon="2.69229">
        <ele>111.2</ele>
        <time>2022-06-18T10:57:51.635Z</time>
      </trkpt>
      <trkpt lat="48.41235" lon="2.69214">
        <ele>109.3</ele>
        <time>2022-06-18T10:57:54.128Z</time>
      </trkpt>
      <trkpt lat="48.41139" lon="2.69127">
        <ele>102.6</ele>
        <time>2022-06-18T10:58:03.835Z</time>
      </trkpt>
      <trkpt lat="48.41072" lon="2.69068">
        <ele>97.3</ele>
        <time>2022-06-18T10:58:10.794Z</time>
      </trkpt>
      <trkpt lat="48.41047" lon="2.68894">
        <ele>97.3</ele>
        <time>2022-06-18T10:58:32.311Z</time>
      </trkpt>
      <trkpt lat="48.4102" lon="2.68679">
        <ele>99.6</ele>
        <time>2022-06-18T10:59:03.243Z</time>
      </trkpt>
      <trkpt lat="48.41009" lon="2.68607">
        <ele>100.2</ele>
        <time>2022-06-18T10:59:13.299Z</time>
      </trkpt>
      <trkpt lat="48.40999" lon="2.68525">
        <ele>98.6</ele>
        <time>2022-06-18T10:59:19.668Z</time>
      </trkpt>
      <trkpt lat="48.40988" lon="2.68445">
        <ele>97.3</ele>
        <time>2022-06-18T10:59:26.254Z</time>
      </trkpt>
      <trkpt lat="48.40969" lon="2.68352">
        <ele>96.6</ele>
        <time>2022-06-18T10:59:35.452Z</time>
      </trkpt>
      <trkpt lat="48.40968" lon="2.68349">
        <ele>96.6</ele>
        <time>2022-06-18T10:59:35.858Z</time>
      </trkpt>
      <trkpt lat="48.40964" lon="2.6833">
        <ele>96.4</ele>
        <time>2022-06-18T10:59:37.641Z</time>
      </trkpt>
      <trkpt lat="48.4096" lon="2.68312">
        <ele>95.9</ele>
        <time>2022-06-18T10:59:38.943Z</time>
      </trkpt>
      <trkpt lat="48.40949" lon="2.68277">
        <ele>95.2</ele>
        <time>2022-06-18T10:59:41.954Z</time>
      </trkpt>
      <trkpt lat="48.40944" lon="2.68241">
        <ele>94.8</ele>
        <time>2022-06-18T10:59:45.195Z</time>
      </trkpt>
      <trkpt lat="48.40932" lon="2.68202">
        <ele>93.9</ele>
        <time>2022-06-18T10:59:48.389Z</time>
      </trkpt>
      <trkpt lat="48.40918" lon="2.68192">
        <ele>93.3</ele>
        <time>2022-06-18T10:59:50.004Z</time>
      </trkpt>
      <trkpt lat="48.40893" lon="2.68159">
        <ele>92.4</ele>
        <time>2022-06-18T10:59:53.905Z</time>
      </trkpt>
      <trkpt lat="48.40824" lon="2.68025">
        <ele>92.2</ele>
        <time>2022-06-18T11:00:13.859Z</time>
      </trkpt>
      <trkpt lat="48.40791" lon="2.6796">
        <ele>92.2</ele>
        <time>2022-06-18T11:00:23.750Z</time>
      </trkpt>
      <trkpt lat="48.40741" lon="2.67848">
        <ele>92</ele>
        <time>2022-06-18T11:00:39.523Z</time>
      </trkpt>
      <trkpt lat="48.40734" lon="2.67833">
        <ele>91.8</ele>
        <time>2022-06-18T11:00:41.138Z</time>
      </trkpt>
      <trkpt lat="48.4066" lon="2.67771">
        <ele>88.3</ele>
        <time>2022-06-18T11:00:49.747Z</time>
      </trkpt>
      <trkpt lat="48.40544" lon="2.67679">
        <ele>85.2</ele>
        <time>2022-06-18T11:01:05.725Z</time>
      </trkpt>
      <trkpt lat="48.40414" lon="2.67635">
        <ele>81.7</ele>
        <time>2022-06-18T11:01:21.501Z</time>
      </trkpt>
      <trkpt lat="48.40389" lon="2.67628">
        <ele>81.4</ele>
        <time>2022-06-18T11:01:25.077Z</time>
      </trkpt>
      <trkpt lat="48.40219" lon="2.67569">
        <ele>82.9</ele>
        <time>2022-06-18T11:01:59.556Z</time>
      </trkpt>
      <trkpt lat="48.40184" lon="2.67573">
        <ele>123.054045</ele>
        <time>2022-06-18T11:02:24.207Z</time>
      </trkpt>
      <trkpt lat="48.40186" lon="2.67555">
        <ele>122.87167</ele>
        <time>2022-06-18T11:02:25.842Z</time>
      </trkpt>
      <trkpt lat="48.40189" lon="2.67542">
        <ele>122.726065</ele>
        <time>2022-06-18T11:02:27.061Z</time>
      </trkpt>
      <trkpt lat="48.40195" lon="2.67528">
        <ele>122.557655</ele>
        <time>2022-06-18T11:02:28.551Z</time>
      </trkpt>
      <trkpt lat="48.40202" lon="2.67516">
        <ele>122.404637</ele>
        <time>2022-06-18T11:02:29.993Z</time>
      </trkpt>
      <trkpt lat="48.40208" lon="2.67501">
        <ele>122.222563</ele>
        <time>2022-06-18T11:02:31.550Z</time>
      </trkpt>
      <trkpt lat="48.40213" lon="2.67488">
        <ele>122.070231</ele>
        <time>2022-06-18T11:02:32.892Z</time>
      </trkpt>
      <trkpt lat="48.4022" lon="2.67474">
        <ele>121.890816</ele>
        <time>2022-06-18T11:02:34.455Z</time>
      </trkpt>
      <trkpt lat="48.40225" lon="2.67458">
        <ele>121.708954</ele>
        <time>2022-06-18T11:02:36.030Z</time>
      </trkpt>
      <trkpt lat="48.4023" lon="2.67444">
        <ele>121.555282</ele>
        <time>2022-06-18T11:02:37.463Z</time>
      </trkpt>
      <trkpt lat="48.40234" lon="2.67428">
        <ele>121.381272</ele>
        <time>2022-06-18T11:02:38.989Z</time>
      </trkpt>
      <trkpt lat="48.40239" lon="2.67414">
        <ele>121.217282</ele>
        <time>2022-06-18T11:02:40.405Z</time>
      </trkpt>
      <trkpt lat="48.40246" lon="2.67399">
        <ele>121.027723</ele>
        <time>2022-06-18T11:02:42.037Z</time>
      </trkpt>
      <trkpt lat="48.40251" lon="2.67386">
        <ele>120.881147</ele>
        <time>2022-06-18T11:02:43.389Z</time>
      </trkpt>
      <trkpt lat="48.40258" lon="2.67374">
        <ele>120.718126</ele>
        <time>2022-06-18T11:02:44.814Z</time>
      </trkpt>
      <trkpt lat="48.40264" lon="2.67363">
        <ele>120.769767</ele>
        <time>2022-06-18T11:02:46.625Z</time>
      </trkpt>
      <trkpt lat="48.4027" lon="2.67349">
        <ele>120.901375</ele>
        <time>2022-06-18T11:02:48.886Z</time>
      </trkpt>
      <trkpt lat="48.40273" lon="2.67329">
        <ele>121.0683</ele>
        <time>2022-06-18T11:02:51.678Z</time>
      </trkpt>
      <trkpt lat="48.40277" lon="2.67316">
        <ele>121.183838</ele>
        <time>2022-06-18T11:02:53.627Z</time>
      </trkpt>
      <trkpt lat="48.40284" lon="2.67303">
        <ele>121.318197</ele>
        <time>2022-06-18T11:02:55.902Z</time>
      </trkpt>
      <trkpt lat="48.40288" lon="2.67288">
        <ele>121.447007</ele>
        <time>2022-06-18T11:02:58.098Z</time>
      </trkpt>
      <trkpt lat="48.40297" lon="2.67271">
        <ele>121.623659</ele>
        <time>2022-06-18T11:03:01.058Z</time>
      </trkpt>
      <trkpt lat="48.40302" lon="2.67259">
        <ele>121.73823</ele>
        <time>2022-06-18T11:03:02.985Z</time>
      </trkpt>
      <trkpt lat="48.40306" lon="2.67245">
        <ele>121.859669</ele>
        <time>2022-06-18T11:03:05.055Z</time>
      </trkpt>
      <trkpt lat="48.40309" lon="2.67232">
        <ele>121.971674</ele>
        <time>2022-06-18T11:03:06.929Z</time>
      </trkpt>
      <trkpt lat="48.40316" lon="2.6722">
        <ele>122.094921</ele>
        <time>2022-06-18T11:03:09.090Z</time>
      </trkpt>
      <trkpt lat="48.40322" lon="2.67204">
        <ele>122.244467</ele>
        <time>2022-06-18T11:03:11.592Z</time>
      </trkpt>
      <trkpt lat="48.40329" lon="2.67189">
        <ele>122.391412</ele>
        <time>2022-06-18T11:03:14.084Z</time>
      </trkpt>
      <trkpt lat="48.40335" lon="2.67176">
        <ele>122.518273</ele>
        <time>2022-06-18T11:03:16.236Z</time>
      </trkpt>
      <trkpt lat="48.40341" lon="2.67161">
        <ele>122.662058</ele>
        <time>2022-06-18T11:03:18.623Z</time>
      </trkpt>
      <trkpt lat="48.40347" lon="2.67147">
        <ele>122.796837</ele>
        <time>2022-06-18T11:03:20.890Z</time>
      </trkpt>
      <trkpt lat="48.40354" lon="2.67128">
        <ele>122.965685</ele>
        <time>2022-06-18T11:03:23.832Z</time>
      </trkpt>
      <trkpt lat="48.40368" lon="2.67092">
        <ele>123.262742</ele>
        <time>2022-06-18T11:03:29.425Z</time>
      </trkpt>
      <trkpt lat="48.40374" lon="2.67077">
        <ele>123.389911</ele>
        <time>2022-06-18T11:03:31.777Z</time>
      </trkpt>
      <trkpt lat="48.40379" lon="2.67063">
        <ele>123.511033</ele>
        <time>2022-06-18T11:03:33.925Z</time>
      </trkpt>
      <trkpt lat="48.40384" lon="2.67047">
        <ele>123.634278</ele>
        <time>2022-06-18T11:03:36.290Z</time>
      </trkpt>
      <trkpt lat="48.40393" lon="2.67015">
        <ele>123.891953</ele>
        <time>2022-06-18T11:03:40.969Z</time>
      </trkpt>
      <trkpt lat="48.40399" lon="2.67004">
        <ele>123.996809</ele>
        <time>2022-06-18T11:03:42.885Z</time>
      </trkpt>
      <trkpt lat="48.40407" lon="2.66989">
        <ele>124.130305</ele>
        <time>2022-06-18T11:03:45.457Z</time>
      </trkpt>
      <trkpt lat="48.40414" lon="2.66973">
        <ele>124.274948</ele>
        <time>2022-06-18T11:03:48.042Z</time>
      </trkpt>
      <trkpt lat="48.40422" lon="2.66954">
        <ele>124.437933</ele>
        <time>2022-06-18T11:03:51.064Z</time>
      </trkpt>
      <trkpt lat="48.40427" lon="2.66942">
        <ele>124.536993</ele>
        <time>2022-06-18T11:03:52.959Z</time>
      </trkpt>
      <trkpt lat="48.40433" lon="2.66928">
        <ele>124.659796</ele>
        <time>2022-06-18T11:03:55.201Z</time>
      </trkpt>
      <trkpt lat="48.40439" lon="2.66914">
        <ele>124.782543</ele>
        <time>2022-06-18T11:03:57.443Z</time>
      </trkpt>
      <trkpt lat="48.40445" lon="2.66901">
        <ele>125.215276</ele>
        <time>2022-06-18T11:04:00.516Z</time>
      </trkpt>
      <trkpt lat="48.40451" lon="2.66886">
        <ele>126.08869</ele>
        <time>2022-06-18T11:04:04.946Z</time>
      </trkpt>
      <trkpt lat="48.40456" lon="2.6687">
        <ele>126.980408</ele>
        <time>2022-06-18T11:04:09.450Z</time>
      </trkpt>
      <trkpt lat="48.40461" lon="2.66856">
        <ele>127.753101</ele>
        <time>2022-06-18T11:04:13.413Z</time>
      </trkpt>
      <trkpt lat="48.40466" lon="2.66843">
        <ele>128.523484</ele>
        <time>2022-06-18T11:04:17.278Z</time>
      </trkpt>
      <trkpt lat="48.40471" lon="2.6683">
        <ele>129.243703</ele>
        <time>2022-06-18T11:04:20.994Z</time>
      </trkpt>
      <trkpt lat="48.40478" lon="2.66817">
        <ele>130.067047</ele>
        <time>2022-06-18T11:04:25.195Z</time>
      </trkpt>
      <trkpt lat="48.4048" lon="2.66804">
        <ele>130.738239</ele>
        <time>2022-06-18T11:04:28.588Z</time>
      </trkpt>
      <trkpt lat="48.40478" lon="2.66788">
        <ele>131.521081</ele>
        <time>2022-06-18T11:04:32.622Z</time>
      </trkpt>
      <trkpt lat="48.40469" lon="2.66778">
        <ele>132.347388</ele>
        <time>2022-06-18T11:04:36.843Z</time>
      </trkpt>
      <trkpt lat="48.40475" lon="2.66789">
        <ele>133.051428</ele>
        <time>2022-06-18T11:04:40.427Z</time>
      </trkpt>
      <trkpt lat="48.40482" lon="2.66799">
        <ele>133.744985</ele>
        <time>2022-06-18T11:04:44.013Z</time>
      </trkpt>
      <trkpt lat="48.40495" lon="2.66801">
        <ele>134.695508</ele>
        <time>2022-06-18T11:04:48.902Z</time>
      </trkpt>
      <trkpt lat="48.40511" lon="2.66805">
        <ele>135.961682</ele>
        <time>2022-06-18T11:04:55.229Z</time>
      </trkpt>
      <trkpt lat="48.40521" lon="2.66808">
        <ele>136.706115</ele>
        <time>2022-06-18T11:04:59.051Z</time>
      </trkpt>
      <trkpt lat="48.40539" lon="2.66813">
        <ele>138.067847</ele>
        <time>2022-06-18T11:05:05.987Z</time>
      </trkpt>
      <trkpt lat="48.40549" lon="2.66816">
        <ele>139.440127</ele>
        <time>2022-06-18T11:05:13.148Z</time>
      </trkpt>
      <trkpt lat="48.40565" lon="2.66821">
        <ele>141.747939</ele>
        <time>2022-06-18T11:05:24.624Z</time>
      </trkpt>
      <trkpt lat="48.40578" lon="2.66823">
        <ele>143.587285</ele>
        <time>2022-06-18T11:05:33.801Z</time>
      </trkpt>
      <trkpt lat="48.40589" lon="2.66826">
        <ele>145.267393</ele>
        <time>2022-06-18T11:05:41.652Z</time>
      </trkpt>
      <trkpt lat="48.40612" lon="2.66833">
        <ele>148.613396</ele>
        <time>2022-06-18T11:05:58.131Z</time>
      </trkpt>
      <trkpt lat="48.40626" lon="2.66838">
        <ele>150.796622</ele>
        <time>2022-06-18T11:06:08.236Z</time>
      </trkpt>
      <trkpt lat="48.40636" lon="2.66841">
        <ele>152.151289</ele>
        <time>2022-06-18T11:06:15.337Z</time>
      </trkpt>
      <trkpt lat="48.40646" lon="2.6685">
        <ele>153.855683</ele>
        <time>2022-06-18T11:06:23.518Z</time>
      </trkpt>
      <trkpt lat="48.40653" lon="2.66859">
        <ele>155.211126</ele>
        <time>2022-06-18T11:06:29.981Z</time>
      </trkpt>
      <trkpt lat="48.40664" lon="2.6687">
        <ele>157.146195</ele>
        <time>2022-06-18T11:06:39.254Z</time>
      </trkpt>
      <trkpt lat="48.40676" lon="2.66879">
        <ele>159.008971</ele>
        <time>2022-06-18T11:06:48.668Z</time>
      </trkpt>
      <trkpt lat="48.40686" lon="2.66891">
        <ele>160.946052</ele>
        <time>2022-06-18T11:06:57.647Z</time>
      </trkpt>
      <trkpt lat="48.40697" lon="2.66903">
        <ele>162.888446</ele>
        <time>2022-06-18T11:07:07.185Z</time>
      </trkpt>
      <trkpt lat="48.40706" lon="2.66916">
        <ele>164.286983</ele>
        <time>2022-06-18T11:07:13.882Z</time>
      </trkpt>
      <trkpt lat="48.40714" lon="2.66924">
        <ele>164.406037</ele>
        <time>2022-06-18T11:07:15.855Z</time>
      </trkpt>
      <trkpt lat="48.40726" lon="2.66932">
        <ele>164.554747</ele>
        <time>2022-06-18T11:07:18.521Z</time>
      </trkpt>
      <trkpt lat="48.40734" lon="2.6694">
        <ele>164.670119</ele>
        <time>2022-06-18T11:07:20.485Z</time>
      </trkpt>
      <trkpt lat="48.40743" lon="2.66938">
        <ele>164.781294</ele>
        <time>2022-06-18T11:07:22.350Z</time>
      </trkpt>
      <trkpt lat="48.40741" lon="2.66924">
        <ele>164.896515</ele>
        <time>2022-06-18T11:07:24.297Z</time>
      </trkpt>
      <trkpt lat="48.40741" lon="2.66907">
        <ele>165.026693</ele>
        <time>2022-06-18T11:07:26.595Z</time>
      </trkpt>
      <trkpt lat="48.4074" lon="2.66893">
        <ele>165.139596</ele>
        <time>2022-06-18T11:07:28.508Z</time>
      </trkpt>
      <trkpt lat="48.40737" lon="2.66877">
        <ele>165.270681</ele>
        <time>2022-06-18T11:07:30.763Z</time>
      </trkpt>
      <trkpt lat="48.40734" lon="2.6686">
        <ele>165.409868</ele>
        <time>2022-06-18T11:07:33.150Z</time>
      </trkpt>
      <trkpt lat="48.40734" lon="2.66847">
        <ele>165.517516</ele>
        <time>2022-06-18T11:07:34.924Z</time>
      </trkpt>
      <trkpt lat="48.40729" lon="2.66828">
        <ele>165.673999</ele>
        <time>2022-06-18T11:07:37.686Z</time>
      </trkpt>
      <trkpt lat="48.40733" lon="2.66809">
        <ele>165.834026</ele>
        <time>2022-06-18T11:07:40.395Z</time>
      </trkpt>
      <trkpt lat="48.40738" lon="2.66791">
        <ele>165.986236</ele>
        <time>2022-06-18T11:07:43.038Z</time>
      </trkpt>
      <trkpt lat="48.40739" lon="2.66776">
        <ele>166.103322</ele>
        <time>2022-06-18T11:07:45.079Z</time>
      </trkpt>
      <trkpt lat="48.40742" lon="2.66762">
        <ele>166.219705</ele>
        <time>2022-06-18T11:07:47.075Z</time>
      </trkpt>
      <trkpt lat="48.40749" lon="2.66751">
        <ele>166.338987</ele>
        <time>2022-06-18T11:07:49.140Z</time>
      </trkpt>
      <trkpt lat="48.40756" lon="2.66742">
        <ele>166.563601</ele>
        <time>2022-06-18T11:07:51.298Z</time>
      </trkpt>
      <trkpt lat="48.40755" lon="2.66727">
        <ele>166.896752</ele>
        <time>2022-06-18T11:07:53.919Z</time>
      </trkpt>
      <trkpt lat="48.40754" lon="2.66713">
        <ele>167.220337</ele>
        <time>2022-06-18T11:07:56.411Z</time>
      </trkpt>
      <trkpt lat="48.40756" lon="2.66697">
        <ele>167.590574</ele>
        <time>2022-06-18T11:07:59.279Z</time>
      </trkpt>
      <trkpt lat="48.40755" lon="2.66682">
        <ele>167.909962</ele>
        <time>2022-06-18T11:08:01.854Z</time>
      </trkpt>
      <trkpt lat="48.40754" lon="2.66669">
        <ele>168.22458</ele>
        <time>2022-06-18T11:08:04.221Z</time>
      </trkpt>
      <trkpt lat="48.40752" lon="2.66652">
        <ele>168.60091</ele>
        <time>2022-06-18T11:08:07.205Z</time>
      </trkpt>
      <trkpt lat="48.40753" lon="2.66636">
        <ele>168.974689</ele>
        <time>2022-06-18T11:08:10.066Z</time>
      </trkpt>
      <trkpt lat="48.40757" lon="2.66621">
        <ele>169.322524</ele>
        <time>2022-06-18T11:08:12.844Z</time>
      </trkpt>
      <trkpt lat="48.40763" lon="2.66612">
        <ele>169.630189</ele>
        <time>2022-06-18T11:08:15.155Z</time>
      </trkpt>
      <trkpt lat="48.40769" lon="2.66597">
        <ele>170.017554</ele>
        <time>2022-06-18T11:08:18.202Z</time>
      </trkpt>
      <trkpt lat="48.40774" lon="2.66586">
        <ele>170.331989</ele>
        <time>2022-06-18T11:08:20.590Z</time>
      </trkpt>
      <trkpt lat="48.4078" lon="2.66574">
        <ele>170.66233</ele>
        <time>2022-06-18T11:08:23.197Z</time>
      </trkpt>
      <trkpt lat="48.40785" lon="2.66555">
        <ele>171.128006</ele>
        <time>2022-06-18T11:08:26.800Z</time>
      </trkpt>
      <trkpt lat="48.40785" lon="2.66541">
        <ele>171.435511</ele>
        <time>2022-06-18T11:08:29.228Z</time>
      </trkpt>
      <trkpt lat="48.40784" lon="2.66522">
        <ele>171.879409</ele>
        <time>2022-06-18T11:08:32.623Z</time>
      </trkpt>
      <trkpt lat="48.40782" lon="2.66508">
        <ele>172.191629</ele>
        <time>2022-06-18T11:08:35.098Z</time>
      </trkpt>
      <trkpt lat="48.40779" lon="2.66489">
        <ele>172.55481</ele>
        <time>2022-06-18T11:08:38.274Z</time>
      </trkpt>
      <trkpt lat="48.40777" lon="2.66471">
        <ele>172.69194</ele>
        <time>2022-06-18T11:08:40.735Z</time>
      </trkpt>
      <trkpt lat="48.40776" lon="2.66458">
        <ele>172.796082</ele>
        <time>2022-06-18T11:08:42.512Z</time>
      </trkpt>
      <trkpt lat="48.40775" lon="2.66441">
        <ele>172.921323</ele>
        <time>2022-06-18T11:08:44.807Z</time>
      </trkpt>
      <trkpt lat="48.40772" lon="2.66426">
        <ele>173.044432</ele>
        <time>2022-06-18T11:08:46.930Z</time>
      </trkpt>
      <trkpt lat="48.40774" lon="2.66409">
        <ele>173.173243</ele>
        <time>2022-06-18T11:08:49.257Z</time>
      </trkpt>
      <trkpt lat="48.40774" lon="2.66395">
        <ele>173.27802</ele>
        <time>2022-06-18T11:08:51.144Z</time>
      </trkpt>
      <trkpt lat="48.40773" lon="2.66373">
        <ele>173.444272</ele>
        <time>2022-06-18T11:08:54.118Z</time>
      </trkpt>
      <trkpt lat="48.40769" lon="2.6636">
        <ele>173.556638</ele>
        <time>2022-06-18T11:08:56.060Z</time>
      </trkpt>
      <trkpt lat="48.40775" lon="2.66319">
        <ele>173.876411</ele>
        <time>2022-06-18T11:09:01.731Z</time>
      </trkpt>
      <trkpt lat="48.40776" lon="2.66305">
        <ele>173.983538</ele>
        <time>2022-06-18T11:09:03.632Z</time>
      </trkpt>
      <trkpt lat="48.40775" lon="2.66285">
        <ele>174.136834</ele>
        <time>2022-06-18T11:09:06.342Z</time>
      </trkpt>
      <trkpt lat="48.40773" lon="2.66268">
        <ele>174.268992</ele>
        <time>2022-06-18T11:09:08.675Z</time>
      </trkpt>
      <trkpt lat="48.40773" lon="2.66254">
        <ele>174.372251</ele>
        <time>2022-06-18T11:09:10.559Z</time>
      </trkpt>
      <trkpt lat="48.40773" lon="2.66235">
        <ele>174.514961</ele>
        <time>2022-06-18T11:09:13.121Z</time>
      </trkpt>
      <trkpt lat="48.40774" lon="2.66219">
        <ele>174.544754</ele>
        <time>2022-06-18T11:09:15.115Z</time>
      </trkpt>
      <trkpt lat="48.40775" lon="2.66205">
        <ele>174.499762</ele>
        <time>2022-06-18T11:09:16.700Z</time>
      </trkpt>
      <trkpt lat="48.40776" lon="2.66186">
        <ele>174.439203</ele>
        <time>2022-06-18T11:09:18.846Z</time>
      </trkpt>
      <trkpt lat="48.40781" lon="2.66171">
        <ele>174.385706</ele>
        <time>2022-06-18T11:09:20.736Z</time>
      </trkpt>
      <trkpt lat="48.40781" lon="2.66156">
        <ele>174.338592</ele>
        <time>2022-06-18T11:09:22.426Z</time>
      </trkpt>
      <trkpt lat="48.40776" lon="2.66141">
        <ele>174.285717</ele>
        <time>2022-06-18T11:09:24.317Z</time>
      </trkpt>
      <trkpt lat="48.40772" lon="2.66124">
        <ele>174.227856</ele>
        <time>2022-06-18T11:09:26.347Z</time>
      </trkpt>
      <trkpt lat="48.40773" lon="2.66106">
        <ele>174.173282</ele>
        <time>2022-06-18T11:09:28.388Z</time>
      </trkpt>
      <trkpt lat="48.4077" lon="2.6609">
        <ele>174.119802</ele>
        <time>2022-06-18T11:09:30.258Z</time>
      </trkpt>
      <trkpt lat="48.40766" lon="2.66075">
        <ele>174.068991</ele>
        <time>2022-06-18T11:09:32.080Z</time>
      </trkpt>
      <trkpt lat="48.40762" lon="2.66054">
        <ele>174.001032</ele>
        <time>2022-06-18T11:09:34.544Z</time>
      </trkpt>
      <trkpt lat="48.40762" lon="2.66035">
        <ele>173.941614</ele>
        <time>2022-06-18T11:09:36.686Z</time>
      </trkpt>
      <trkpt lat="48.40759" lon="2.66014">
        <ele>173.872926</ele>
        <time>2022-06-18T11:09:39.103Z</time>
      </trkpt>
      <trkpt lat="48.40758" lon="2.65998">
        <ele>173.820955</ele>
        <time>2022-06-18T11:09:40.911Z</time>
      </trkpt>
      <trkpt lat="48.40758" lon="2.65981">
        <ele>173.768273</ele>
        <time>2022-06-18T11:09:42.828Z</time>
      </trkpt>
      <trkpt lat="48.40762" lon="2.65966">
        <ele>173.717928</ele>
        <time>2022-06-18T11:09:44.651Z</time>
      </trkpt>
      <trkpt lat="48.40759" lon="2.6594">
        <ele>173.882198</ele>
        <time>2022-06-18T11:09:48.141Z</time>
      </trkpt>
      <trkpt lat="48.40757" lon="2.65927">
        <ele>173.968857</ele>
        <time>2022-06-18T11:09:49.912Z</time>
      </trkpt>
      <trkpt lat="48.40756" lon="2.65913">
        <ele>174.058162</ele>
        <time>2022-06-18T11:09:51.777Z</time>
      </trkpt>
      <trkpt lat="48.40755" lon="2.65896">
        <ele>174.165031</ele>
        <time>2022-06-18T11:09:54.035Z</time>
      </trkpt>
      <trkpt lat="48.4076" lon="2.65881">
        <ele>174.271143</ele>
        <time>2022-06-18T11:09:56.258Z</time>
      </trkpt>
      <trkpt lat="48.40764" lon="2.65868">
        <ele>174.361469</ele>
        <time>2022-06-18T11:09:58.155Z</time>
      </trkpt>
      <trkpt lat="48.40767" lon="2.6585">
        <ele>174.483901</ele>
        <time>2022-06-18T11:10:00.622Z</time>
      </trkpt>
      <trkpt lat="48.40773" lon="2.65833">
        <ele>174.601274</ele>
        <time>2022-06-18T11:10:03.163Z</time>
      </trkpt>
      <trkpt lat="48.40778" lon="2.65816">
        <ele>174.719792</ele>
        <time>2022-06-18T11:10:05.627Z</time>
      </trkpt>
      <trkpt lat="48.40781" lon="2.65786">
        <ele>174.912504</ele>
        <time>2022-06-18T11:10:09.646Z</time>
      </trkpt>
      <trkpt lat="48.40782" lon="2.65764">
        <ele>175.051141</ele>
        <time>2022-06-18T11:10:12.565Z</time>
      </trkpt>
      <trkpt lat="48.40782" lon="2.6575">
        <ele>175.141975</ele>
        <time>2022-06-18T11:10:14.423Z</time>
      </trkpt>
      <trkpt lat="48.40783" lon="2.65735">
        <ele>175.240216</ele>
        <time>2022-06-18T11:10:16.426Z</time>
      </trkpt>
      <trkpt lat="48.40787" lon="2.6572">
        <ele>175.341953</ele>
        <time>2022-06-18T11:10:18.565Z</time>
      </trkpt>
      <trkpt lat="48.40793" lon="2.65708">
        <ele>175.437851</ele>
        <time>2022-06-18T11:10:20.556Z</time>
      </trkpt>
      <trkpt lat="48.40796" lon="2.65692">
        <ele>175.398816</ele>
        <time>2022-06-18T11:10:22.462Z</time>
      </trkpt>
      <trkpt lat="48.40799" lon="2.65677">
        <ele>175.362224</ele>
        <time>2022-06-18T11:10:24.259Z</time>
      </trkpt>
      <trkpt lat="48.40798" lon="2.65663">
        <ele>175.328209</ele>
        <time>2022-06-18T11:10:25.871Z</time>
      </trkpt>
      <trkpt lat="48.40795" lon="2.65645">
        <ele>175.281504</ele>
        <time>2022-06-18T11:10:27.991Z</time>
      </trkpt>
      <trkpt lat="48.40792" lon="2.65624">
        <ele>175.231035</ele>
        <time>2022-06-18T11:10:30.454Z</time>
      </trkpt>
      <trkpt lat="48.40791" lon="2.65605">
        <ele>175.185179</ele>
        <time>2022-06-18T11:10:32.636Z</time>
      </trkpt>
      <trkpt lat="48.40788" lon="2.65588">
        <ele>175.142195</ele>
        <time>2022-06-18T11:10:34.649Z</time>
      </trkpt>
      <trkpt lat="48.40785" lon="2.65572">
        <ele>175.103395</ele>
        <time>2022-06-18T11:10:36.556Z</time>
      </trkpt>
      <trkpt lat="48.4078" lon="2.65558">
        <ele>175.065298</ele>
        <time>2022-06-18T11:10:38.376Z</time>
      </trkpt>
      <trkpt lat="48.40772" lon="2.65547">
        <ele>175.026369</ele>
        <time>2022-06-18T11:10:40.246Z</time>
      </trkpt>
      <trkpt lat="48.40766" lon="2.65532">
        <ele>174.984313</ele>
        <time>2022-06-18T11:10:42.251Z</time>
      </trkpt>
      <trkpt lat="48.40761" lon="2.65516">
        <ele>174.940713</ele>
        <time>2022-06-18T11:10:44.273Z</time>
      </trkpt>
      <trkpt lat="48.40758" lon="2.655">
        <ele>174.90004</ele>
        <time>2022-06-18T11:10:46.176Z</time>
      </trkpt>
      <trkpt lat="48.40758" lon="2.65485">
        <ele>174.864732</ele>
        <time>2022-06-18T11:10:47.895Z</time>
      </trkpt>
      <trkpt lat="48.40762" lon="2.65472">
        <ele>174.830636</ele>
        <time>2022-06-18T11:10:49.537Z</time>
      </trkpt>
      <trkpt lat="48.40767" lon="2.65457">
        <ele>174.790603</ele>
        <time>2022-06-18T11:10:51.460Z</time>
      </trkpt>
      <trkpt lat="48.40772" lon="2.65443">
        <ele>174.235172</ele>
        <time>2022-06-18T11:10:52.430Z</time>
      </trkpt>
      <trkpt lat="48.40775" lon="2.65429">
        <ele>173.687626</ele>
        <time>2022-06-18T11:10:53.302Z</time>
      </trkpt>
      <trkpt lat="48.40777" lon="2.65412">
        <ele>173.058804</ele>
        <time>2022-06-18T11:10:54.336Z</time>
      </trkpt>
      <trkpt lat="48.40778" lon="2.65394">
        <ele>172.428377</ele>
        <time>2022-06-18T11:10:55.439Z</time>
      </trkpt>
      <trkpt lat="48.40778" lon="2.65377">
        <ele>171.800138</ele>
        <time>2022-06-18T11:10:56.450Z</time>
      </trkpt>
      <trkpt lat="48.40775" lon="2.6536">
        <ele>171.167933</ele>
        <time>2022-06-18T11:10:57.510Z</time>
      </trkpt>
      <trkpt lat="48.40777" lon="2.65345">
        <ele>170.601044</ele>
        <time>2022-06-18T11:10:58.419Z</time>
      </trkpt>
      <trkpt lat="48.40778" lon="2.65331">
        <ele>170.100333</ele>
        <time>2022-06-18T11:10:59.271Z</time>
      </trkpt>
      <trkpt lat="48.40777" lon="2.65315">
        <ele>169.495363</ele>
        <time>2022-06-18T11:11:00.219Z</time>
      </trkpt>
      <trkpt lat="48.40778" lon="2.653">
        <ele>168.9418</ele>
        <time>2022-06-18T11:11:01.118Z</time>
      </trkpt>
      <trkpt lat="48.40776" lon="2.65286">
        <ele>168.445619</ele>
        <time>2022-06-18T11:11:01.996Z</time>
      </trkpt>
      <trkpt lat="48.40776" lon="2.65273">
        <ele>167.949012</ele>
        <time>2022-06-18T11:11:02.757Z</time>
      </trkpt>
      <trkpt lat="48.40777" lon="2.65259">
        <ele>167.451675</ele>
        <time>2022-06-18T11:11:03.612Z</time>
      </trkpt>
      <trkpt lat="48.40781" lon="2.65245">
        <ele>166.89174</ele>
        <time>2022-06-18T11:11:04.521Z</time>
      </trkpt>
      <trkpt lat="48.40784" lon="2.65232">
        <ele>166.37693</ele>
        <time>2022-06-18T11:11:05.335Z</time>
      </trkpt>
      <trkpt lat="48.40787" lon="2.65219">
        <ele>165.884732</ele>
        <time>2022-06-18T11:11:06.167Z</time>
      </trkpt>
      <trkpt lat="48.40787" lon="2.65204">
        <ele>165.346979</ele>
        <time>2022-06-18T11:11:07.071Z</time>
      </trkpt>
      <trkpt lat="48.40783" lon="2.6519">
        <ele>164.806349</ele>
        <time>2022-06-18T11:11:07.995Z</time>
      </trkpt>
      <trkpt lat="48.40781" lon="2.65174">
        <ele>164.373405</ele>
        <time>2022-06-18T11:11:09.107Z</time>
      </trkpt>
      <trkpt lat="48.40787" lon="2.65161">
        <ele>163.977823</ele>
        <time>2022-06-18T11:11:10.214Z</time>
      </trkpt>
      <trkpt lat="48.40787" lon="2.65145">
        <ele>163.562475</ele>
        <time>2022-06-18T11:11:11.317Z</time>
      </trkpt>
      <trkpt lat="48.40785" lon="2.65131">
        <ele>163.185418</ele>
        <time>2022-06-18T11:11:12.299Z</time>
      </trkpt>
      <trkpt lat="48.4078" lon="2.6512">
        <ele>162.834501</ele>
        <time>2022-06-18T11:11:13.213Z</time>
      </trkpt>
      <trkpt lat="48.40772" lon="2.65112">
        <ele>162.456493</ele>
        <time>2022-06-18T11:11:14.207Z</time>
      </trkpt>
      <trkpt lat="48.40761" lon="2.65104">
        <ele>162.007492</ele>
        <time>2022-06-18T11:11:15.505Z</time>
      </trkpt>
      <trkpt lat="48.40753" lon="2.65095">
        <ele>161.607177</ele>
        <time>2022-06-18T11:11:16.532Z</time>
      </trkpt>
      <trkpt lat="48.40745" lon="2.65086">
        <ele>161.239472</ele>
        <time>2022-06-18T11:11:17.592Z</time>
      </trkpt>
      <trkpt lat="48.40736" lon="2.65078">
        <ele>160.821681</ele>
        <time>2022-06-18T11:11:18.668Z</time>
      </trkpt>
      <trkpt lat="48.40726" lon="2.65071">
        <ele>160.397687</ele>
        <time>2022-06-18T11:11:19.820Z</time>
      </trkpt>
      <trkpt lat="48.4072" lon="2.6506">
        <ele>160.019376</ele>
        <time>2022-06-18T11:11:20.793Z</time>
      </trkpt>
      <trkpt lat="48.40716" lon="2.65046">
        <ele>159.629602</ele>
        <time>2022-06-18T11:11:21.849Z</time>
      </trkpt>
      <trkpt lat="48.40712" lon="2.65033">
        <ele>159.249342</ele>
        <time>2022-06-18T11:11:22.829Z</time>
      </trkpt>
      <trkpt lat="48.40706" lon="2.6502">
        <ele>158.845001</ele>
        <time>2022-06-18T11:11:23.927Z</time>
      </trkpt>
      <trkpt lat="48.40698" lon="2.6501">
        <ele>158.456029</ele>
        <time>2022-06-18T11:11:25.024Z</time>
      </trkpt>
      <trkpt lat="48.40691" lon="2.64996">
        <ele>157.999463</ele>
        <time>2022-06-18T11:11:26.231Z</time>
      </trkpt>
      <trkpt lat="48.40684" lon="2.64985">
        <ele>158.307303</ele>
        <time>2022-06-18T11:11:28.784Z</time>
      </trkpt>
      <trkpt lat="48.40679" lon="2.64974">
        <ele>158.804385</ele>
        <time>2022-06-18T11:11:31.720Z</time>
      </trkpt>
      <trkpt lat="48.40673" lon="2.6496">
        <ele>159.333764</ele>
        <time>2022-06-18T11:11:35.193Z</time>
      </trkpt>
      <trkpt lat="48.40666" lon="2.6495">
        <ele>159.886502</ele>
        <time>2022-06-18T11:11:38.419Z</time>
      </trkpt>
      <trkpt lat="48.4066" lon="2.64936">
        <ele>160.447143</ele>
        <time>2022-06-18T11:11:41.957Z</time>
      </trkpt>
      <trkpt lat="48.40661" lon="2.64923">
        <ele>160.924471</ele>
        <time>2022-06-18T11:11:44.815Z</time>
      </trkpt>
      <trkpt lat="48.40662" lon="2.64901">
        <ele>161.660422</ele>
        <time>2022-06-18T11:11:49.484Z</time>
      </trkpt>
      <trkpt lat="48.40655" lon="2.64886">
        <ele>162.310883</ele>
        <time>2022-06-18T11:11:53.448Z</time>
      </trkpt>
      <trkpt lat="48.40653" lon="2.6487">
        <ele>162.883132</ele>
        <time>2022-06-18T11:11:56.957Z</time>
      </trkpt>
      <trkpt lat="48.40651" lon="2.64852">
        <ele>163.520947</ele>
        <time>2022-06-18T11:12:00.882Z</time>
      </trkpt>
      <trkpt lat="48.40645" lon="2.64833">
        <ele>164.254751</ele>
        <time>2022-06-18T11:12:05.404Z</time>
      </trkpt>
      <trkpt lat="48.40645" lon="2.64816">
        <ele>164.816838</ele>
        <time>2022-06-18T11:12:08.993Z</time>
      </trkpt>
      <trkpt lat="48.40652" lon="2.64806">
        <ele>165.351416</ele>
        <time>2022-06-18T11:12:12.177Z</time>
      </trkpt>
      <trkpt lat="48.40653" lon="2.64791">
        <ele>165.859513</ele>
        <time>2022-06-18T11:12:15.379Z</time>
      </trkpt>
      <trkpt lat="48.40653" lon="2.64757">
        <ele>167.028758</ele>
        <time>2022-06-18T11:12:22.651Z</time>
      </trkpt>
      <trkpt lat="48.40657" lon="2.64742">
        <ele>167.624078</ele>
        <time>2022-06-18T11:12:26.194Z</time>
      </trkpt>
      <trkpt lat="48.40664" lon="2.64729">
        <ele>168.245621</ele>
        <time>2022-06-18T11:12:29.875Z</time>
      </trkpt>
      <trkpt lat="48.40666" lon="2.64716">
        <ele>168.77621</ele>
        <time>2022-06-18T11:12:32.891Z</time>
      </trkpt>
      <trkpt lat="48.4067" lon="2.647">
        <ele>169.424296</ele>
        <time>2022-06-18T11:12:36.681Z</time>
      </trkpt>
      <trkpt lat="48.40675" lon="2.64688">
        <ele>169.981615</ele>
        <time>2022-06-18T11:12:39.868Z</time>
      </trkpt>
      <trkpt lat="48.40673" lon="2.64675">
        <ele>170.502139</ele>
        <time>2022-06-18T11:12:42.860Z</time>
      </trkpt>
      <trkpt lat="48.40676" lon="2.6466">
        <ele>171.107413</ele>
        <time>2022-06-18T11:12:46.359Z</time>
      </trkpt>
      <trkpt lat="48.40676" lon="2.64644">
        <ele>171.728064</ele>
        <time>2022-06-18T11:12:49.939Z</time>
      </trkpt>
      <trkpt lat="48.40677" lon="2.64627">
        <ele>172.371685</ele>
        <time>2022-06-18T11:12:53.714Z</time>
      </trkpt>
      <trkpt lat="48.40679" lon="2.64613">
        <ele>172.928131</ele>
        <time>2022-06-18T11:12:56.920Z</time>
      </trkpt>
      <trkpt lat="48.40675" lon="2.64599">
        <ele>173.489022</ele>
        <time>2022-06-18T11:13:00.260Z</time>
      </trkpt>
      <trkpt lat="48.40668" lon="2.6459">
        <ele>174.052301</ele>
        <time>2022-06-18T11:13:03.422Z</time>
      </trkpt>
      <trkpt lat="48.40673" lon="2.64559">
        <ele>175.248924</ele>
        <time>2022-06-18T11:13:10.464Z</time>
      </trkpt>
      <trkpt lat="48.40665" lon="2.6455">
        <ele>175.820028</ele>
        <time>2022-06-18T11:13:13.801Z</time>
      </trkpt>
      <trkpt lat="48.4066" lon="2.64535">
        <ele>176.446795</ele>
        <time>2022-06-18T11:13:17.499Z</time>
      </trkpt>
      <trkpt lat="48.40656" lon="2.6452">
        <ele>177.096374</ele>
        <time>2022-06-18T11:13:21.169Z</time>
      </trkpt>
      <trkpt lat="48.40654" lon="2.64506">
        <ele>177.637825</ele>
        <time>2022-06-18T11:13:24.340Z</time>
      </trkpt>
      <trkpt lat="48.4065" lon="2.64494">
        <ele>177.651191</ele>
        <time>2022-06-18T11:13:25.986Z</time>
      </trkpt>
      <trkpt lat="48.4065" lon="2.6448">
        <ele>177.571207</ele>
        <time>2022-06-18T11:13:27.349Z</time>
      </trkpt>
      <trkpt lat="48.40653" lon="2.64466">
        <ele>177.489167</ele>
        <time>2022-06-18T11:13:28.786Z</time>
      </trkpt>
      <trkpt lat="48.40654" lon="2.64452">
        <ele>177.412905</ele>
        <time>2022-06-18T11:13:30.166Z</time>
      </trkpt>
      <trkpt lat="48.40655" lon="2.64439">
        <ele>177.335298</ele>
        <time>2022-06-18T11:13:31.435Z</time>
      </trkpt>
      <trkpt lat="48.40663" lon="2.64427">
        <ele>177.239331</ele>
        <time>2022-06-18T11:13:33.093Z</time>
      </trkpt>
      <trkpt lat="48.40671" lon="2.64415">
        <ele>177.148217</ele>
        <time>2022-06-18T11:13:34.762Z</time>
      </trkpt>
      <trkpt lat="48.40671" lon="2.644">
        <ele>177.063649</ele>
        <time>2022-06-18T11:13:36.225Z</time>
      </trkpt>
      <trkpt lat="48.40671" lon="2.64386">
        <ele>176.985778</ele>
        <time>2022-06-18T11:13:37.592Z</time>
      </trkpt>
      <trkpt lat="48.40673" lon="2.64372">
        <ele>176.9037</ele>
        <time>2022-06-18T11:13:38.986Z</time>
      </trkpt>
      <trkpt lat="48.40675" lon="2.64356">
        <ele>176.814722</ele>
        <time>2022-06-18T11:13:40.580Z</time>
      </trkpt>
      <trkpt lat="48.40677" lon="2.64343">
        <ele>176.73701</ele>
        <time>2022-06-18T11:13:41.877Z</time>
      </trkpt>
      <trkpt lat="48.40676" lon="2.64326">
        <ele>176.642244</ele>
        <time>2022-06-18T11:13:43.544Z</time>
      </trkpt>
      <trkpt lat="48.40673" lon="2.64313">
        <ele>176.563913</ele>
        <time>2022-06-18T11:13:44.885Z</time>
      </trkpt>
      <trkpt lat="48.40665" lon="2.64304">
        <ele>176.479442</ele>
        <time>2022-06-18T11:13:46.353Z</time>
      </trkpt>
      <trkpt lat="48.40661" lon="2.64291">
        <ele>176.403268</ele>
        <time>2022-06-18T11:13:47.760Z</time>
      </trkpt>
      <trkpt lat="48.40661" lon="2.64277">
        <ele>176.326673</ele>
        <time>2022-06-18T11:13:49.130Z</time>
      </trkpt>
      <trkpt lat="48.40656" lon="2.64265">
        <ele>176.245036</ele>
        <time>2022-06-18T11:13:50.508Z</time>
      </trkpt>
      <trkpt lat="48.40658" lon="2.64249">
        <ele>176.039045</ele>
        <time>2022-06-18T11:13:51.897Z</time>
      </trkpt>
      <trkpt lat="48.40651" lon="2.6424">
        <ele>175.729131</ele>
        <time>2022-06-18T11:13:52.905Z</time>
      </trkpt>
      <trkpt lat="48.40652" lon="2.64224">
        <ele>175.403005</ele>
        <time>2022-06-18T11:13:54.112Z</time>
      </trkpt>
      <trkpt lat="48.40656" lon="2.64209">
        <ele>175.06532</ele>
        <time>2022-06-18T11:13:55.314Z</time>
      </trkpt>
      <trkpt lat="48.4066" lon="2.64194">
        <ele>174.736952</ele>
        <time>2022-06-18T11:13:56.527Z</time>
      </trkpt>
      <trkpt lat="48.40669" lon="2.64178">
        <ele>174.29992</ele>
        <time>2022-06-18T11:13:58.088Z</time>
      </trkpt>
      <trkpt lat="48.40674" lon="2.64166">
        <ele>174.00604</ele>
        <time>2022-06-18T11:13:59.144Z</time>
      </trkpt>
      <trkpt lat="48.40683" lon="2.64148">
        <ele>173.532377</ele>
        <time>2022-06-18T11:14:00.817Z</time>
      </trkpt>
      <trkpt lat="48.40687" lon="2.64135">
        <ele>173.237047</ele>
        <time>2022-06-18T11:14:01.887Z</time>
      </trkpt>
      <trkpt lat="48.40689" lon="2.64119">
        <ele>172.911178</ele>
        <time>2022-06-18T11:14:03.115Z</time>
      </trkpt>
      <trkpt lat="48.40692" lon="2.64101">
        <ele>172.510612</ele>
        <time>2022-06-18T11:14:04.480Z</time>
      </trkpt>
      <trkpt lat="48.40694" lon="2.64085">
        <ele>172.188569</ele>
        <time>2022-06-18T11:14:05.712Z</time>
      </trkpt>
      <trkpt lat="48.40697" lon="2.64073">
        <ele>171.898307</ele>
        <time>2022-06-18T11:14:06.641Z</time>
      </trkpt>
      <trkpt lat="48.40707" lon="2.64067">
        <ele>171.581687</ele>
        <time>2022-06-18T11:14:07.873Z</time>
      </trkpt>
      <trkpt lat="48.40714" lon="2.64056">
        <ele>171.265325</ele>
        <time>2022-06-18T11:14:09.008Z</time>
      </trkpt>
      <trkpt lat="48.40719" lon="2.64042">
        <ele>170.945157</ele>
        <time>2022-06-18T11:14:10.205Z</time>
      </trkpt>
      <trkpt lat="48.40729" lon="2.64035">
        <ele>170.605367</ele>
        <time>2022-06-18T11:14:11.448Z</time>
      </trkpt>
      <trkpt lat="48.40737" lon="2.64029">
        <ele>170.942248</ele>
        <time>2022-06-18T11:14:13.934Z</time>
      </trkpt>
      <trkpt lat="48.40745" lon="2.64021">
        <ele>171.368712</ele>
        <time>2022-06-18T11:14:16.881Z</time>
      </trkpt>
      <trkpt lat="48.40753" lon="2.64009">
        <ele>171.817098</ele>
        <time>2022-06-18T11:14:20.112Z</time>
      </trkpt>
      <trkpt lat="48.40762" lon="2.64">
        <ele>172.272723</ele>
        <time>2022-06-18T11:14:23.317Z</time>
      </trkpt>
      <trkpt lat="48.40771" lon="2.63988">
        <ele>172.79282</ele>
        <time>2022-06-18T11:14:26.942Z</time>
      </trkpt>
      <trkpt lat="48.40781" lon="2.63979">
        <ele>173.264603</ele>
        <time>2022-06-18T11:14:30.314Z</time>
      </trkpt>
      <trkpt lat="48.4079" lon="2.6397">
        <ele>173.747597</ele>
        <time>2022-06-18T11:14:33.638Z</time>
      </trkpt>
      <trkpt lat="48.40798" lon="2.63963">
        <ele>174.132177</ele>
        <time>2022-06-18T11:14:36.358Z</time>
      </trkpt>
      <trkpt lat="48.40807" lon="2.63951">
        <ele>174.658247</ele>
        <time>2022-06-18T11:14:40.011Z</time>
      </trkpt>
      <trkpt lat="48.40815" lon="2.63939">
        <ele>175.118947</ele>
        <time>2022-06-18T11:14:43.294Z</time>
      </trkpt>
      <trkpt lat="48.40825" lon="2.6393">
        <ele>175.613669</ele>
        <time>2022-06-18T11:14:46.765Z</time>
      </trkpt>
      <trkpt lat="48.40834" lon="2.63918">
        <ele>176.133763</ele>
        <time>2022-06-18T11:14:50.390Z</time>
      </trkpt>
      <trkpt lat="48.40839" lon="2.63904">
        <ele>176.558078</ele>
        <time>2022-06-18T11:14:53.432Z</time>
      </trkpt>
      <trkpt lat="48.40839" lon="2.63891">
        <ele>176.937884</ele>
        <time>2022-06-18T11:14:56.065Z</time>
      </trkpt>
      <trkpt lat="48.40841" lon="2.63874">
        <ele>177.401208</ele>
        <time>2022-06-18T11:14:59.378Z</time>
      </trkpt>
      <trkpt lat="48.40849" lon="2.63867">
        <ele>177.806904</ele>
        <time>2022-06-18T11:15:02.194Z</time>
      </trkpt>
      <trkpt lat="48.40861" lon="2.63865">
        <ele>178.152309</ele>
        <time>2022-06-18T11:15:05.173Z</time>
      </trkpt>
      <trkpt lat="48.40868" lon="2.63849">
        <ele>177.896437</ele>
        <time>2022-06-18T11:15:06.787Z</time>
      </trkpt>
      <trkpt lat="48.40871" lon="2.63834">
        <ele>177.688593</ele>
        <time>2022-06-18T11:15:08.109Z</time>
      </trkpt>
      <trkpt lat="48.40873" lon="2.6382">
        <ele>177.499915</ele>
        <time>2022-06-18T11:15:09.319Z</time>
      </trkpt>
      <trkpt lat="48.40877" lon="2.63806">
        <ele>177.295252</ele>
        <time>2022-06-18T11:15:10.602Z</time>
      </trkpt>
      <trkpt lat="48.40878" lon="2.63791">
        <ele>177.09173</ele>
        <time>2022-06-18T11:15:11.869Z</time>
      </trkpt>
      <trkpt lat="48.40881" lon="2.63772">
        <ele>176.836847</ele>
        <time>2022-06-18T11:15:13.523Z</time>
      </trkpt>
      <trkpt lat="48.40882" lon="2.63757">
        <ele>176.63762</ele>
        <time>2022-06-18T11:15:14.797Z</time>
      </trkpt>
      <trkpt lat="48.40884" lon="2.63743">
        <ele>176.44293</ele>
        <time>2022-06-18T11:15:15.998Z</time>
      </trkpt>
      <trkpt lat="48.40885" lon="2.63722">
        <ele>176.165207</ele>
        <time>2022-06-18T11:15:17.777Z</time>
      </trkpt>
      <trkpt lat="48.40886" lon="2.63709">
        <ele>175.984931</ele>
        <time>2022-06-18T11:15:18.872Z</time>
      </trkpt>
      <trkpt lat="48.40889" lon="2.63695">
        <ele>175.782179</ele>
        <time>2022-06-18T11:15:20.102Z</time>
      </trkpt>
      <trkpt lat="48.40893" lon="2.63676">
        <ele>175.516044</ele>
        <time>2022-06-18T11:15:21.781Z</time>
      </trkpt>
      <trkpt lat="48.40897" lon="2.63656">
        <ele>175.246754</ele>
        <time>2022-06-18T11:15:23.556Z</time>
      </trkpt>
      <trkpt lat="48.40901" lon="2.63637">
        <ele>174.974835</ele>
        <time>2022-06-18T11:15:25.227Z</time>
      </trkpt>
      <trkpt lat="48.40903" lon="2.63624">
        <ele>174.794418</ele>
        <time>2022-06-18T11:15:26.348Z</time>
      </trkpt>
      <trkpt lat="48.40905" lon="2.63606">
        <ele>174.604444</ele>
        <time>2022-06-18T11:15:27.970Z</time>
      </trkpt>
      <trkpt lat="48.40909" lon="2.63587">
        <ele>174.776158</ele>
        <time>2022-06-18T11:15:30.704Z</time>
      </trkpt>
      <trkpt lat="48.40914" lon="2.6357">
        <ele>174.943306</ele>
        <time>2022-06-18T11:15:33.269Z</time>
      </trkpt>
      <trkpt lat="48.40917" lon="2.63553">
        <ele>175.097074</ele>
        <time>2022-06-18T11:15:35.687Z</time>
      </trkpt>
      <trkpt lat="48.4092" lon="2.63538">
        <ele>175.240769</ele>
        <time>2022-06-18T11:15:37.855Z</time>
      </trkpt>
      <trkpt lat="48.40923" lon="2.63521">
        <ele>175.39835</ele>
        <time>2022-06-18T11:15:40.281Z</time>
      </trkpt>
      <trkpt lat="48.40926" lon="2.63505">
        <ele>175.545161</ele>
        <time>2022-06-18T11:15:42.569Z</time>
      </trkpt>
      <trkpt lat="48.40927" lon="2.63491">
        <ele>175.674273</ele>
        <time>2022-06-18T11:15:44.517Z</time>
      </trkpt>
      <trkpt lat="48.40928" lon="2.63476">
        <ele>175.80343</ele>
        <time>2022-06-18T11:15:46.584Z</time>
      </trkpt>
      <trkpt lat="48.40931" lon="2.63462">
        <ele>175.941402</ele>
        <time>2022-06-18T11:15:48.626Z</time>
      </trkpt>
      <trkpt lat="48.40936" lon="2.6345">
        <ele>176.068862</ele>
        <time>2022-06-18T11:15:50.581Z</time>
      </trkpt>
      <trkpt lat="48.40943" lon="2.63439">
        <ele>176.199763</ele>
        <time>2022-06-18T11:15:52.670Z</time>
      </trkpt>
      <trkpt lat="48.40948" lon="2.63427">
        <ele>176.331684</ele>
        <time>2022-06-18T11:15:54.635Z</time>
      </trkpt>
      <trkpt lat="48.40955" lon="2.63416">
        <ele>176.465925</ele>
        <time>2022-06-18T11:15:56.732Z</time>
      </trkpt>
      <trkpt lat="48.40964" lon="2.63408">
        <ele>176.608438</ele>
        <time>2022-06-18T11:15:58.906Z</time>
      </trkpt>
      <trkpt lat="48.40965" lon="2.63395">
        <ele>176.731548</ele>
        <time>2022-06-18T11:16:00.724Z</time>
      </trkpt>
      <trkpt lat="48.40964" lon="2.6338">
        <ele>176.868474</ele>
        <time>2022-06-18T11:16:02.807Z</time>
      </trkpt>
      <trkpt lat="48.40965" lon="2.63366">
        <ele>176.993888</ele>
        <time>2022-06-18T11:16:04.747Z</time>
      </trkpt>
      <trkpt lat="48.40969" lon="2.63354">
        <ele>176.959027</ele>
        <time>2022-06-18T11:16:06.278Z</time>
      </trkpt>
      <trkpt lat="48.4097" lon="2.63338">
        <ele>176.900894</ele>
        <time>2022-06-18T11:16:08.071Z</time>
      </trkpt>
      <trkpt lat="48.40963" lon="2.63326">
        <ele>176.839624</ele>
        <time>2022-06-18T11:16:09.845Z</time>
      </trkpt>
      <trkpt lat="48.4096" lon="2.63312">
        <ele>176.784299</ele>
        <time>2022-06-18T11:16:11.481Z</time>
      </trkpt>
      <trkpt lat="48.40956" lon="2.63292">
        <ele>176.705896</ele>
        <time>2022-06-18T11:16:13.804Z</time>
      </trkpt>
      <trkpt lat="48.40961" lon="2.63276">
        <ele>176.638249</ele>
        <time>2022-06-18T11:16:15.768Z</time>
      </trkpt>
      <trkpt lat="48.40966" lon="2.63258">
        <ele>176.566505</ele>
        <time>2022-06-18T11:16:17.942Z</time>
      </trkpt>
      <trkpt lat="48.40971" lon="2.6324">
        <ele>176.490876</ele>
        <time>2022-06-18T11:16:20.106Z</time>
      </trkpt>
      <trkpt lat="48.40974" lon="2.63227">
        <ele>176.43968</ele>
        <time>2022-06-18T11:16:21.638Z</time>
      </trkpt>
      <trkpt lat="48.40977" lon="2.63214">
        <ele>176.388131</ele>
        <time>2022-06-18T11:16:23.169Z</time>
      </trkpt>
      <trkpt lat="48.4098" lon="2.63201">
        <ele>176.336075</ele>
        <time>2022-06-18T11:16:24.699Z</time>
      </trkpt>
      <trkpt lat="48.40983" lon="2.63182">
        <ele>176.26373</ele>
        <time>2022-06-18T11:16:26.874Z</time>
      </trkpt>
      <trkpt lat="48.40989" lon="2.63167">
        <ele>176.197552</ele>
        <time>2022-06-18T11:16:28.821Z</time>
      </trkpt>
      <trkpt lat="48.40993" lon="2.63152">
        <ele>176.135628</ele>
        <time>2022-06-18T11:16:30.616Z</time>
      </trkpt>
      <trkpt lat="48.40995" lon="2.63136">
        <ele>176.075154</ele>
        <time>2022-06-18T11:16:32.428Z</time>
      </trkpt>
      <trkpt lat="48.40999" lon="2.63118">
        <ele>176.005217</ele>
        <time>2022-06-18T11:16:34.542Z</time>
      </trkpt>
      <trkpt lat="48.40997" lon="2.63105">
        <ele>175.688272</ele>
        <time>2022-06-18T11:16:35.492Z</time>
      </trkpt>
      <trkpt lat="48.41003" lon="2.63094">
        <ele>175.205395</ele>
        <time>2022-06-18T11:16:36.373Z</time>
      </trkpt>
      <trkpt lat="48.41012" lon="2.63086">
        <ele>174.660868</ele>
        <time>2022-06-18T11:16:37.337Z</time>
      </trkpt>
      <trkpt lat="48.41017" lon="2.6307">
        <ele>174.041328</ele>
        <time>2022-06-18T11:16:38.415Z</time>
      </trkpt>
      <trkpt lat="48.41019" lon="2.63056">
        <ele>173.539467</ele>
        <time>2022-06-18T11:16:39.288Z</time>
      </trkpt>
      <trkpt lat="48.41014" lon="2.63044">
        <ele>173.025628</ele>
        <time>2022-06-18T11:16:40.138Z</time>
      </trkpt>
      <trkpt lat="48.41013" lon="2.6303">
        <ele>172.529859</ele>
        <time>2022-06-18T11:16:40.994Z</time>
      </trkpt>
      <trkpt lat="48.41009" lon="2.63013">
        <ele>171.911395</ele>
        <time>2022-06-18T11:16:42.104Z</time>
      </trkpt>
      <trkpt lat="48.41006" lon="2.63">
        <ele>171.434056</ele>
        <time>2022-06-18T11:16:42.946Z</time>
      </trkpt>
      <trkpt lat="48.41004" lon="2.62984">
        <ele>170.867115</ele>
        <time>2022-06-18T11:16:43.941Z</time>
      </trkpt>
      <trkpt lat="48.41001" lon="2.62966">
        <ele>170.219434</ele>
        <time>2022-06-18T11:16:45.074Z</time>
      </trkpt>
      <trkpt lat="48.40995" lon="2.62951">
        <ele>169.591792</ele>
        <time>2022-06-18T11:16:46.131Z</time>
      </trkpt>
      <trkpt lat="48.40991" lon="2.62936">
        <ele>169.018218</ele>
        <time>2022-06-18T11:16:47.110Z</time>
      </trkpt>
      <trkpt lat="48.40987" lon="2.62919">
        <ele>168.404274</ele>
        <time>2022-06-18T11:16:48.223Z</time>
      </trkpt>
      <trkpt lat="48.40983" lon="2.62903">
        <ele>167.797268</ele>
        <time>2022-06-18T11:16:49.259Z</time>
      </trkpt>
      <trkpt lat="48.40979" lon="2.62886">
        <ele>167.16647</ele>
        <time>2022-06-18T11:16:50.359Z</time>
      </trkpt>
      <trkpt lat="48.40977" lon="2.62871">
        <ele>166.607752</ele>
        <time>2022-06-18T11:16:51.274Z</time>
      </trkpt>
      <trkpt lat="48.40979" lon="2.62857">
        <ele>166.493783</ele>
        <time>2022-06-18T11:16:52.608Z</time>
      </trkpt>
      <trkpt lat="48.40977" lon="2.62843">
        <ele>166.496871</ele>
        <time>2022-06-18T11:16:54.344Z</time>
      </trkpt>
      <trkpt lat="48.40975" lon="2.62829">
        <ele>166.5001</ele>
        <time>2022-06-18T11:16:56.080Z</time>
      </trkpt>
      <trkpt lat="48.40975" lon="2.62812">
        <ele>166.503673</ele>
        <time>2022-06-18T11:16:58.140Z</time>
      </trkpt>
      <trkpt lat="48.40974" lon="2.62797">
        <ele>166.506881</ele>
        <time>2022-06-18T11:16:59.968Z</time>
      </trkpt>
      <trkpt lat="48.40969" lon="2.62783">
        <ele>166.510434</ele>
        <time>2022-06-18T11:17:01.895Z</time>
      </trkpt>
      <trkpt lat="48.40967" lon="2.62768">
        <ele>166.513818</ele>
        <time>2022-06-18T11:17:03.750Z</time>
      </trkpt>
      <trkpt lat="48.40966" lon="2.62752">
        <ele>166.517286</ele>
        <time>2022-06-18T11:17:05.698Z</time>
      </trkpt>
      <trkpt lat="48.40964" lon="2.62737">
        <ele>166.520523</ele>
        <time>2022-06-18T11:17:07.553Z</time>
      </trkpt>
      <trkpt lat="48.4096" lon="2.62719">
        <ele>166.524686</ele>
        <time>2022-06-18T11:17:09.854Z</time>
      </trkpt>
      <trkpt lat="48.40957" lon="2.627">
        <ele>166.528746</ele>
        <time>2022-06-18T11:17:12.221Z</time>
      </trkpt>
      <trkpt lat="48.40957" lon="2.62683">
        <ele>166.532605</ele>
        <time>2022-06-18T11:17:14.282Z</time>
      </trkpt>
      <trkpt lat="48.40958" lon="2.62665">
        <ele>166.536533</ele>
        <time>2022-06-18T11:17:16.472Z</time>
      </trkpt>
      <trkpt lat="48.40959" lon="2.62648">
        <ele>166.540067</ele>
        <time>2022-06-18T11:17:18.540Z</time>
      </trkpt>
      <trkpt lat="48.4096" lon="2.62632">
        <ele>166.543689</ele>
        <time>2022-06-18T11:17:20.489Z</time>
      </trkpt>
      <trkpt lat="48.40962" lon="2.62616">
        <ele>166.547213</ele>
        <time>2022-06-18T11:17:22.462Z</time>
      </trkpt>
      <trkpt lat="48.40965" lon="2.62602">
        <ele>166.496761</ele>
        <time>2022-06-18T11:17:24.110Z</time>
      </trkpt>
      <trkpt lat="48.40967" lon="2.62587">
        <ele>165.609925</ele>
        <time>2022-06-18T11:17:25.021Z</time>
      </trkpt>
      <trkpt lat="48.40969" lon="2.6257">
        <ele>164.544054</ele>
        <time>2022-06-18T11:17:26.048Z</time>
      </trkpt>
      <trkpt lat="48.40972" lon="2.62554">
        <ele>163.630222</ele>
        <time>2022-06-18T11:17:27.038Z</time>
      </trkpt>
      <trkpt lat="48.40976" lon="2.62538">
        <ele>162.608981</ele>
        <time>2022-06-18T11:17:28.056Z</time>
      </trkpt>
      <trkpt lat="48.4098" lon="2.62525">
        <ele>161.796098</ele>
        <time>2022-06-18T11:17:28.908Z</time>
      </trkpt>
      <trkpt lat="48.40984" lon="2.6251">
        <ele>160.790133</ele>
        <time>2022-06-18T11:17:29.871Z</time>
      </trkpt>
      <trkpt lat="48.4099" lon="2.62496">
        <ele>159.855595</ele>
        <time>2022-06-18T11:17:30.862Z</time>
      </trkpt>
      <trkpt lat="48.40996" lon="2.62485">
        <ele>159.003834</ele>
        <time>2022-06-18T11:17:31.710Z</time>
      </trkpt>
      <trkpt lat="48.41004" lon="2.62473">
        <ele>158.009309</ele>
        <time>2022-06-18T11:17:32.722Z</time>
      </trkpt>
      <trkpt lat="48.41011" lon="2.62465">
        <ele>157.160656</ele>
        <time>2022-06-18T11:17:33.510Z</time>
      </trkpt>
      <trkpt lat="48.41017" lon="2.62452">
        <ele>156.245771</ele>
        <time>2022-06-18T11:17:34.452Z</time>
      </trkpt>
      <trkpt lat="48.41023" lon="2.62439">
        <ele>155.374944</ele>
        <time>2022-06-18T11:17:35.395Z</time>
      </trkpt>
      <trkpt lat="48.41028" lon="2.62427">
        <ele>154.484449</ele>
        <time>2022-06-18T11:17:36.238Z</time>
      </trkpt>
      <trkpt lat="48.41034" lon="2.62416">
        <ele>153.676787</ele>
        <time>2022-06-18T11:17:37.086Z</time>
      </trkpt>
      <trkpt lat="48.41044" lon="2.62387">
        <ele>151.768288</ele>
        <time>2022-06-18T11:17:39.031Z</time>
      </trkpt>
      <trkpt lat="48.41041" lon="2.62373">
        <ele>150.91925</ele>
        <time>2022-06-18T11:17:39.906Z</time>
      </trkpt>
      <trkpt lat="48.41046" lon="2.62361">
        <ele>150.404738</ele>
        <time>2022-06-18T11:17:40.756Z</time>
      </trkpt>
      <trkpt lat="48.41049" lon="2.62348">
        <ele>150.047489</ele>
        <time>2022-06-18T11:17:41.704Z</time>
      </trkpt>
      <trkpt lat="48.41051" lon="2.62332">
        <ele>149.622271</ele>
        <time>2022-06-18T11:17:42.824Z</time>
      </trkpt>
      <trkpt lat="48.41052" lon="2.62316">
        <ele>149.219017</ele>
        <time>2022-06-18T11:17:43.946Z</time>
      </trkpt>
      <trkpt lat="48.41053" lon="2.623">
        <ele>148.803035</ele>
        <time>2022-06-18T11:17:45.055Z</time>
      </trkpt>
      <trkpt lat="48.41054" lon="2.62285">
        <ele>148.403323</ele>
        <time>2022-06-18T11:17:46.085Z</time>
      </trkpt>
      <trkpt lat="48.41054" lon="2.62269">
        <ele>147.992984</ele>
        <time>2022-06-18T11:17:47.193Z</time>
      </trkpt>
      <trkpt lat="48.41053" lon="2.62252">
        <ele>147.566737</ele>
        <time>2022-06-18T11:17:48.386Z</time>
      </trkpt>
      <trkpt lat="48.41053" lon="2.62237">
        <ele>147.162959</ele>
        <time>2022-06-18T11:17:49.406Z</time>
      </trkpt>
      <trkpt lat="48.41051" lon="2.6222">
        <ele>146.732056</ele>
        <time>2022-06-18T11:17:50.613Z</time>
      </trkpt>
      <trkpt lat="48.41052" lon="2.62204">
        <ele>146.307958</ele>
        <time>2022-06-18T11:17:51.714Z</time>
      </trkpt>
      <trkpt lat="48.4105" lon="2.62189">
        <ele>145.924742</ele>
        <time>2022-06-18T11:17:52.783Z</time>
      </trkpt>
      <trkpt lat="48.4105" lon="2.62176">
        <ele>145.573582</ele>
        <time>2022-06-18T11:17:53.665Z</time>
      </trkpt>
      <trkpt lat="48.41051" lon="2.62159">
        <ele>145.138297</ele>
        <time>2022-06-18T11:17:54.849Z</time>
      </trkpt>
      <trkpt lat="48.41053" lon="2.62142">
        <ele>144.70743</ele>
        <time>2022-06-18T11:17:56.057Z</time>
      </trkpt>
      <trkpt lat="48.41054" lon="2.62126">
        <ele>144.275343</ele>
        <time>2022-06-18T11:17:57.150Z</time>
      </trkpt>
      <trkpt lat="48.41056" lon="2.6211">
        <ele>143.874217</ele>
        <time>2022-06-18T11:17:58.294Z</time>
      </trkpt>
      <trkpt lat="48.41057" lon="2.62097">
        <ele>143.4561</ele>
        <time>2022-06-18T11:17:59.124Z</time>
      </trkpt>
      <trkpt lat="48.41057" lon="2.62083">
        <ele>142.88423</ele>
        <time>2022-06-18T11:17:59.918Z</time>
      </trkpt>
      <trkpt lat="48.41059" lon="2.62065">
        <ele>142.175248</ele>
        <time>2022-06-18T11:18:00.979Z</time>
      </trkpt>
      <trkpt lat="48.41062" lon="2.62048">
        <ele>141.46572</ele>
        <time>2022-06-18T11:18:01.983Z</time>
      </trkpt>
      <trkpt lat="48.41064" lon="2.62031">
        <ele>140.788285</ele>
        <time>2022-06-18T11:18:02.982Z</time>
      </trkpt>
      <trkpt lat="48.41066" lon="2.62017">
        <ele>140.218323</ele>
        <time>2022-06-18T11:18:03.804Z</time>
      </trkpt>
      <trkpt lat="48.41067" lon="2.62003">
        <ele>139.634574</ele>
        <time>2022-06-18T11:18:04.597Z</time>
      </trkpt>
      <trkpt lat="48.41069" lon="2.61986">
        <ele>138.946288</ele>
        <time>2022-06-18T11:18:05.588Z</time>
      </trkpt>
      <trkpt lat="48.41071" lon="2.61971">
        <ele>138.33394</ele>
        <time>2022-06-18T11:18:06.465Z</time>
      </trkpt>
      <trkpt lat="48.41072" lon="2.61956">
        <ele>137.729474</ele>
        <time>2022-06-18T11:18:07.328Z</time>
      </trkpt>
      <trkpt lat="48.41076" lon="2.61938">
        <ele>137.000779</ele>
        <time>2022-06-18T11:18:08.437Z</time>
      </trkpt>
      <trkpt lat="48.41079" lon="2.61924">
        <ele>136.39147</ele>
        <time>2022-06-18T11:18:09.266Z</time>
      </trkpt>
      <trkpt lat="48.41081" lon="2.61909">
        <ele>135.777277</ele>
        <time>2022-06-18T11:18:10.141Z</time>
      </trkpt>
      <trkpt lat="48.41082" lon="2.61894">
        <ele>135.178511</ele>
        <time>2022-06-18T11:18:11.008Z</time>
      </trkpt>
      <trkpt lat="48.41085" lon="2.61879">
        <ele>134.577144</ele>
        <time>2022-06-18T11:18:11.924Z</time>
      </trkpt>
      <trkpt lat="48.41087" lon="2.61863">
        <ele>133.906967</ele>
        <time>2022-06-18T11:18:12.844Z</time>
      </trkpt>
      <trkpt lat="48.41089" lon="2.61846">
        <ele>133.230171</ele>
        <time>2022-06-18T11:18:13.843Z</time>
      </trkpt>
      <trkpt lat="48.41092" lon="2.61829">
        <ele>132.550142</ele>
        <time>2022-06-18T11:18:14.868Z</time>
      </trkpt>
      <trkpt lat="48.41097" lon="2.61812">
        <ele>131.931108</ele>
        <time>2022-06-18T11:18:16.026Z</time>
      </trkpt>
      <trkpt lat="48.411" lon="2.61797">
        <ele>131.362076</ele>
        <time>2022-06-18T11:18:16.966Z</time>
      </trkpt>
      <trkpt lat="48.41103" lon="2.61781">
        <ele>130.791672</ele>
        <time>2022-06-18T11:18:17.988Z</time>
      </trkpt>
      <trkpt lat="48.41105" lon="2.61766">
        <ele>130.25857</ele>
        <time>2022-06-18T11:18:18.923Z</time>
      </trkpt>
      <trkpt lat="48.41107" lon="2.61752">
        <ele>129.758773</ele>
        <time>2022-06-18T11:18:19.797Z</time>
      </trkpt>
      <trkpt lat="48.41111" lon="2.61739">
        <ele>129.266339</ele>
        <time>2022-06-18T11:18:20.678Z</time>
      </trkpt>
      <trkpt lat="48.41112" lon="2.61723">
        <ele>128.689705</ele>
        <time>2022-06-18T11:18:21.647Z</time>
      </trkpt>
      <trkpt lat="48.41113" lon="2.61708">
        <ele>128.169947</ele>
        <time>2022-06-18T11:18:22.572Z</time>
      </trkpt>
      <trkpt lat="48.41116" lon="2.61694">
        <ele>127.668684</ele>
        <time>2022-06-18T11:18:23.480Z</time>
      </trkpt>
      <trkpt lat="48.4112" lon="2.6168">
        <ele>127.147729</ele>
        <time>2022-06-18T11:18:24.419Z</time>
      </trkpt>
      <trkpt lat="48.41123" lon="2.61665">
        <ele>126.606822</ele>
        <time>2022-06-18T11:18:25.380Z</time>
      </trkpt>
      <trkpt lat="48.41125" lon="2.61649">
        <ele>126.042559</ele>
        <time>2022-06-18T11:18:26.377Z</time>
      </trkpt>
      <trkpt lat="48.41128" lon="2.61633">
        <ele>125.454942</ele>
        <time>2022-06-18T11:18:27.386Z</time>
      </trkpt>
      <trkpt lat="48.41131" lon="2.61615">
        <ele>124.831959</ele>
        <time>2022-06-18T11:18:28.538Z</time>
      </trkpt>
      <trkpt lat="48.41133" lon="2.616">
        <ele>124.281983</ele>
        <time>2022-06-18T11:18:29.460Z</time>
      </trkpt>
      <trkpt lat="48.41138" lon="2.61583">
        <ele>123.636984</ele>
        <time>2022-06-18T11:18:30.598Z</time>
      </trkpt>
      <trkpt lat="48.41141" lon="2.6157">
        <ele>123.440097</ele>
        <time>2022-06-18T11:18:31.738Z</time>
      </trkpt>
      <trkpt lat="48.41144" lon="2.61557">
        <ele>123.521912</ele>
        <time>2022-06-18T11:18:33.551Z</time>
      </trkpt>
      <trkpt lat="48.41149" lon="2.6154">
        <ele>123.629456</ele>
        <time>2022-06-18T11:18:35.993Z</time>
      </trkpt>
      <trkpt lat="48.41151" lon="2.61525">
        <ele>123.716104</ele>
        <time>2022-06-18T11:18:37.998Z</time>
      </trkpt>
      <trkpt lat="48.41154" lon="2.61508">
        <ele>123.820167</ele>
        <time>2022-06-18T11:18:40.313Z</time>
      </trkpt>
      <trkpt lat="48.41155" lon="2.61489">
        <ele>123.932755</ele>
        <time>2022-06-18T11:18:42.821Z</time>
      </trkpt>
      <trkpt lat="48.41152" lon="2.61472">
        <ele>124.034686</ele>
        <time>2022-06-18T11:18:45.132Z</time>
      </trkpt>
      <trkpt lat="48.41152" lon="2.61458">
        <ele>124.118707</ele>
        <time>2022-06-18T11:18:46.977Z</time>
      </trkpt>
      <trkpt lat="48.4115" lon="2.61438">
        <ele>124.233971</ele>
        <time>2022-06-18T11:18:49.630Z</time>
      </trkpt>
      <trkpt lat="48.41148" lon="2.61422">
        <ele>124.331912</ele>
        <time>2022-06-18T11:18:51.776Z</time>
      </trkpt>
      <trkpt lat="48.41147" lon="2.61408">
        <ele>124.417164</ele>
        <time>2022-06-18T11:18:53.633Z</time>
      </trkpt>
      <trkpt lat="48.41146" lon="2.61392">
        <ele>124.507033</ele>
        <time>2022-06-18T11:18:55.737Z</time>
      </trkpt>
      <trkpt lat="48.41145" lon="2.61377">
        <ele>124.59975</ele>
        <time>2022-06-18T11:18:57.728Z</time>
      </trkpt>
      <trkpt lat="48.41142" lon="2.61361">
        <ele>124.692491</ele>
        <time>2022-06-18T11:18:59.905Z</time>
      </trkpt>
      <trkpt lat="48.41142" lon="2.61347">
        <ele>124.775404</ele>
        <time>2022-06-18T11:19:01.748Z</time>
      </trkpt>
      <trkpt lat="48.41141" lon="2.61334">
        <ele>124.855058</ele>
        <time>2022-06-18T11:19:03.474Z</time>
      </trkpt>
      <trkpt lat="48.41137" lon="2.61318">
        <ele>124.952461</ele>
        <time>2022-06-18T11:19:05.717Z</time>
      </trkpt>
      <trkpt lat="48.41137" lon="2.61299">
        <ele>125.078748</ele>
        <time>2022-06-18T11:19:08.245Z</time>
      </trkpt>
      <trkpt lat="48.4114" lon="2.61279">
        <ele>125.216197</ele>
        <time>2022-06-18T11:19:10.976Z</time>
      </trkpt>
      <trkpt lat="48.41135" lon="2.61264">
        <ele>125.328612</ele>
        <time>2022-06-18T11:19:13.211Z</time>
      </trkpt>
      <trkpt lat="48.41135" lon="2.61245">
        <ele>125.466096</ele>
        <time>2022-06-18T11:19:15.762Z</time>
      </trkpt>
      <trkpt lat="48.41133" lon="2.61231">
        <ele>125.564352</ele>
        <time>2022-06-18T11:19:17.674Z</time>
      </trkpt>
      <trkpt lat="48.41135" lon="2.61214">
        <ele>125.686231</ele>
        <time>2022-06-18T11:19:19.986Z</time>
      </trkpt>
      <trkpt lat="48.41134" lon="2.61196">
        <ele>125.806582</ele>
        <time>2022-06-18T11:19:22.390Z</time>
      </trkpt>
      <trkpt lat="48.41132" lon="2.61183">
        <ele>125.901205</ele>
        <time>2022-06-18T11:19:24.177Z</time>
      </trkpt>
      <trkpt lat="48.4113" lon="2.61168">
        <ele>126.009099</ele>
        <time>2022-06-18T11:19:26.226Z</time>
      </trkpt>
      <trkpt lat="48.41128" lon="2.61153">
        <ele>126.112649</ele>
        <time>2022-06-18T11:19:28.265Z</time>
      </trkpt>
      <trkpt lat="48.41127" lon="2.61134">
        <ele>126.244222</ele>
        <time>2022-06-18T11:19:30.811Z</time>
      </trkpt>
      <trkpt lat="48.41126" lon="2.61113">
        <ele>126.391679</ele>
        <time>2022-06-18T11:19:33.628Z</time>
      </trkpt>
      <trkpt lat="48.41125" lon="2.61098">
        <ele>126.492587</ele>
        <time>2022-06-18T11:19:35.636Z</time>
      </trkpt>
      <trkpt lat="48.41124" lon="2.61083">
        <ele>126.596506</ele>
        <time>2022-06-18T11:19:37.649Z</time>
      </trkpt>
      <trkpt lat="48.4112" lon="2.61066">
        <ele>126.724044</ele>
        <time>2022-06-18T11:19:40.065Z</time>
      </trkpt>
      <trkpt lat="48.41119" lon="2.61045">
        <ele>126.874041</ele>
        <time>2022-06-18T11:19:42.887Z</time>
      </trkpt>
      <trkpt lat="48.41117" lon="2.61032">
        <ele>127.035011</ele>
        <time>2022-06-18T11:19:44.821Z</time>
      </trkpt>
      <trkpt lat="48.41115" lon="2.61017">
        <ele>127.205285</ele>
        <time>2022-06-18T11:19:47.006Z</time>
      </trkpt>
      <trkpt lat="48.41114" lon="2.61002">
        <ele>127.387603</ele>
        <time>2022-06-18T11:19:49.193Z</time>
      </trkpt>
      <trkpt lat="48.41114" lon="2.60987">
        <ele>127.565567</ele>
        <time>2022-06-18T11:19:51.361Z</time>
      </trkpt>
      <trkpt lat="48.41113" lon="2.60973">
        <ele>127.730617</ele>
        <time>2022-06-18T11:19:53.391Z</time>
      </trkpt>
      <trkpt lat="48.41112" lon="2.60957">
        <ele>127.921374</ele>
        <time>2022-06-18T11:19:55.714Z</time>
      </trkpt>
      <trkpt lat="48.41112" lon="2.60942">
        <ele>128.100666</ele>
        <time>2022-06-18T11:19:57.884Z</time>
      </trkpt>
      <trkpt lat="48.41108" lon="2.60923">
        <ele>128.337598</ele>
        <time>2022-06-18T11:20:00.766Z</time>
      </trkpt>
      <trkpt lat="48.41105" lon="2.60909">
        <ele>128.517682</ele>
        <time>2022-06-18T11:20:02.906Z</time>
      </trkpt>
      <trkpt lat="48.411" lon="2.60893">
        <ele>128.723744</ele>
        <time>2022-06-18T11:20:05.452Z</time>
      </trkpt>
      <trkpt lat="48.41095" lon="2.60881">
        <ele>128.895143</ele>
        <time>2022-06-18T11:20:07.508Z</time>
      </trkpt>
      <trkpt lat="48.41091" lon="2.60867">
        <ele>129.068301</ele>
        <time>2022-06-18T11:20:09.692Z</time>
      </trkpt>
      <trkpt lat="48.41083" lon="2.60854">
        <ele>129.284435</ele>
        <time>2022-06-18T11:20:12.268Z</time>
      </trkpt>
      <trkpt lat="48.41076" lon="2.60839">
        <ele>129.501881</ele>
        <time>2022-06-18T11:20:14.918Z</time>
      </trkpt>
      <trkpt lat="48.41066" lon="2.6083">
        <ele>129.717348</ele>
        <time>2022-06-18T11:20:17.472Z</time>
      </trkpt>
      <trkpt lat="48.41056" lon="2.60818">
        <ele>129.946422</ele>
        <time>2022-06-18T11:20:20.256Z</time>
      </trkpt>
      <trkpt lat="48.41047" lon="2.60809">
        <ele>130.120161</ele>
        <time>2022-06-18T11:20:22.563Z</time>
      </trkpt>
      <trkpt lat="48.41037" lon="2.60808">
        <ele>130.287865</ele>
        <time>2022-06-18T11:20:24.718Z</time>
      </trkpt>
      <trkpt lat="48.41025" lon="2.60807">
        <ele>130.477572</ele>
        <time>2022-06-18T11:20:27.276Z</time>
      </trkpt>
      <trkpt lat="48.41014" lon="2.60804">
        <ele>130.654202</ele>
        <time>2022-06-18T11:20:29.656Z</time>
      </trkpt>
      <trkpt lat="48.41006" lon="2.60796">
        <ele>130.797183</ele>
        <time>2022-06-18T11:20:31.680Z</time>
      </trkpt>
      <trkpt lat="48.41003" lon="2.60779">
        <ele>130.98274</ele>
        <time>2022-06-18T11:20:34.169Z</time>
      </trkpt>
      <trkpt lat="48.41005" lon="2.60763">
        <ele>131.154197</ele>
        <time>2022-06-18T11:20:36.471Z</time>
      </trkpt>
      <trkpt lat="48.41006" lon="2.60749">
        <ele>131.306574</ele>
        <time>2022-06-18T11:20:38.471Z</time>
      </trkpt>
      <trkpt lat="48.41008" lon="2.60733">
        <ele>131.48077</ele>
        <time>2022-06-18T11:20:40.780Z</time>
      </trkpt>
      <trkpt lat="48.4101" lon="2.60719">
        <ele>131.637099</ele>
        <time>2022-06-18T11:20:42.818Z</time>
      </trkpt>
      <trkpt lat="48.41011" lon="2.60703">
        <ele>131.801337</ele>
        <time>2022-06-18T11:20:45.079Z</time>
      </trkpt>
      <trkpt lat="48.41013" lon="2.60686">
        <ele>131.987264</ele>
        <time>2022-06-18T11:20:47.530Z</time>
      </trkpt>
      <trkpt lat="48.41015" lon="2.60672">
        <ele>132.141968</ele>
        <time>2022-06-18T11:20:49.564Z</time>
      </trkpt>
      <trkpt lat="48.41017" lon="2.60653">
        <ele>132.335448</ele>
        <time>2022-06-18T11:20:52.263Z</time>
      </trkpt>
      <trkpt lat="48.41019" lon="2.60634">
        <ele>132.537542</ele>
        <time>2022-06-18T11:20:54.983Z</time>
      </trkpt>
      <trkpt lat="48.41022" lon="2.60617">
        <ele>132.734726</ele>
        <time>2022-06-18T11:20:57.498Z</time>
      </trkpt>
      <trkpt lat="48.41025" lon="2.60597">
        <ele>132.918466</ele>
        <time>2022-06-18T11:21:00.325Z</time>
      </trkpt>
      <trkpt lat="48.41026" lon="2.60582">
        <ele>132.460824</ele>
        <time>2022-06-18T11:21:01.303Z</time>
      </trkpt>
      <trkpt lat="48.41027" lon="2.60565">
        <ele>131.926243</ele>
        <time>2022-06-18T11:21:02.394Z</time>
      </trkpt>
      <trkpt lat="48.41028" lon="2.60551">
        <ele>131.515625</ele>
        <time>2022-06-18T11:21:03.322Z</time>
      </trkpt>
      <trkpt lat="48.4103" lon="2.60536">
        <ele>131.027304</ele>
        <time>2022-06-18T11:21:04.293Z</time>
      </trkpt>
      <trkpt lat="48.41031" lon="2.60517">
        <ele>130.46244</ele>
        <time>2022-06-18T11:21:05.540Z</time>
      </trkpt>
      <trkpt lat="48.41036" lon="2.60504">
        <ele>130.010045</ele>
        <time>2022-06-18T11:21:06.517Z</time>
      </trkpt>
      <trkpt lat="48.41037" lon="2.60486">
        <ele>129.465938</ele>
        <time>2022-06-18T11:21:07.692Z</time>
      </trkpt>
      <trkpt lat="48.41039" lon="2.60473">
        <ele>129.055178</ele>
        <time>2022-06-18T11:21:08.552Z</time>
      </trkpt>
      <trkpt lat="48.41041" lon="2.60458">
        <ele>128.579638</ele>
        <time>2022-06-18T11:21:09.534Z</time>
      </trkpt>
      <trkpt lat="48.41042" lon="2.60439">
        <ele>128.009453</ele>
        <time>2022-06-18T11:21:10.776Z</time>
      </trkpt>
      <trkpt lat="48.41044" lon="2.60423">
        <ele>127.524926</ele>
        <time>2022-06-18T11:21:11.840Z</time>
      </trkpt>
      <trkpt lat="48.41045" lon="2.60409">
        <ele>127.088093</ele>
        <time>2022-06-18T11:21:12.744Z</time>
      </trkpt>
      <trkpt lat="48.41047" lon="2.6039">
        <ele>126.504083</ele>
        <time>2022-06-18T11:21:13.991Z</time>
      </trkpt>
      <trkpt lat="48.41049" lon="2.60376">
        <ele>126.065275</ele>
        <time>2022-06-18T11:21:14.916Z</time>
      </trkpt>
      <trkpt lat="48.41051" lon="2.60362">
        <ele>125.632452</ele>
        <time>2022-06-18T11:21:15.845Z</time>
      </trkpt>
      <trkpt lat="48.41053" lon="2.60344">
        <ele>125.060346</ele>
        <time>2022-06-18T11:21:17.013Z</time>
      </trkpt>
      <trkpt lat="48.41056" lon="2.60329">
        <ele>124.651986</ele>
        <time>2022-06-18T11:21:18.091Z</time>
      </trkpt>
      <trkpt lat="48.41056" lon="2.6031">
        <ele>124.361851</ele>
        <time>2022-06-18T11:21:19.639Z</time>
      </trkpt>
      <trkpt lat="48.41058" lon="2.60284">
        <ele>123.982774</ele>
        <time>2022-06-18T11:21:21.801Z</time>
      </trkpt>
      <trkpt lat="48.41061" lon="2.60271">
        <ele>123.771303</ele>
        <time>2022-06-18T11:21:22.921Z</time>
      </trkpt>
      <trkpt lat="48.4106" lon="2.60253">
        <ele>123.506395</ele>
        <time>2022-06-18T11:21:24.409Z</time>
      </trkpt>
      <trkpt lat="48.41063" lon="2.60239">
        <ele>123.299917</ele>
        <time>2022-06-18T11:21:25.633Z</time>
      </trkpt>
      <trkpt lat="48.41063" lon="2.60223">
        <ele>123.06001</ele>
        <time>2022-06-18T11:21:26.943Z</time>
      </trkpt>
      <trkpt lat="48.41064" lon="2.60205">
        <ele>122.789116</ele>
        <time>2022-06-18T11:21:28.422Z</time>
      </trkpt>
      <trkpt lat="48.4107" lon="2.60189">
        <ele>122.514869</ele>
        <time>2022-06-18T11:21:29.929Z</time>
      </trkpt>
      <trkpt lat="48.41071" lon="2.60175">
        <ele>122.309432</ele>
        <time>2022-06-18T11:21:31.090Z</time>
      </trkpt>
      <trkpt lat="48.41074" lon="2.60157">
        <ele>122.035666</ele>
        <time>2022-06-18T11:21:32.616Z</time>
      </trkpt>
      <trkpt lat="48.41076" lon="2.60138">
        <ele>121.75235</ele>
        <time>2022-06-18T11:21:34.198Z</time>
      </trkpt>
      <trkpt lat="48.41078" lon="2.60124">
        <ele>121.549316</ele>
        <time>2022-06-18T11:21:35.388Z</time>
      </trkpt>
      <trkpt lat="48.41079" lon="2.6011">
        <ele>121.336009</ele>
        <time>2022-06-18T11:21:36.537Z</time>
      </trkpt>
      <trkpt lat="48.41081" lon="2.60091">
        <ele>121.05242</ele>
        <time>2022-06-18T11:21:38.119Z</time>
      </trkpt>
      <trkpt lat="48.41083" lon="2.60077">
        <ele>120.831796</ele>
        <time>2022-06-18T11:21:39.284Z</time>
      </trkpt>
      <trkpt lat="48.41086" lon="2.6006">
        <ele>120.567334</ele>
        <time>2022-06-18T11:21:40.723Z</time>
      </trkpt>
      <trkpt lat="48.41089" lon="2.60044">
        <ele>120.286364</ele>
        <time>2022-06-18T11:21:42.041Z</time>
      </trkpt>
      <trkpt lat="48.41091" lon="2.60029">
        <ele>120.026768</ele>
        <time>2022-06-18T11:21:43.253Z</time>
      </trkpt>
      <trkpt lat="48.41092" lon="2.60012">
        <ele>119.747988</ele>
        <time>2022-06-18T11:21:44.619Z</time>
      </trkpt>
      <trkpt lat="48.41095" lon="2.59995">
        <ele>119.449379</ele>
        <time>2022-06-18T11:21:46.012Z</time>
      </trkpt>
      <trkpt lat="48.41097" lon="2.59977">
        <ele>119.15363</ele>
        <time>2022-06-18T11:21:47.476Z</time>
      </trkpt>
      <trkpt lat="48.411" lon="2.59962">
        <ele>118.886829</ele>
        <time>2022-06-18T11:21:48.716Z</time>
      </trkpt>
      <trkpt lat="48.41105" lon="2.59947">
        <ele>118.601631</ele>
        <time>2022-06-18T11:21:50.045Z</time>
      </trkpt>
      <trkpt lat="48.41108" lon="2.59933">
        <ele>118.358434</ele>
        <time>2022-06-18T11:21:51.218Z</time>
      </trkpt>
      <trkpt lat="48.41106" lon="2.59916">
        <ele>118.072068</ele>
        <time>2022-06-18T11:21:52.594Z</time>
      </trkpt>
      <trkpt lat="48.41104" lon="2.599">
        <ele>117.804219</ele>
        <time>2022-06-18T11:21:53.895Z</time>
      </trkpt>
      <trkpt lat="48.41106" lon="2.59883">
        <ele>117.521825</ele>
        <time>2022-06-18T11:21:55.276Z</time>
      </trkpt>
      <trkpt lat="48.41111" lon="2.59868">
        <ele>117.238935</ele>
        <time>2022-06-18T11:21:56.608Z</time>
      </trkpt>
      <trkpt lat="48.41105" lon="2.59849">
        <ele>116.885828</ele>
        <time>2022-06-18T11:21:58.280Z</time>
      </trkpt>
      <trkpt lat="48.41099" lon="2.59835">
        <ele>116.598015</ele>
        <time>2022-06-18T11:21:59.593Z</time>
      </trkpt>
      <trkpt lat="48.41094" lon="2.59823">
        <ele>116.3729</ele>
        <time>2022-06-18T11:22:00.736Z</time>
      </trkpt>
      <trkpt lat="48.41088" lon="2.59808">
        <ele>116.361793</ele>
        <time>2022-06-18T11:22:02.822Z</time>
      </trkpt>
      <trkpt lat="48.41081" lon="2.59792">
        <ele>116.946858</ele>
        <time>2022-06-18T11:22:06.768Z</time>
      </trkpt>
      <trkpt lat="48.41073" lon="2.59779">
        <ele>117.497638</ele>
        <time>2022-06-18T11:22:10.437Z</time>
      </trkpt>
      <trkpt lat="48.41067" lon="2.59769">
        <ele>117.930233</ele>
        <time>2022-06-18T11:22:13.255Z</time>
      </trkpt>
      <trkpt lat="48.41057" lon="2.59755">
        <ele>118.548376</ele>
        <time>2022-06-18T11:22:17.471Z</time>
      </trkpt>
      <trkpt lat="48.41051" lon="2.59743">
        <ele>119.039565</ele>
        <time>2022-06-18T11:22:20.631Z</time>
      </trkpt>
      <trkpt lat="48.41043" lon="2.59729">
        <ele>119.604593</ele>
        <time>2022-06-18T11:22:24.437Z</time>
      </trkpt>
      <trkpt lat="48.41036" lon="2.59713">
        <ele>120.187051</ele>
        <time>2022-06-18T11:22:28.378Z</time>
      </trkpt>
      <trkpt lat="48.4103" lon="2.59699">
        <ele>120.70724</ele>
        <time>2022-06-18T11:22:31.832Z</time>
      </trkpt>
      <trkpt lat="48.41026" lon="2.59683">
        <ele>121.25045</ele>
        <time>2022-06-18T11:22:35.395Z</time>
      </trkpt>
      <trkpt lat="48.41021" lon="2.59666">
        <ele>121.831736</ele>
        <time>2022-06-18T11:22:39.252Z</time>
      </trkpt>
      <trkpt lat="48.41013" lon="2.59654">
        <ele>122.350387</ele>
        <time>2022-06-18T11:22:42.753Z</time>
      </trkpt>
      <trkpt lat="48.41004" lon="2.59643">
        <ele>122.902621</ele>
        <time>2022-06-18T11:22:46.386Z</time>
      </trkpt>
      <trkpt lat="48.40996" lon="2.59632">
        <ele>123.40841</ele>
        <time>2022-06-18T11:22:49.762Z</time>
      </trkpt>
      <trkpt lat="48.40989" lon="2.59622">
        <ele>123.869686</ele>
        <time>2022-06-18T11:22:52.790Z</time>
      </trkpt>
      <trkpt lat="48.40981" lon="2.59608">
        <ele>124.443163</ele>
        <time>2022-06-18T11:22:56.612Z</time>
      </trkpt>
      <trkpt lat="48.40973" lon="2.59595">
        <ele>125.272411</ele>
        <time>2022-06-18T11:23:00.939Z</time>
      </trkpt>
      <trkpt lat="48.40968" lon="2.59582">
        <ele>126.093368</ele>
        <time>2022-06-18T11:23:04.967Z</time>
      </trkpt>
      <trkpt lat="48.40965" lon="2.59567">
        <ele>126.97667</ele>
        <time>2022-06-18T11:23:09.261Z</time>
      </trkpt>
      <trkpt lat="48.40961" lon="2.59554">
        <ele>127.76926</ele>
        <time>2022-06-18T11:23:13.135Z</time>
      </trkpt>
      <trkpt lat="48.40954" lon="2.59543">
        <ele>128.568538</ele>
        <time>2022-06-18T11:23:17.111Z</time>
      </trkpt>
      <trkpt lat="48.40943" lon="2.59538">
        <ele>129.534976</ele>
        <time>2022-06-18T11:23:21.822Z</time>
      </trkpt>
      <trkpt lat="48.40936" lon="2.59525">
        <ele>130.451255</ele>
        <time>2022-06-18T11:23:26.316Z</time>
      </trkpt>
      <trkpt lat="48.40925" lon="2.59528">
        <ele>131.367797</ele>
        <time>2022-06-18T11:23:30.818Z</time>
      </trkpt>
      <trkpt lat="48.40915" lon="2.5952">
        <ele>132.230035</ele>
        <time>2022-06-18T11:23:35.168Z</time>
      </trkpt>
      <trkpt lat="48.40904" lon="2.59514">
        <ele>133.235489</ele>
        <time>2022-06-18T11:23:40.040Z</time>
      </trkpt>
      <trkpt lat="48.40892" lon="2.59512">
        <ele>134.202523</ele>
        <time>2022-06-18T11:23:44.828Z</time>
      </trkpt>
      <trkpt lat="48.4088" lon="2.59516">
        <ele>135.202344</ele>
        <time>2022-06-18T11:23:49.753Z</time>
      </trkpt>
      <trkpt lat="48.4087" lon="2.59514">
        <ele>136.075085</ele>
        <time>2022-06-18T11:23:53.974Z</time>
      </trkpt>
      <trkpt lat="48.40861" lon="2.59508">
        <ele>136.86128</ele>
        <time>2022-06-18T11:23:57.870Z</time>
      </trkpt>
      <trkpt lat="48.40853" lon="2.59501">
        <ele>137.612782</ele>
        <time>2022-06-18T11:24:01.574Z</time>
      </trkpt>
      <trkpt lat="48.40845" lon="2.59489">
        <ele>138.585493</ele>
        <time>2022-06-18T11:24:06.284Z</time>
      </trkpt>
      <trkpt lat="48.40835" lon="2.5948">
        <ele>139.522874</ele>
        <time>2022-06-18T11:24:10.917Z</time>
      </trkpt>
      <trkpt lat="48.40827" lon="2.59472">
        <ele>140.646128</ele>
        <time>2022-06-18T11:24:16.365Z</time>
      </trkpt>
      <trkpt lat="48.40825" lon="2.59456">
        <ele>141.824562</ele>
        <time>2022-06-18T11:24:21.977Z</time>
      </trkpt>
      <trkpt lat="48.40816" lon="2.59447">
        <ele>143.051122</ele>
        <time>2022-06-18T11:24:27.869Z</time>
      </trkpt>
      <trkpt lat="48.40807" lon="2.59445">
        <ele>144.124686</ele>
        <time>2022-06-18T11:24:33.093Z</time>
      </trkpt>
      <trkpt lat="48.40796" lon="2.59443">
        <ele>145.327395</ele>
        <time>2022-06-18T11:24:38.816Z</time>
      </trkpt>
      <trkpt lat="48.40786" lon="2.59442">
        <ele>146.416665</ele>
        <time>2022-06-18T11:24:44.000Z</time>
      </trkpt>
      <trkpt lat="48.40777" lon="2.59443">
        <ele>147.436104</ele>
        <time>2022-06-18T11:24:48.891Z</time>
      </trkpt>
      <trkpt lat="48.40768" lon="2.59439">
        <ele>148.545136</ele>
        <time>2022-06-18T11:24:54.291Z</time>
      </trkpt>
      <trkpt lat="48.40764" lon="2.59426">
        <ele>149.555636</ele>
        <time>2022-06-18T11:24:59.086Z</time>
      </trkpt>
      <trkpt lat="48.4076" lon="2.59412">
        <ele>150.711098</ele>
        <time>2022-06-18T11:25:04.646Z</time>
      </trkpt>
      <trkpt lat="48.40759" lon="2.59398">
        <ele>151.786697</ele>
        <time>2022-06-18T11:25:09.834Z</time>
      </trkpt>
      <trkpt lat="48.40752" lon="2.59387">
        <ele>152.873872</ele>
        <time>2022-06-18T11:25:15.000Z</time>
      </trkpt>
      <trkpt lat="48.40743" lon="2.59384">
        <ele>153.93406</ele>
        <time>2022-06-18T11:25:20.112Z</time>
      </trkpt>
      <trkpt lat="48.40735" lon="2.59374">
        <ele>155.058556</ele>
        <time>2022-06-18T11:25:25.460Z</time>
      </trkpt>
      <trkpt lat="48.40723" lon="2.5937">
        <ele>156.473443</ele>
        <time>2022-06-18T11:25:32.285Z</time>
      </trkpt>
      <trkpt lat="48.40712" lon="2.59374">
        <ele>157.732637</ele>
        <time>2022-06-18T11:25:38.305Z</time>
      </trkpt>
      <trkpt lat="48.407" lon="2.59377">
        <ele>159.071959</ele>
        <time>2022-06-18T11:25:44.693Z</time>
      </trkpt>
      <trkpt lat="48.40689" lon="2.59376">
        <ele>159.839543</ele>
        <time>2022-06-18T11:25:48.720Z</time>
      </trkpt>
      <trkpt lat="48.4068" lon="2.5938">
        <ele>160.17353</ele>
        <time>2022-06-18T11:25:51.255Z</time>
      </trkpt>
      <trkpt lat="48.40675" lon="2.59367">
        <ele>160.516842</ele>
        <time>2022-06-18T11:25:53.907Z</time>
      </trkpt>
      <trkpt lat="48.40671" lon="2.59354">
        <ele>160.885253</ele>
        <time>2022-06-18T11:25:56.592Z</time>
      </trkpt>
      <trkpt lat="48.40676" lon="2.59341">
        <ele>161.261582</ele>
        <time>2022-06-18T11:25:59.367Z</time>
      </trkpt>
      <trkpt lat="48.40665" lon="2.5934">
        <ele>161.651961</ele>
        <time>2022-06-18T11:26:02.337Z</time>
      </trkpt>
      <trkpt lat="48.40655" lon="2.5934">
        <ele>162.019179</ele>
        <time>2022-06-18T11:26:05.080Z</time>
      </trkpt>
      <trkpt lat="48.40647" lon="2.59334">
        <ele>162.361705</ele>
        <time>2022-06-18T11:26:07.588Z</time>
      </trkpt>
      <trkpt lat="48.40637" lon="2.59332">
        <ele>162.726588</ele>
        <time>2022-06-18T11:26:10.335Z</time>
      </trkpt>
      <trkpt lat="48.40631" lon="2.59346">
        <ele>163.137042</ele>
        <time>2022-06-18T11:26:13.386Z</time>
      </trkpt>
      <trkpt lat="48.40633" lon="2.5936">
        <ele>163.501135</ele>
        <time>2022-06-18T11:26:16.052Z</time>
      </trkpt>
      <trkpt lat="48.40636" lon="2.59374">
        <ele>163.865859</ele>
        <time>2022-06-18T11:26:18.755Z</time>
      </trkpt>
      <trkpt lat="48.40638" lon="2.59392">
        <ele>164.312784</ele>
        <time>2022-06-18T11:26:22.086Z</time>
      </trkpt>
      <trkpt lat="48.40639" lon="2.59407">
        <ele>164.687223</ele>
        <time>2022-06-18T11:26:24.859Z</time>
      </trkpt>
      <trkpt lat="48.40645" lon="2.5942">
        <ele>165.068766</ele>
        <time>2022-06-18T11:26:27.726Z</time>
      </trkpt>
      <trkpt lat="48.4065" lon="2.59433">
        <ele>165.422187</ele>
        <time>2022-06-18T11:26:30.414Z</time>
      </trkpt>
      <trkpt lat="48.40659" lon="2.59434">
        <ele>165.778935</ele>
        <time>2022-06-18T11:26:32.990Z</time>
      </trkpt>
      <trkpt lat="48.40667" lon="2.59442">
        <ele>166.132969</ele>
        <time>2022-06-18T11:26:35.630Z</time>
      </trkpt>
      <trkpt lat="48.40671" lon="2.59455">
        <ele>166.247105</ele>
        <time>2022-06-18T11:26:37.576Z</time>
      </trkpt>
      <trkpt lat="48.4068" lon="2.59454">
        <ele>166.230771</ele>
        <time>2022-06-18T11:26:39.174Z</time>
      </trkpt>
      <trkpt lat="48.40688" lon="2.59465">
        <ele>166.212141</ele>
        <time>2022-06-18T11:26:41.096Z</time>
      </trkpt>
      <trkpt lat="48.40694" lon="2.59478">
        <ele>166.192705</ele>
        <time>2022-06-18T11:26:42.957Z</time>
      </trkpt>
      <trkpt lat="48.40694" lon="2.59497">
        <ele>166.170097</ele>
        <time>2022-06-18T11:26:45.192Z</time>
      </trkpt>
      <trkpt lat="48.40693" lon="2.59514">
        <ele>166.150234</ele>
        <time>2022-06-18T11:26:47.201Z</time>
      </trkpt>
      <trkpt lat="48.40688" lon="2.59526">
        <ele>166.133822</ele>
        <time>2022-06-18T11:26:48.869Z</time>
      </trkpt>
      <trkpt lat="48.40679" lon="2.59533">
        <ele>166.115297</ele>
        <time>2022-06-18T11:26:50.663Z</time>
      </trkpt>
      <trkpt lat="48.4067" lon="2.59541">
        <ele>166.097552</ele>
        <time>2022-06-18T11:26:52.517Z</time>
      </trkpt>
      <trkpt lat="48.40669" lon="2.59557">
        <ele>166.078095</ele>
        <time>2022-06-18T11:26:54.407Z</time>
      </trkpt>
      <trkpt lat="48.40654" lon="2.59582">
        <ele>166.03792</ele>
        <time>2022-06-18T11:26:58.371Z</time>
      </trkpt>
      <trkpt lat="48.40644" lon="2.59588">
        <ele>166.018708</ele>
        <time>2022-06-18T11:27:00.278Z</time>
      </trkpt>
      <trkpt lat="48.40642" lon="2.59604">
        <ele>165.999387</ele>
        <time>2022-06-18T11:27:02.194Z</time>
      </trkpt>
      <trkpt lat="48.40639" lon="2.59619">
        <ele>165.981266</ele>
        <time>2022-06-18T11:27:04.038Z</time>
      </trkpt>
      <trkpt lat="48.40636" lon="2.59635">
        <ele>165.961438</ele>
        <time>2022-06-18T11:27:05.994Z</time>
      </trkpt>
      <trkpt lat="48.40632" lon="2.59651">
        <ele>165.941224</ele>
        <time>2022-06-18T11:27:08.005Z</time>
      </trkpt>
      <trkpt lat="48.40626" lon="2.59662">
        <ele>166.06233</ele>
        <time>2022-06-18T11:27:09.955Z</time>
      </trkpt>
      <trkpt lat="48.40626" lon="2.59677">
        <ele>166.259544</ele>
        <time>2022-06-18T11:27:12.170Z</time>
      </trkpt>
      <trkpt lat="48.4064" lon="2.59694">
        <ele>166.607437</ele>
        <time>2022-06-18T11:27:16.149Z</time>
      </trkpt>
      <trkpt lat="48.40638" lon="2.59708">
        <ele>166.793225</ele>
        <time>2022-06-18T11:27:18.257Z</time>
      </trkpt>
      <trkpt lat="48.40646" lon="2.59715">
        <ele>166.96903</ele>
        <time>2022-06-18T11:27:20.297Z</time>
      </trkpt>
      <trkpt lat="48.40651" lon="2.59727">
        <ele>167.156027</ele>
        <time>2022-06-18T11:27:22.391Z</time>
      </trkpt>
      <trkpt lat="48.40647" lon="2.5974">
        <ele>167.343463</ele>
        <time>2022-06-18T11:27:24.504Z</time>
      </trkpt>
      <trkpt lat="48.40637" lon="2.59745">
        <ele>167.54317</ele>
        <time>2022-06-18T11:27:26.826Z</time>
      </trkpt>
      <trkpt lat="48.40634" lon="2.59758">
        <ele>167.72292</ele>
        <time>2022-06-18T11:27:28.855Z</time>
      </trkpt>
      <trkpt lat="48.40626" lon="2.59765">
        <ele>167.910667</ele>
        <time>2022-06-18T11:27:30.924Z</time>
      </trkpt>
      <trkpt lat="48.40625" lon="2.59781">
        <ele>168.11325</ele>
        <time>2022-06-18T11:27:33.275Z</time>
      </trkpt>
      <trkpt lat="48.40616" lon="2.59785">
        <ele>168.294265</ele>
        <time>2022-06-18T11:27:35.350Z</time>
      </trkpt>
      <trkpt lat="48.40609" lon="2.59794">
        <ele>168.489342</ele>
        <time>2022-06-18T11:27:37.430Z</time>
      </trkpt>
      <trkpt lat="48.40607" lon="2.59809">
        <ele>168.690235</ele>
        <time>2022-06-18T11:27:39.688Z</time>
      </trkpt>
      <trkpt lat="48.40602" lon="2.59822">
        <ele>168.876115</ele>
        <time>2022-06-18T11:27:41.878Z</time>
      </trkpt>
      <trkpt lat="48.40606" lon="2.59837">
        <ele>169.089907</ele>
        <time>2022-06-18T11:27:44.268Z</time>
      </trkpt>
      <trkpt lat="48.40617" lon="2.59841">
        <ele>169.307213</ele>
        <time>2022-06-18T11:27:46.768Z</time>
      </trkpt>
      <trkpt lat="48.40623" lon="2.59851">
        <ele>169.461602</ele>
        <time>2022-06-18T11:27:48.703Z</time>
      </trkpt>
      <trkpt lat="48.4063" lon="2.59866">
        <ele>169.545589</ele>
        <time>2022-06-18T11:27:51.069Z</time>
      </trkpt>
      <trkpt lat="48.40634" lon="2.59882">
        <ele>169.6244</ele>
        <time>2022-06-18T11:27:53.276Z</time>
      </trkpt>
      <trkpt lat="48.40639" lon="2.59906">
        <ele>169.739652</ele>
        <time>2022-06-18T11:27:56.521Z</time>
      </trkpt>
      <trkpt lat="48.4064" lon="2.59923">
        <ele>169.819209</ele>
        <time>2022-06-18T11:27:58.726Z</time>
      </trkpt>
      <trkpt lat="48.40641" lon="2.5994">
        <ele>169.899516</ele>
        <time>2022-06-18T11:28:00.932Z</time>
      </trkpt>
      <trkpt lat="48.40643" lon="2.59955">
        <ele>169.967937</ele>
        <time>2022-06-18T11:28:02.903Z</time>
      </trkpt>
      <trkpt lat="48.40646" lon="2.59976">
        <ele>170.068022</ele>
        <time>2022-06-18T11:28:05.678Z</time>
      </trkpt>
      <trkpt lat="48.40646" lon="2.59995">
        <ele>170.156933</ele>
        <time>2022-06-18T11:28:08.133Z</time>
      </trkpt>
      <trkpt lat="48.40646" lon="2.60012">
        <ele>170.234813</ele>
        <time>2022-06-18T11:28:10.326Z</time>
      </trkpt>
      <trkpt lat="48.40646" lon="2.60032">
        <ele>170.327794</ele>
        <time>2022-06-18T11:28:12.909Z</time>
      </trkpt>
      <trkpt lat="48.40645" lon="2.60046">
        <ele>170.391522</ele>
        <time>2022-06-18T11:28:14.724Z</time>
      </trkpt>
      <trkpt lat="48.40642" lon="2.60061">
        <ele>170.464723</ele>
        <time>2022-06-18T11:28:16.748Z</time>
      </trkpt>
      <trkpt lat="48.40641" lon="2.60075">
        <ele>170.529838</ele>
        <time>2022-06-18T11:28:18.566Z</time>
      </trkpt>
      <trkpt lat="48.40639" lon="2.60088">
        <ele>170.593247</ele>
        <time>2022-06-18T11:28:20.292Z</time>
      </trkpt>
      <trkpt lat="48.40638" lon="2.60107">
        <ele>170.678969</ele>
        <time>2022-06-18T11:28:22.749Z</time>
      </trkpt>
      <trkpt lat="48.40635" lon="2.60121">
        <ele>170.614738</ele>
        <time>2022-06-18T11:28:24.364Z</time>
      </trkpt>
      <trkpt lat="48.40631" lon="2.60133">
        <ele>170.49476</ele>
        <time>2022-06-18T11:28:25.591Z</time>
      </trkpt>
      <trkpt lat="48.40626" lon="2.60147">
        <ele>170.353077</ele>
        <time>2022-06-18T11:28:27.044Z</time>
      </trkpt>
      <trkpt lat="48.40622" lon="2.60163">
        <ele>170.203546</ele>
        <time>2022-06-18T11:28:28.613Z</time>
      </trkpt>
      <trkpt lat="48.40618" lon="2.6018">
        <ele>170.043426</ele>
        <time>2022-06-18T11:28:30.263Z</time>
      </trkpt>
      <trkpt lat="48.40612" lon="2.60199">
        <ele>169.860386</ele>
        <time>2022-06-18T11:28:32.194Z</time>
      </trkpt>
      <trkpt lat="48.40609" lon="2.60214">
        <ele>169.723484</ele>
        <time>2022-06-18T11:28:33.631Z</time>
      </trkpt>
      <trkpt lat="48.40605" lon="2.60231">
        <ele>169.568725</ele>
        <time>2022-06-18T11:28:35.291Z</time>
      </trkpt>
      <trkpt lat="48.40606" lon="2.6025">
        <ele>169.398407</ele>
        <time>2022-06-18T11:28:37.032Z</time>
      </trkpt>
      <trkpt lat="48.40603" lon="2.60264">
        <ele>169.273853</ele>
        <time>2022-06-18T11:28:38.389Z</time>
      </trkpt>
      <trkpt lat="48.40601" lon="2.60284">
        <ele>169.09873</ele>
        <time>2022-06-18T11:28:40.247Z</time>
      </trkpt>
      <trkpt lat="48.406" lon="2.60303">
        <ele>168.926499</ele>
        <time>2022-06-18T11:28:41.985Z</time>
      </trkpt>
      <trkpt lat="48.40601" lon="2.60318">
        <ele>168.798403</ele>
        <time>2022-06-18T11:28:43.375Z</time>
      </trkpt>
      <trkpt lat="48.40609" lon="2.60328">
        <ele>168.662342</ele>
        <time>2022-06-18T11:28:44.813Z</time>
      </trkpt>
      <trkpt lat="48.40616" lon="2.60337">
        <ele>168.53363</ele>
        <time>2022-06-18T11:28:46.071Z</time>
      </trkpt>
      <trkpt lat="48.40627" lon="2.60349">
        <ele>168.363278</ele>
        <time>2022-06-18T11:28:47.963Z</time>
      </trkpt>
      <trkpt lat="48.40637" lon="2.60358">
        <ele>168.316271</ele>
        <time>2022-06-18T11:28:49.960Z</time>
      </trkpt>
      <trkpt lat="48.40647" lon="2.6037">
        <ele>168.302579</ele>
        <time>2022-06-18T11:28:52.251Z</time>
      </trkpt>
      <trkpt lat="48.40657" lon="2.6038">
        <ele>168.29027</ele>
        <time>2022-06-18T11:28:54.402Z</time>
      </trkpt>
      <trkpt lat="48.40667" lon="2.60391">
        <ele>168.277193</ele>
        <time>2022-06-18T11:28:56.621Z</time>
      </trkpt>
      <trkpt lat="48.40677" lon="2.60401">
        <ele>168.264493</ele>
        <time>2022-06-18T11:28:58.771Z</time>
      </trkpt>
      <trkpt lat="48.40688" lon="2.60401">
        <ele>168.252852</ele>
        <time>2022-06-18T11:29:00.742Z</time>
      </trkpt>
      <trkpt lat="48.40692" lon="2.60388">
        <ele>168.243136</ele>
        <time>2022-06-18T11:29:02.447Z</time>
      </trkpt>
      <trkpt lat="48.40694" lon="2.60373">
        <ele>168.232578</ele>
        <time>2022-06-18T11:29:04.268Z</time>
      </trkpt>
      <trkpt lat="48.40695" lon="2.60397">
        <ele>168.216175</ele>
        <time>2022-06-18T11:29:07.129Z</time>
      </trkpt>
      <trkpt lat="48.40687" lon="2.60406">
        <ele>168.20512</ele>
        <time>2022-06-18T11:29:08.917Z</time>
      </trkpt>
      <trkpt lat="48.40688" lon="2.60421">
        <ele>168.195007</ele>
        <time>2022-06-18T11:29:10.711Z</time>
      </trkpt>
      <trkpt lat="48.40688" lon="2.60464">
        <ele>168.164943</ele>
        <time>2022-06-18T11:29:15.826Z</time>
      </trkpt>
      <trkpt lat="48.40687" lon="2.60478">
        <ele>168.155408</ele>
        <time>2022-06-18T11:29:17.502Z</time>
      </trkpt>
      <trkpt lat="48.40688" lon="2.60496">
        <ele>168.142739</ele>
        <time>2022-06-18T11:29:19.650Z</time>
      </trkpt>
      <trkpt lat="48.40689" lon="2.60509">
        <ele>168.107674</ele>
        <time>2022-06-18T11:29:21.140Z</time>
      </trkpt>
      <trkpt lat="48.40691" lon="2.60523">
        <ele>168.034875</ele>
        <time>2022-06-18T11:29:22.552Z</time>
      </trkpt>
      <trkpt lat="48.40692" lon="2.6054">
        <ele>167.942704</ele>
        <time>2022-06-18T11:29:24.225Z</time>
      </trkpt>
      <trkpt lat="48.40692" lon="2.60554">
        <ele>167.868484</ele>
        <time>2022-06-18T11:29:25.600Z</time>
      </trkpt>
      <trkpt lat="48.4069" lon="2.60568">
        <ele>167.793432</ele>
        <time>2022-06-18T11:29:27.008Z</time>
      </trkpt>
      <trkpt lat="48.40685" lon="2.6058">
        <ele>167.717346</ele>
        <time>2022-06-18T11:29:28.398Z</time>
      </trkpt>
      <trkpt lat="48.40676" lon="2.6059">
        <ele>167.62613</ele>
        <time>2022-06-18T11:29:30.049Z</time>
      </trkpt>
      <trkpt lat="48.40669" lon="2.60608">
        <ele>167.51573</ele>
        <time>2022-06-18T11:29:32.098Z</time>
      </trkpt>
      <trkpt lat="48.40668" lon="2.60621">
        <ele>167.441961</ele>
        <time>2022-06-18T11:29:33.374Z</time>
      </trkpt>
      <trkpt lat="48.40669" lon="2.60635">
        <ele>167.367013</ele>
        <time>2022-06-18T11:29:34.757Z</time>
      </trkpt>
      <trkpt lat="48.40673" lon="2.60652">
        <ele>167.272308</ele>
        <time>2022-06-18T11:29:36.530Z</time>
      </trkpt>
      <trkpt lat="48.40674" lon="2.60683">
        <ele>167.107257</ele>
        <time>2022-06-18T11:29:39.577Z</time>
      </trkpt>
      <trkpt lat="48.40675" lon="2.60699">
        <ele>167.020676</ele>
        <time>2022-06-18T11:29:41.153Z</time>
      </trkpt>
      <trkpt lat="48.40677" lon="2.60712">
        <ele>166.945599</ele>
        <time>2022-06-18T11:29:42.454Z</time>
      </trkpt>
      <trkpt lat="48.40679" lon="2.60732">
        <ele>166.841442</ele>
        <time>2022-06-18T11:29:44.447Z</time>
      </trkpt>
      <trkpt lat="48.4068" lon="2.60746">
        <ele>166.763532</ele>
        <time>2022-06-18T11:29:45.823Z</time>
      </trkpt>
      <trkpt lat="48.40679" lon="2.60762">
        <ele>166.695297</ele>
        <time>2022-06-18T11:29:47.592Z</time>
      </trkpt>
      <trkpt lat="48.40678" lon="2.60776">
        <ele>166.726181</ele>
        <time>2022-06-18T11:29:49.348Z</time>
      </trkpt>
      <trkpt lat="48.40677" lon="2.60797">
        <ele>166.769546</ele>
        <time>2022-06-18T11:29:51.967Z</time>
      </trkpt>
      <trkpt lat="48.40678" lon="2.60811">
        <ele>166.798916</ele>
        <time>2022-06-18T11:29:53.719Z</time>
      </trkpt>
      <trkpt lat="48.40675" lon="2.60824">
        <ele>166.829135</ele>
        <time>2022-06-18T11:29:55.435Z</time>
      </trkpt>
      <trkpt lat="48.40675" lon="2.60844">
        <ele>166.870772</ele>
        <time>2022-06-18T11:29:57.923Z</time>
      </trkpt>
      <trkpt lat="48.40677" lon="2.60862">
        <ele>166.90952</ele>
        <time>2022-06-18T11:30:00.196Z</time>
      </trkpt>
      <trkpt lat="48.40677" lon="2.6088">
        <ele>166.947506</ele>
        <time>2022-06-18T11:30:02.437Z</time>
      </trkpt>
      <trkpt lat="48.40676" lon="2.60894">
        <ele>166.978863</ele>
        <time>2022-06-18T11:30:04.193Z</time>
      </trkpt>
      <trkpt lat="48.40676" lon="2.60913">
        <ele>167.017718</ele>
        <time>2022-06-18T11:30:06.556Z</time>
      </trkpt>
      <trkpt lat="48.40677" lon="2.60927">
        <ele>167.047654</ele>
        <time>2022-06-18T11:30:08.309Z</time>
      </trkpt>
      <trkpt lat="48.40677" lon="2.6094">
        <ele>167.076812</ele>
        <time>2022-06-18T11:30:09.931Z</time>
      </trkpt>
      <trkpt lat="48.40678" lon="2.60958">
        <ele>167.115031</ele>
        <time>2022-06-18T11:30:12.179Z</time>
      </trkpt>
      <trkpt lat="48.40677" lon="2.60981">
        <ele>167.162574</ele>
        <time>2022-06-18T11:30:15.047Z</time>
      </trkpt>
      <trkpt lat="48.40674" lon="2.60994">
        <ele>167.193289</ele>
        <time>2022-06-18T11:30:16.763Z</time>
      </trkpt>
      <trkpt lat="48.4067" lon="2.61008">
        <ele>167.224491</ele>
        <time>2022-06-18T11:30:18.659Z</time>
      </trkpt>
      <trkpt lat="48.40665" lon="2.61021">
        <ele>167.257756</ele>
        <time>2022-06-18T11:30:20.532Z</time>
      </trkpt>
      <trkpt lat="48.40661" lon="2.61037">
        <ele>167.207416</ele>
        <time>2022-06-18T11:30:22.467Z</time>
      </trkpt>
      <trkpt lat="48.40658" lon="2.6105">
        <ele>167.148605</ele>
        <time>2022-06-18T11:30:23.982Z</time>
      </trkpt>
      <trkpt lat="48.40655" lon="2.61066">
        <ele>167.076613</ele>
        <time>2022-06-18T11:30:25.808Z</time>
      </trkpt>
      <trkpt lat="48.40657" lon="2.61083">
        <ele>167.002188</ele>
        <time>2022-06-18T11:30:27.706Z</time>
      </trkpt>
      <trkpt lat="48.40658" lon="2.61098">
        <ele>166.936782</ele>
        <time>2022-06-18T11:30:29.363Z</time>
      </trkpt>
      <trkpt lat="48.4066" lon="2.61114">
        <ele>166.863568</ele>
        <time>2022-06-18T11:30:31.146Z</time>
      </trkpt>
      <trkpt lat="48.40661" lon="2.61129">
        <ele>166.798162</ele>
        <time>2022-06-18T11:30:32.802Z</time>
      </trkpt>
      <trkpt lat="48.40662" lon="2.61144">
        <ele>166.735018</ele>
        <time>2022-06-18T11:30:34.463Z</time>
      </trkpt>
      <trkpt lat="48.40661" lon="2.61159">
        <ele>166.667598</ele>
        <time>2022-06-18T11:30:36.115Z</time>
      </trkpt>
      <trkpt lat="48.40665" lon="2.61177">
        <ele>166.586332</ele>
        <time>2022-06-18T11:30:38.203Z</time>
      </trkpt>
      <trkpt lat="48.40668" lon="2.612">
        <ele>166.483769</ele>
        <time>2022-06-18T11:30:40.776Z</time>
      </trkpt>
      <trkpt lat="48.40669" lon="2.61216">
        <ele>166.414845</ele>
        <time>2022-06-18T11:30:42.544Z</time>
      </trkpt>
      <trkpt lat="48.40668" lon="2.61232">
        <ele>166.342455</ele>
        <time>2022-06-18T11:30:44.303Z</time>
      </trkpt>
      <trkpt lat="48.40667" lon="2.61246">
        <ele>166.281879</ele>
        <time>2022-06-18T11:30:45.851Z</time>
      </trkpt>
      <trkpt lat="48.40663" lon="2.61271">
        <ele>166.171401</ele>
        <time>2022-06-18T11:30:48.679Z</time>
      </trkpt>
      <trkpt lat="48.4066" lon="2.61289">
        <ele>166.088729</ele>
        <time>2022-06-18T11:30:50.713Z</time>
      </trkpt>
      <trkpt lat="48.40656" lon="2.61303">
        <ele>166.305503</ele>
        <time>2022-06-18T11:30:53.005Z</time>
      </trkpt>
      <trkpt lat="48.4065" lon="2.61315">
        <ele>166.514627</ele>
        <time>2022-06-18T11:30:55.253Z</time>
      </trkpt>
      <trkpt lat="48.40643" lon="2.61328">
        <ele>166.755975</ele>
        <time>2022-06-18T11:30:57.779Z</time>
      </trkpt>
      <trkpt lat="48.40638" lon="2.61341">
        <ele>166.98099</ele>
        <time>2022-06-18T11:31:00.068Z</time>
      </trkpt>
      <trkpt lat="48.40632" lon="2.61355">
        <ele>167.219139</ele>
        <time>2022-06-18T11:31:02.576Z</time>
      </trkpt>
      <trkpt lat="48.40628" lon="2.61368">
        <ele>167.421412</ele>
        <time>2022-06-18T11:31:04.727Z</time>
      </trkpt>
      <trkpt lat="48.40622" lon="2.6138">
        <ele>167.643845</ele>
        <time>2022-06-18T11:31:07.009Z</time>
      </trkpt>
      <trkpt lat="48.40617" lon="2.61397">
        <ele>167.898885</ele>
        <time>2022-06-18T11:31:09.781Z</time>
      </trkpt>
      <trkpt lat="48.40609" lon="2.61415">
        <ele>168.226031</ele>
        <time>2022-06-18T11:31:13.089Z</time>
      </trkpt>
      <trkpt lat="48.40604" lon="2.61433">
        <ele>168.50268</ele>
        <time>2022-06-18T11:31:16.021Z</time>
      </trkpt>
      <trkpt lat="48.40602" lon="2.61448">
        <ele>168.732898</ele>
        <time>2022-06-18T11:31:18.355Z</time>
      </trkpt>
      <trkpt lat="48.40598" lon="2.61466">
        <ele>169.006726</ele>
        <time>2022-06-18T11:31:21.219Z</time>
      </trkpt>
      <trkpt lat="48.40591" lon="2.61482">
        <ele>169.274742</ele>
        <time>2022-06-18T11:31:24.089Z</time>
      </trkpt>
      <trkpt lat="48.40587" lon="2.61497">
        <ele>169.503657</ele>
        <time>2022-06-18T11:31:26.517Z</time>
      </trkpt>
      <trkpt lat="48.40581" lon="2.61515">
        <ele>169.805195</ele>
        <time>2022-06-18T11:31:29.586Z</time>
      </trkpt>
      <trkpt lat="48.40578" lon="2.6153">
        <ele>170.059388</ele>
        <time>2022-06-18T11:31:32.026Z</time>
      </trkpt>
      <trkpt lat="48.4057" lon="2.61545">
        <ele>170.709375</ele>
        <time>2022-06-18T11:31:36.116Z</time>
      </trkpt>
      <trkpt lat="48.40564" lon="2.61563">
        <ele>171.384305</ele>
        <time>2022-06-18T11:31:40.386Z</time>
      </trkpt>
      <trkpt lat="48.4056" lon="2.61582">
        <ele>172.040442</ele>
        <time>2022-06-18T11:31:44.588Z</time>
      </trkpt>
      <trkpt lat="48.40559" lon="2.61599">
        <ele>172.614669</ele>
        <time>2022-06-18T11:31:48.211Z</time>
      </trkpt>
      <trkpt lat="48.40557" lon="2.61613">
        <ele>173.098167</ele>
        <time>2022-06-18T11:31:51.254Z</time>
      </trkpt>
      <trkpt lat="48.40554" lon="2.61632">
        <ele>173.769405</ele>
        <time>2022-06-18T11:31:55.431Z</time>
      </trkpt>
      <trkpt lat="48.40552" lon="2.6165">
        <ele>174.373267</ele>
        <time>2022-06-18T11:31:59.284Z</time>
      </trkpt>
      <trkpt lat="48.4055" lon="2.61664">
        <ele>174.853648</ele>
        <time>2022-06-18T11:32:02.321Z</time>
      </trkpt>
      <trkpt lat="48.40548" lon="2.6168">
        <ele>175.393906</ele>
        <time>2022-06-18T11:32:05.762Z</time>
      </trkpt>
      <trkpt lat="48.40544" lon="2.61693">
        <ele>175.882627</ele>
        <time>2022-06-18T11:32:08.818Z</time>
      </trkpt>
      <trkpt lat="48.40541" lon="2.61708">
        <ele>176.422133</ele>
        <time>2022-06-18T11:32:12.170Z</time>
      </trkpt>
      <trkpt lat="48.40534" lon="2.61725">
        <ele>177.069172</ele>
        <time>2022-06-18T11:32:16.363Z</time>
      </trkpt>
      <trkpt lat="48.4053" lon="2.61743">
        <ele>177.70163</ele>
        <time>2022-06-18T11:32:20.380Z</time>
      </trkpt>
      <trkpt lat="48.40527" lon="2.61759">
        <ele>178.258783</ele>
        <time>2022-06-18T11:32:23.905Z</time>
      </trkpt>
      <trkpt lat="48.40523" lon="2.61771">
        <ele>178.712069</ele>
        <time>2022-06-18T11:32:26.758Z</time>
      </trkpt>
      <trkpt lat="48.40521" lon="2.61785">
        <ele>179.080875</ele>
        <time>2022-06-18T11:32:29.443Z</time>
      </trkpt>
      <trkpt lat="48.4052" lon="2.61799">
        <ele>179.07384</ele>
        <time>2022-06-18T11:32:31.126Z</time>
      </trkpt>
      <trkpt lat="48.40514" lon="2.61817">
        <ele>179.063952</ele>
        <time>2022-06-18T11:32:33.533Z</time>
      </trkpt>
      <trkpt lat="48.40509" lon="2.61834">
        <ele>179.054647</ele>
        <time>2022-06-18T11:32:35.755Z</time>
      </trkpt>
      <trkpt lat="48.40506" lon="2.61849">
        <ele>179.047128</ele>
        <time>2022-06-18T11:32:37.628Z</time>
      </trkpt>
      <trkpt lat="48.40508" lon="2.61862">
        <ele>179.040487</ele>
        <time>2022-06-18T11:32:39.223Z</time>
      </trkpt>
      <trkpt lat="48.40502" lon="2.61879">
        <ele>179.031145</ele>
        <time>2022-06-18T11:32:41.524Z</time>
      </trkpt>
      <trkpt lat="48.40501" lon="2.61895">
        <ele>179.023495</ele>
        <time>2022-06-18T11:32:43.445Z</time>
      </trkpt>
      <trkpt lat="48.40497" lon="2.61908">
        <ele>179.01644</ele>
        <time>2022-06-18T11:32:45.158Z</time>
      </trkpt>
      <trkpt lat="48.40494" lon="2.61921">
        <ele>179.009475</ele>
        <time>2022-06-18T11:32:46.802Z</time>
      </trkpt>
      <trkpt lat="48.40491" lon="2.61938">
        <ele>179.001161</ele>
        <time>2022-06-18T11:32:48.905Z</time>
      </trkpt>
      <trkpt lat="48.40486" lon="2.61955">
        <ele>178.991779</ele>
        <time>2022-06-18T11:32:51.127Z</time>
      </trkpt>
      <trkpt lat="48.40483" lon="2.61968">
        <ele>178.984995</ele>
        <time>2022-06-18T11:32:52.772Z</time>
      </trkpt>
      <trkpt lat="48.40485" lon="2.61988">
        <ele>178.975111</ele>
        <time>2022-06-18T11:32:55.189Z</time>
      </trkpt>
      <trkpt lat="48.40479" lon="2.62001">
        <ele>178.96756</ele>
        <time>2022-06-18T11:32:57.082Z</time>
      </trkpt>
      <trkpt lat="48.40474" lon="2.62014">
        <ele>178.960542</ele>
        <time>2022-06-18T11:32:58.879Z</time>
      </trkpt>
      <trkpt lat="48.40471" lon="2.62028">
        <ele>178.953133</ele>
        <time>2022-06-18T11:33:00.637Z</time>
      </trkpt>
      <trkpt lat="48.40469" lon="2.62042">
        <ele>178.963574</ele>
        <time>2022-06-18T11:33:02.385Z</time>
      </trkpt>
      <trkpt lat="48.40464" lon="2.62055">
        <ele>178.99218</ele>
        <time>2022-06-18T11:33:04.250Z</time>
      </trkpt>
      <trkpt lat="48.40461" lon="2.6207">
        <ele>179.021025</ele>
        <time>2022-06-18T11:33:06.193Z</time>
      </trkpt>
      <trkpt lat="48.40458" lon="2.62089">
        <ele>179.059098</ele>
        <time>2022-06-18T11:33:08.619Z</time>
      </trkpt>
      <trkpt lat="48.40454" lon="2.6211">
        <ele>179.099575</ele>
        <time>2022-06-18T11:33:11.329Z</time>
      </trkpt>
      <trkpt lat="48.4045" lon="2.62125">
        <ele>179.131333</ele>
        <time>2022-06-18T11:33:13.338Z</time>
      </trkpt>
      <trkpt lat="48.40446" lon="2.6214">
        <ele>179.162774</ele>
        <time>2022-06-18T11:33:15.345Z</time>
      </trkpt>
      <trkpt lat="48.40442" lon="2.62155">
        <ele>179.192377</ele>
        <time>2022-06-18T11:33:17.350Z</time>
      </trkpt>
      <trkpt lat="48.40438" lon="2.6217">
        <ele>179.223122</ele>
        <time>2022-06-18T11:33:19.356Z</time>
      </trkpt>
      <trkpt lat="48.40436" lon="2.62184">
        <ele>179.250364</ele>
        <time>2022-06-18T11:33:21.134Z</time>
      </trkpt>
      <trkpt lat="48.40433" lon="2.62198">
        <ele>179.278312</ele>
        <time>2022-06-18T11:33:22.960Z</time>
      </trkpt>
      <trkpt lat="48.40429" lon="2.62211">
        <ele>179.306405</ele>
        <time>2022-06-18T11:33:24.740Z</time>
      </trkpt>
      <trkpt lat="48.40424" lon="2.62229">
        <ele>179.342063</ele>
        <time>2022-06-18T11:33:27.160Z</time>
      </trkpt>
      <trkpt lat="48.40419" lon="2.62253">
        <ele>179.390555</ele>
        <time>2022-06-18T11:33:30.283Z</time>
      </trkpt>
      <trkpt lat="48.40418" lon="2.62268">
        <ele>179.419031</ele>
        <time>2022-06-18T11:33:32.154Z</time>
      </trkpt>
      <trkpt lat="48.40413" lon="2.62283">
        <ele>179.44919</ele>
        <time>2022-06-18T11:33:34.235Z</time>
      </trkpt>
      <trkpt lat="48.4041" lon="2.62297">
        <ele>179.473686</ele>
        <time>2022-06-18T11:33:36.055Z</time>
      </trkpt>
      <trkpt lat="48.40405" lon="2.62314">
        <ele>179.498111</ele>
        <time>2022-06-18T11:33:38.344Z</time>
      </trkpt>
      <trkpt lat="48.40401" lon="2.62331">
        <ele>179.520849</ele>
        <time>2022-06-18T11:33:40.562Z</time>
      </trkpt>
      <trkpt lat="48.40398" lon="2.62346">
        <ele>179.541171</ele>
        <time>2022-06-18T11:33:42.490Z</time>
      </trkpt>
      <trkpt lat="48.40396" lon="2.62361">
        <ele>179.561171</ele>
        <time>2022-06-18T11:33:44.374Z</time>
      </trkpt>
      <trkpt lat="48.40393" lon="2.62375">
        <ele>179.579803</ele>
        <time>2022-06-18T11:33:46.184Z</time>
      </trkpt>
      <trkpt lat="48.40387" lon="2.62388">
        <ele>179.599528</ele>
        <time>2022-06-18T11:33:48.131Z</time>
      </trkpt>
      <trkpt lat="48.40383" lon="2.62402">
        <ele>179.620339</ele>
        <time>2022-06-18T11:33:50.009Z</time>
      </trkpt>
      <trkpt lat="48.4038" lon="2.62417">
        <ele>179.639688</ele>
        <time>2022-06-18T11:33:51.935Z</time>
      </trkpt>
      <trkpt lat="48.40377" lon="2.62432">
        <ele>179.659855</ele>
        <time>2022-06-18T11:33:53.863Z</time>
      </trkpt>
      <trkpt lat="48.40374" lon="2.62448">
        <ele>179.682227</ele>
        <time>2022-06-18T11:33:55.911Z</time>
      </trkpt>
      <trkpt lat="48.4037" lon="2.62467">
        <ele>179.707924</ele>
        <time>2022-06-18T11:33:58.364Z</time>
      </trkpt>
      <trkpt lat="48.40367" lon="2.62481">
        <ele>179.726925</ele>
        <time>2022-06-18T11:34:00.174Z</time>
      </trkpt>
      <trkpt lat="48.40362" lon="2.62497">
        <ele>179.749089</ele>
        <time>2022-06-18T11:34:02.349Z</time>
      </trkpt>
      <trkpt lat="48.40358" lon="2.6251">
        <ele>179.767561</ele>
        <time>2022-06-18T11:34:04.113Z</time>
      </trkpt>
      <trkpt lat="48.40356" lon="2.62528">
        <ele>179.791038</ele>
        <time>2022-06-18T11:34:06.358Z</time>
      </trkpt>
      <trkpt lat="48.40355" lon="2.62543">
        <ele>179.811241</ele>
        <time>2022-06-18T11:34:08.215Z</time>
      </trkpt>
      <trkpt lat="48.40351" lon="2.62557">
        <ele>179.871013</ele>
        <time>2022-06-18T11:34:10.163Z</time>
      </trkpt>
      <trkpt lat="48.40346" lon="2.62571">
        <ele>179.942094</ele>
        <time>2022-06-18T11:34:12.211Z</time>
      </trkpt>
      <trkpt lat="48.40343" lon="2.62586">
        <ele>180.009476</ele>
        <time>2022-06-18T11:34:14.224Z</time>
      </trkpt>
      <trkpt lat="48.40339" lon="2.626">
        <ele>180.076962</ele>
        <time>2022-06-18T11:34:16.186Z</time>
      </trkpt>
      <trkpt lat="48.40336" lon="2.62617">
        <ele>180.156383</ele>
        <time>2022-06-18T11:34:18.453Z</time>
      </trkpt>
      <trkpt lat="48.40332" lon="2.62635">
        <ele>180.242435</ele>
        <time>2022-06-18T11:34:20.901Z</time>
      </trkpt>
      <trkpt lat="48.40329" lon="2.62652">
        <ele>180.32024</ele>
        <time>2022-06-18T11:34:23.165Z</time>
      </trkpt>
      <trkpt lat="48.40328" lon="2.62669">
        <ele>180.393238</ele>
        <time>2022-06-18T11:34:25.358Z</time>
      </trkpt>
      <trkpt lat="48.40325" lon="2.62685">
        <ele>180.469516</ele>
        <time>2022-06-18T11:34:27.503Z</time>
      </trkpt>
      <trkpt lat="48.40323" lon="2.627">
        <ele>180.535436</ele>
        <time>2022-06-18T11:34:29.469Z</time>
      </trkpt>
      <trkpt lat="48.4032" lon="2.62718">
        <ele>180.620021</ele>
        <time>2022-06-18T11:34:31.863Z</time>
      </trkpt>
      <trkpt lat="48.40315" lon="2.62736">
        <ele>180.70653</ele>
        <time>2022-06-18T11:34:34.376Z</time>
      </trkpt>
      <trkpt lat="48.40309" lon="2.62753">
        <ele>180.792311</ele>
        <time>2022-06-18T11:34:36.855Z</time>
      </trkpt>
      <trkpt lat="48.40308" lon="2.62768">
        <ele>180.857738</ele>
        <time>2022-06-18T11:34:38.794Z</time>
      </trkpt>
      <trkpt lat="48.40305" lon="2.62782">
        <ele>180.924293</ele>
        <time>2022-06-18T11:34:40.690Z</time>
      </trkpt>
      <trkpt lat="48.40301" lon="2.62795">
        <ele>180.988071</ele>
        <time>2022-06-18T11:34:42.535Z</time>
      </trkpt>
      <trkpt lat="48.40298" lon="2.6281">
        <ele>180.912484</ele>
        <time>2022-06-18T11:34:44.089Z</time>
      </trkpt>
      <trkpt lat="48.40294" lon="2.62824">
        <ele>180.724924</ele>
        <time>2022-06-18T11:34:45.398Z</time>
      </trkpt>
      <trkpt lat="48.40292" lon="2.62838">
        <ele>180.535334</ele>
        <time>2022-06-18T11:34:46.607Z</time>
      </trkpt>
      <trkpt lat="48.40289" lon="2.62858">
        <ele>180.269783</ele>
        <time>2022-06-18T11:34:48.347Z</time>
      </trkpt>
      <trkpt lat="48.40288" lon="2.62873">
        <ele>180.085487</ele>
        <time>2022-06-18T11:34:49.644Z</time>
      </trkpt>
      <trkpt lat="48.40289" lon="2.62889">
        <ele>179.882026</ele>
        <time>2022-06-18T11:34:51.015Z</time>
      </trkpt>
      <trkpt lat="48.40297" lon="2.62895">
        <ele>179.703509</ele>
        <time>2022-06-18T11:34:52.151Z</time>
      </trkpt>
      <trkpt lat="48.40308" lon="2.62899">
        <ele>179.483625</ele>
        <time>2022-06-18T11:34:53.599Z</time>
      </trkpt>
      <trkpt lat="48.40317" lon="2.62908">
        <ele>179.272086</ele>
        <time>2022-06-18T11:34:54.978Z</time>
      </trkpt>
      <trkpt lat="48.4033" lon="2.6292">
        <ele>178.979398</ele>
        <time>2022-06-18T11:34:56.935Z</time>
      </trkpt>
      <trkpt lat="48.40342" lon="2.62924">
        <ele>178.751406</ele>
        <time>2022-06-18T11:34:58.524Z</time>
      </trkpt>
      <trkpt lat="48.40351" lon="2.62932">
        <ele>178.552047</ele>
        <time>2022-06-18T11:34:59.867Z</time>
      </trkpt>
      <trkpt lat="48.40363" lon="2.6294">
        <ele>178.295763</ele>
        <time>2022-06-18T11:35:01.544Z</time>
      </trkpt>
      <trkpt lat="48.40374" lon="2.6295">
        <ele>178.041669</ele>
        <time>2022-06-18T11:35:03.181Z</time>
      </trkpt>
      <trkpt lat="48.40385" lon="2.62958">
        <ele>177.814444</ele>
        <time>2022-06-18T11:35:04.760Z</time>
      </trkpt>
      <trkpt lat="48.40395" lon="2.62967">
        <ele>177.584449</ele>
        <time>2022-06-18T11:35:06.245Z</time>
      </trkpt>
      <trkpt lat="48.40407" lon="2.62977">
        <ele>177.546851</ele>
        <time>2022-06-18T11:35:08.641Z</time>
      </trkpt>
      <trkpt lat="48.40415" lon="2.62988">
        <ele>177.538799</ele>
        <time>2022-06-18T11:35:10.591Z</time>
      </trkpt>
      <trkpt lat="48.4042" lon="2.63">
        <ele>177.531697</ele>
        <time>2022-06-18T11:35:12.284Z</time>
      </trkpt>
      <trkpt lat="48.40428" lon="2.63011">
        <ele>177.524053</ele>
        <time>2022-06-18T11:35:14.235Z</time>
      </trkpt>
      <trkpt lat="48.40434" lon="2.63022">
        <ele>177.516742</ele>
        <time>2022-06-18T11:35:15.936Z</time>
      </trkpt>
      <trkpt lat="48.40441" lon="2.63033">
        <ele>177.509156</ele>
        <time>2022-06-18T11:35:17.757Z</time>
      </trkpt>
      <trkpt lat="48.40448" lon="2.63043">
        <ele>177.502241</ele>
        <time>2022-06-18T11:35:19.494Z</time>
      </trkpt>
      <trkpt lat="48.40449" lon="2.63058">
        <ele>177.494961</ele>
        <time>2022-06-18T11:35:21.296Z</time>
      </trkpt>
      <trkpt lat="48.40451" lon="2.63071">
        <ele>177.488063</ele>
        <time>2022-06-18T11:35:22.890Z</time>
      </trkpt>
      <trkpt lat="48.40453" lon="2.63088">
        <ele>177.479593</ele>
        <time>2022-06-18T11:35:24.954Z</time>
      </trkpt>
      <trkpt lat="48.40456" lon="2.63103">
        <ele>177.471836</ele>
        <time>2022-06-18T11:35:26.826Z</time>
      </trkpt>
      <trkpt lat="48.40458" lon="2.63119">
        <ele>177.464162</ele>
        <time>2022-06-18T11:35:28.773Z</time>
      </trkpt>
      <trkpt lat="48.40454" lon="2.6313">
        <ele>177.457427</ele>
        <time>2022-06-18T11:35:30.270Z</time>
      </trkpt>
      <trkpt lat="48.40459" lon="2.63141">
        <ele>177.450591</ele>
        <time>2022-06-18T11:35:31.863Z</time>
      </trkpt>
      <trkpt lat="48.40462" lon="2.63155">
        <ele>177.443322</ele>
        <time>2022-06-18T11:35:33.621Z</time>
      </trkpt>
      <trkpt lat="48.40463" lon="2.6317">
        <ele>177.436121</ele>
        <time>2022-06-18T11:35:35.423Z</time>
      </trkpt>
      <trkpt lat="48.40463" lon="2.63184">
        <ele>177.429084</ele>
        <time>2022-06-18T11:35:37.096Z</time>
      </trkpt>
      <trkpt lat="48.40473" lon="2.63185">
        <ele>177.40409</ele>
        <time>2022-06-18T11:35:38.853Z</time>
      </trkpt>
      <trkpt lat="48.40482" lon="2.63182">
        <ele>177.243759</ele>
        <time>2022-06-18T11:35:40.062Z</time>
      </trkpt>
      <trkpt lat="48.40492" lon="2.63178">
        <ele>177.058991</ele>
        <time>2022-06-18T11:35:41.411Z</time>
      </trkpt>
      <trkpt lat="48.40502" lon="2.63174">
        <ele>176.886739</ele>
        <time>2022-06-18T11:35:42.780Z</time>
      </trkpt>
      <trkpt lat="48.40512" lon="2.63173">
        <ele>176.712062</ele>
        <time>2022-06-18T11:35:44.093Z</time>
      </trkpt>
      <trkpt lat="48.40521" lon="2.63171">
        <ele>176.545675</ele>
        <time>2022-06-18T11:35:45.273Z</time>
      </trkpt>
      <trkpt lat="48.40531" lon="2.63166">
        <ele>176.363321</ele>
        <time>2022-06-18T11:35:46.656Z</time>
      </trkpt>
      <trkpt lat="48.40541" lon="2.6316">
        <ele>176.173935</ele>
        <time>2022-06-18T11:35:48.064Z</time>
      </trkpt>
      <trkpt lat="48.40549" lon="2.63152">
        <ele>176.000521</ele>
        <time>2022-06-18T11:35:49.313Z</time>
      </trkpt>
      <trkpt lat="48.40559" lon="2.63146">
        <ele>175.808194</ele>
        <time>2022-06-18T11:35:50.716Z</time>
      </trkpt>
      <trkpt lat="48.40568" lon="2.63141">
        <ele>175.6456</ele>
        <time>2022-06-18T11:35:51.980Z</time>
      </trkpt>
      <trkpt lat="48.40577" lon="2.63139">
        <ele>175.47628</ele>
        <time>2022-06-18T11:35:53.156Z</time>
      </trkpt>
      <trkpt lat="48.40589" lon="2.63136">
        <ele>175.272206</ele>
        <time>2022-06-18T11:35:54.763Z</time>
      </trkpt>
      <trkpt lat="48.40598" lon="2.63142">
        <ele>175.083848</ele>
        <time>2022-06-18T11:35:56.026Z</time>
      </trkpt>
      <trkpt lat="48.406" lon="2.63158">
        <ele>174.903279</ele>
        <time>2022-06-18T11:35:57.455Z</time>
      </trkpt>
      <trkpt lat="48.40599" lon="2.63173">
        <ele>174.723745</ele>
        <time>2022-06-18T11:35:58.759Z</time>
      </trkpt>
      <trkpt lat="48.40608" lon="2.63175">
        <ele>174.560833</ele>
        <time>2022-06-18T11:35:59.944Z</time>
      </trkpt>
      <trkpt lat="48.40614" lon="2.6316">
        <ele>174.353043</ele>
        <time>2022-06-18T11:36:01.460Z</time>
      </trkpt>
      <trkpt lat="48.40625" lon="2.63157">
        <ele>174.37202</ele>
        <time>2022-06-18T11:36:03.527Z</time>
      </trkpt>
      <trkpt lat="48.40641" lon="2.63153">
        <ele>174.797841</ele>
        <time>2022-06-18T11:36:07.415Z</time>
      </trkpt>
      <trkpt lat="48.4065" lon="2.63155">
        <ele>175.031385</ele>
        <time>2022-06-18T11:36:09.581Z</time>
      </trkpt>
      <trkpt lat="48.40655" lon="2.63169">
        <ele>175.295311</ele>
        <time>2022-06-18T11:36:12.073Z</time>
      </trkpt>
      <trkpt lat="48.40663" lon="2.63181">
        <ele>175.573811</ele>
        <time>2022-06-18T11:36:14.729Z</time>
      </trkpt>
      <trkpt lat="48.40671" lon="2.63191">
        <ele>175.856457</ele>
        <time>2022-06-18T11:36:17.249Z</time>
      </trkpt>
      <trkpt lat="48.40679" lon="2.63201">
        <ele>176.12045</ele>
        <time>2022-06-18T11:36:19.716Z</time>
      </trkpt>
      <trkpt lat="48.40685" lon="2.63212">
        <ele>176.366786</ele>
        <time>2022-06-18T11:36:21.976Z</time>
      </trkpt>
      <trkpt lat="48.40692" lon="2.63222">
        <ele>176.616213</ele>
        <time>2022-06-18T11:36:24.278Z</time>
      </trkpt>
      <trkpt lat="48.407" lon="2.6323">
        <ele>176.849519</ele>
        <time>2022-06-18T11:36:26.527Z</time>
      </trkpt>
      <trkpt lat="48.40709" lon="2.63239">
        <ele>177.136958</ele>
        <time>2022-06-18T11:36:29.128Z</time>
      </trkpt>
      <trkpt lat="48.4072" lon="2.63242">
        <ele>177.424248</ele>
        <time>2022-06-18T11:36:31.790Z</time>
      </trkpt>
      <trkpt lat="48.40731" lon="2.63246">
        <ele>177.700076</ele>
        <time>2022-06-18T11:36:34.442Z</time>
      </trkpt>
      <trkpt lat="48.40741" lon="2.63244">
        <ele>177.96079</ele>
        <time>2022-06-18T11:36:36.849Z</time>
      </trkpt>
      <trkpt lat="48.40752" lon="2.63245">
        <ele>178.235053</ele>
        <time>2022-06-18T11:36:39.447Z</time>
      </trkpt>
      <trkpt lat="48.40763" lon="2.63246">
        <ele>178.52577</ele>
        <time>2022-06-18T11:36:42.093Z</time>
      </trkpt>
      <trkpt lat="48.40776" lon="2.63246">
        <ele>178.848528</ele>
        <time>2022-06-18T11:36:45.157Z</time>
      </trkpt>
      <trkpt lat="48.40785" lon="2.63241">
        <ele>178.334888</ele>
        <time>2022-06-18T11:36:46.032Z</time>
      </trkpt>
      <trkpt lat="48.40798" lon="2.63239">
        <ele>177.594809</ele>
        <time>2022-06-18T11:36:47.194Z</time>
      </trkpt>
      <trkpt lat="48.40809" lon="2.63237">
        <ele>177.022461</ele>
        <time>2022-06-18T11:36:48.221Z</time>
      </trkpt>
      <trkpt lat="48.40819" lon="2.63235">
        <ele>176.441037</ele>
        <time>2022-06-18T11:36:49.110Z</time>
      </trkpt>
      <trkpt lat="48.40832" lon="2.63235">
        <ele>175.77322</ele>
        <time>2022-06-18T11:36:50.318Z</time>
      </trkpt>
      <trkpt lat="48.40841" lon="2.63232">
        <ele>175.26589</ele>
        <time>2022-06-18T11:36:51.149Z</time>
      </trkpt>
      <trkpt lat="48.4085" lon="2.63228">
        <ele>174.759403</ele>
        <time>2022-06-18T11:36:52.001Z</time>
      </trkpt>
      <trkpt lat="48.40858" lon="2.63222">
        <ele>174.262896</ele>
        <time>2022-06-18T11:36:52.803Z</time>
      </trkpt>
      <trkpt lat="48.40868" lon="2.63227">
        <ele>173.710243</ele>
        <time>2022-06-18T11:36:53.773Z</time>
      </trkpt>
      <trkpt lat="48.40877" lon="2.63229">
        <ele>173.197362</ele>
        <time>2022-06-18T11:36:54.583Z</time>
      </trkpt>
      <trkpt lat="48.40885" lon="2.63222">
        <ele>172.693035</ele>
        <time>2022-06-18T11:36:55.421Z</time>
      </trkpt>
      <trkpt lat="48.40894" lon="2.63213">
        <ele>172.107894</ele>
        <time>2022-06-18T11:36:56.401Z</time>
      </trkpt>
      <trkpt lat="48.40903" lon="2.63207">
        <ele>171.570033</ele>
        <time>2022-06-18T11:36:57.290Z</time>
      </trkpt>
      <trkpt lat="48.40913" lon="2.63201">
        <ele>170.98956</ele>
        <time>2022-06-18T11:36:58.269Z</time>
      </trkpt>
      <trkpt lat="48.40922" lon="2.63196">
        <ele>170.443225</ele>
        <time>2022-06-18T11:36:59.119Z</time>
      </trkpt>
      <trkpt lat="48.40931" lon="2.63191">
        <ele>169.945968</ele>
        <time>2022-06-18T11:37:00.007Z</time>
      </trkpt>
      <trkpt lat="48.4094" lon="2.6318">
        <ele>169.295457</ele>
        <time>2022-06-18T11:37:01.042Z</time>
      </trkpt>
      <trkpt lat="48.40947" lon="2.63169">
        <ele>169.074054</ele>
        <time>2022-06-18T11:37:02.300Z</time>
      </trkpt>
      <trkpt lat="48.40954" lon="2.63157">
        <ele>169.03937</ele>
        <time>2022-06-18T11:37:04.138Z</time>
      </trkpt>
      <trkpt lat="48.40963" lon="2.63148">
        <ele>169.004923</ele>
        <time>2022-06-18T11:37:06.013Z</time>
      </trkpt>
      <trkpt lat="48.40973" lon="2.63139">
        <ele>168.969003</ele>
        <time>2022-06-18T11:37:08.039Z</time>
      </trkpt>
      <trkpt lat="48.40981" lon="2.63127">
        <ele>168.933393</ele>
        <time>2022-06-18T11:37:09.999Z</time>
      </trkpt>
      <trkpt lat="48.40991" lon="2.63112">
        <ele>168.889096</ele>
        <time>2022-06-18T11:37:12.451Z</time>
      </trkpt>
      <trkpt lat="48.41" lon="2.63099">
        <ele>168.848586</ele>
        <time>2022-06-18T11:37:14.613Z</time>
      </trkpt>
      <trkpt lat="48.41009" lon="2.63086">
        <ele>168.80996</ele>
        <time>2022-06-18T11:37:16.781Z</time>
      </trkpt>
      <trkpt lat="48.41017" lon="2.63074">
        <ele>168.773547</ele>
        <time>2022-06-18T11:37:18.740Z</time>
      </trkpt>
      <trkpt lat="48.41026" lon="2.63061">
        <ele>168.733091</ele>
        <time>2022-06-18T11:37:20.902Z</time>
      </trkpt>
      <trkpt lat="48.41036" lon="2.63048">
        <ele>168.692028</ele>
        <time>2022-06-18T11:37:23.198Z</time>
      </trkpt>
      <trkpt lat="48.41045" lon="2.63037">
        <ele>168.654928</ele>
        <time>2022-06-18T11:37:25.209Z</time>
      </trkpt>
      <trkpt lat="48.41055" lon="2.63027">
        <ele>168.617699</ele>
        <time>2022-06-18T11:37:27.296Z</time>
      </trkpt>
      <trkpt lat="48.41064" lon="2.63015">
        <ele>168.579453</ele>
        <time>2022-06-18T11:37:29.382Z</time>
      </trkpt>
      <trkpt lat="48.41072" lon="2.63006">
        <ele>168.547158</ele>
        <time>2022-06-18T11:37:31.114Z</time>
      </trkpt>
      <trkpt lat="48.4108" lon="2.62995">
        <ele>168.633719</ele>
        <time>2022-06-18T11:37:33.242Z</time>
      </trkpt>
      <trkpt lat="48.41087" lon="2.62981">
        <ele>169.005475</ele>
        <time>2022-06-18T11:37:36.237Z</time>
      </trkpt>
      <trkpt lat="48.41094" lon="2.62968">
        <ele>169.37872</ele>
        <time>2022-06-18T11:37:39.159Z</time>
      </trkpt>
      <trkpt lat="48.41103" lon="2.62954">
        <ele>169.780719</ele>
        <time>2022-06-18T11:37:42.452Z</time>
      </trkpt>
      <trkpt lat="48.41111" lon="2.62941">
        <ele>170.169343</ele>
        <time>2022-06-18T11:37:45.523Z</time>
      </trkpt>
      <trkpt lat="48.41119" lon="2.62929">
        <ele>170.547112</ele>
        <time>2022-06-18T11:37:48.487Z</time>
      </trkpt>
      <trkpt lat="48.41127" lon="2.62917">
        <ele>170.935702</ele>
        <time>2022-06-18T11:37:51.489Z</time>
      </trkpt>
      <trkpt lat="48.41135" lon="2.62905">
        <ele>171.28041</ele>
        <time>2022-06-18T11:37:54.343Z</time>
      </trkpt>
      <trkpt lat="48.41141" lon="2.62893">
        <ele>171.637258</ele>
        <time>2022-06-18T11:37:57.044Z</time>
      </trkpt>
      <trkpt lat="48.41148" lon="2.6288">
        <ele>171.985375</ele>
        <time>2022-06-18T11:37:59.881Z</time>
      </trkpt>
      <trkpt lat="48.41155" lon="2.62869">
        <ele>172.32295</ele>
        <time>2022-06-18T11:38:02.534Z</time>
      </trkpt>
      <trkpt lat="48.41163" lon="2.62857">
        <ele>172.676003</ele>
        <time>2022-06-18T11:38:05.415Z</time>
      </trkpt>
      <trkpt lat="48.41172" lon="2.62846">
        <ele>173.073023</ele>
        <time>2022-06-18T11:38:08.490Z</time>
      </trkpt>
      <trkpt lat="48.41179" lon="2.62836">
        <ele>173.396286</ele>
        <time>2022-06-18T11:38:11.024Z</time>
      </trkpt>
      <trkpt lat="48.41188" lon="2.62824">
        <ele>173.780296</ele>
        <time>2022-06-18T11:38:14.118Z</time>
      </trkpt>
      <trkpt lat="48.41196" lon="2.62814">
        <ele>174.137946</ele>
        <time>2022-06-18T11:38:16.881Z</time>
      </trkpt>
      <trkpt lat="48.41205" lon="2.62801">
        <ele>174.379399</ele>
        <time>2022-06-18T11:38:19.641Z</time>
      </trkpt>
      <trkpt lat="48.41214" lon="2.6279">
        <ele>174.12222</ele>
        <time>2022-06-18T11:38:21.077Z</time>
      </trkpt>
      <trkpt lat="48.41222" lon="2.62778">
        <ele>173.877905</ele>
        <time>2022-06-18T11:38:22.485Z</time>
      </trkpt>
      <trkpt lat="48.41228" lon="2.62768">
        <ele>173.680408</ele>
        <time>2022-06-18T11:38:23.595Z</time>
      </trkpt>
      <trkpt lat="48.41234" lon="2.62757">
        <ele>173.473429</ele>
        <time>2022-06-18T11:38:24.770Z</time>
      </trkpt>
      <trkpt lat="48.41241" lon="2.62747">
        <ele>173.257468</ele>
        <time>2022-06-18T11:38:25.963Z</time>
      </trkpt>
      <trkpt lat="48.4125" lon="2.62738">
        <ele>173.037909</ele>
        <time>2022-06-18T11:38:27.330Z</time>
      </trkpt>
      <trkpt lat="48.41259" lon="2.62728">
        <ele>172.795737</ele>
        <time>2022-06-18T11:38:28.725Z</time>
      </trkpt>
      <trkpt lat="48.41266" lon="2.62719">
        <ele>172.589105</ele>
        <time>2022-06-18T11:38:29.862Z</time>
      </trkpt>
      <trkpt lat="48.41275" lon="2.62707">
        <ele>172.330805</ele>
        <time>2022-06-18T11:38:31.363Z</time>
      </trkpt>
      <trkpt lat="48.41282" lon="2.62697">
        <ele>172.115894</ele>
        <time>2022-06-18T11:38:32.557Z</time>
      </trkpt>
      <trkpt lat="48.4129" lon="2.62685">
        <ele>171.868674</ele>
        <time>2022-06-18T11:38:33.961Z</time>
      </trkpt>
      <trkpt lat="48.41298" lon="2.62677">
        <ele>171.657024</ele>
        <time>2022-06-18T11:38:35.153Z</time>
      </trkpt>
      <trkpt lat="48.41306" lon="2.62665">
        <ele>171.422116</ele>
        <time>2022-06-18T11:38:36.574Z</time>
      </trkpt>
      <trkpt lat="48.41311" lon="2.62654">
        <ele>171.217627</ele>
        <time>2022-06-18T11:38:37.659Z</time>
      </trkpt>
      <trkpt lat="48.41318" lon="2.62643">
        <ele>170.995368</ele>
        <time>2022-06-18T11:38:38.916Z</time>
      </trkpt>
      <trkpt lat="48.41325" lon="2.62633">
        <ele>170.792787</ele>
        <time>2022-06-18T11:38:40.128Z</time>
      </trkpt>
      <trkpt lat="48.41333" lon="2.62625">
        <ele>170.595069</ele>
        <time>2022-06-18T11:38:41.340Z</time>
      </trkpt>
      <trkpt lat="48.41339" lon="2.62615">
        <ele>170.100272</ele>
        <time>2022-06-18T11:38:42.144Z</time>
      </trkpt>
      <trkpt lat="48.41345" lon="2.62603">
        <ele>169.429348</ele>
        <time>2022-06-18T11:38:43.038Z</time>
      </trkpt>
      <trkpt lat="48.41352" lon="2.62592">
        <ele>168.766239</ele>
        <time>2022-06-18T11:38:43.876Z</time>
      </trkpt>
      <trkpt lat="48.41361" lon="2.62582">
        <ele>168.030961</ele>
        <time>2022-06-18T11:38:44.801Z</time>
      </trkpt>
      <trkpt lat="48.41368" lon="2.62573">
        <ele>167.389116</ele>
        <time>2022-06-18T11:38:45.626Z</time>
      </trkpt>
      <trkpt lat="48.41377" lon="2.62566">
        <ele>166.689589</ele>
        <time>2022-06-18T11:38:46.534Z</time>
      </trkpt>
      <trkpt lat="48.41386" lon="2.62558">
        <ele>166.027492</ele>
        <time>2022-06-18T11:38:47.415Z</time>
      </trkpt>
      <trkpt lat="48.41393" lon="2.6255">
        <ele>165.410335</ele>
        <time>2022-06-18T11:38:48.203Z</time>
      </trkpt>
      <trkpt lat="48.41402" lon="2.62543">
        <ele>164.749379</ele>
        <time>2022-06-18T11:38:49.044Z</time>
      </trkpt>
      <trkpt lat="48.41412" lon="2.62537">
        <ele>164.023469</ele>
        <time>2022-06-18T11:38:50.009Z</time>
      </trkpt>
      <trkpt lat="48.4142" lon="2.62531">
        <ele>163.41795</ele>
        <time>2022-06-18T11:38:50.810Z</time>
      </trkpt>
      <trkpt lat="48.41428" lon="2.62522">
        <ele>162.752241</ele>
        <time>2022-06-18T11:38:51.630Z</time>
      </trkpt>
      <trkpt lat="48.41437" lon="2.62515">
        <ele>162.061153</ele>
        <time>2022-06-18T11:38:52.538Z</time>
      </trkpt>
      <trkpt lat="48.41446" lon="2.6251">
        <ele>161.422021</ele>
        <time>2022-06-18T11:38:53.326Z</time>
      </trkpt>
      <trkpt lat="48.41455" lon="2.6251">
        <ele>160.81465</ele>
        <time>2022-06-18T11:38:54.133Z</time>
      </trkpt>
      <trkpt lat="48.41464" lon="2.62502">
        <ele>160.110785</ele>
        <time>2022-06-18T11:38:55.070Z</time>
      </trkpt>
      <trkpt lat="48.41472" lon="2.62495">
        <ele>159.45316</ele>
        <time>2022-06-18T11:38:55.900Z</time>
      </trkpt>
      <trkpt lat="48.41481" lon="2.6249">
        <ele>158.831493</ele>
        <time>2022-06-18T11:38:56.699Z</time>
      </trkpt>
      <trkpt lat="48.41491" lon="2.62486">
        <ele>158.324473</ele>
        <time>2022-06-18T11:38:57.680Z</time>
      </trkpt>
      <trkpt lat="48.415" lon="2.62482">
        <ele>158.138467</ele>
        <time>2022-06-18T11:38:58.876Z</time>
      </trkpt>
      <trkpt lat="48.41509" lon="2.62479">
        <ele>157.953886</ele>
        <time>2022-06-18T11:39:00.047Z</time>
      </trkpt>
      <trkpt lat="48.4152" lon="2.62473">
        <ele>157.749377</ele>
        <time>2022-06-18T11:39:01.579Z</time>
      </trkpt>
      <trkpt lat="48.4153" lon="2.62472">
        <ele>157.556114</ele>
        <time>2022-06-18T11:39:02.864Z</time>
      </trkpt>
      <trkpt lat="48.41539" lon="2.62472">
        <ele>157.371395</ele>
        <time>2022-06-18T11:39:04.000Z</time>
      </trkpt>
      <trkpt lat="48.4155" lon="2.62473">
        <ele>157.160694</ele>
        <time>2022-06-18T11:39:05.416Z</time>
      </trkpt>
      <trkpt lat="48.4156" lon="2.62477">
        <ele>156.980605</ele>
        <time>2022-06-18T11:39:06.772Z</time>
      </trkpt>
      <trkpt lat="48.41569" lon="2.62484">
        <ele>156.772407</ele>
        <time>2022-06-18T11:39:08.051Z</time>
      </trkpt>
      <trkpt lat="48.41576" lon="2.62493">
        <ele>156.599607</ele>
        <time>2022-06-18T11:39:09.238Z</time>
      </trkpt>
      <trkpt lat="48.41578" lon="2.62509">
        <ele>156.392928</ele>
        <time>2022-06-18T11:39:10.625Z</time>
      </trkpt>
      <trkpt lat="48.41582" lon="2.62524">
        <ele>156.190198</ele>
        <time>2022-06-18T11:39:12.007Z</time>
      </trkpt>
      <trkpt lat="48.41585" lon="2.62538">
        <ele>156.002965</ele>
        <time>2022-06-18T11:39:13.260Z</time>
      </trkpt>
      <trkpt lat="48.41591" lon="2.62555">
        <ele>155.756486</ele>
        <time>2022-06-18T11:39:14.898Z</time>
      </trkpt>
      <trkpt lat="48.41598" lon="2.62574">
        <ele>155.487173</ele>
        <time>2022-06-18T11:39:16.760Z</time>
      </trkpt>
      <trkpt lat="48.41601" lon="2.62587">
        <ele>155.305168</ele>
        <time>2022-06-18T11:39:17.922Z</time>
      </trkpt>
      <trkpt lat="48.41601" lon="2.62603">
        <ele>155.103884</ele>
        <time>2022-06-18T11:39:19.289Z</time>
      </trkpt>
      <trkpt lat="48.41595" lon="2.62613">
        <ele>155.140098</ele>
        <time>2022-06-18T11:39:20.981Z</time>
      </trkpt>
      <trkpt lat="48.41591" lon="2.62629">
        <ele>156.305001</ele>
        <time>2022-06-18T11:39:26.496Z</time>
      </trkpt>
      <trkpt lat="48.41585" lon="2.6265">
        <ele>157.790982</ele>
        <time>2022-06-18T11:39:33.539Z</time>
      </trkpt>
      <trkpt lat="48.41585" lon="2.62665">
        <ele>158.830756</ele>
        <time>2022-06-18T11:39:38.466Z</time>
      </trkpt>
      <trkpt lat="48.41583" lon="2.62684">
        <ele>160.096764</ele>
        <time>2022-06-18T11:39:44.462Z</time>
      </trkpt>
      <trkpt lat="48.41588" lon="2.62696">
        <ele>161.030192</ele>
        <time>2022-06-18T11:39:48.883Z</time>
      </trkpt>
      <trkpt lat="48.41594" lon="2.62714">
        <ele>162.400174</ele>
        <time>2022-06-18T11:39:55.369Z</time>
      </trkpt>
      <trkpt lat="48.41604" lon="2.6273">
        <ele>163.839983</ele>
        <time>2022-06-18T11:40:02.190Z</time>
      </trkpt>
      <trkpt lat="48.41618" lon="2.62744">
        <ele>165.535313</ele>
        <time>2022-06-18T11:40:10.216Z</time>
      </trkpt>
      <trkpt lat="48.41628" lon="2.62758">
        <ele>166.921706</ele>
        <time>2022-06-18T11:40:16.779Z</time>
      </trkpt>
      <trkpt lat="48.41638" lon="2.62771">
        <ele>168.214027</ele>
        <time>2022-06-18T11:40:22.904Z</time>
      </trkpt>
      <trkpt lat="48.41649" lon="2.62785">
        <ele>169.675235</ele>
        <time>2022-06-18T11:40:29.822Z</time>
      </trkpt>
      <trkpt lat="48.41659" lon="2.6279">
        <ele>170.771801</ele>
        <time>2022-06-18T11:40:35.017Z</time>
      </trkpt>
      <trkpt lat="48.41671" lon="2.62794">
        <ele>171.999482</ele>
        <time>2022-06-18T11:40:40.830Z</time>
      </trkpt>
      <trkpt lat="48.41685" lon="2.62796">
        <ele>173.169853</ele>
        <time>2022-06-18T11:40:46.553Z</time>
      </trkpt>
      <trkpt lat="48.41696" lon="2.62799">
        <ele>173.35415</ele>
        <time>2022-06-18T11:40:48.950Z</time>
      </trkpt>
      <trkpt lat="48.41707" lon="2.62804">
        <ele>173.54144</ele>
        <time>2022-06-18T11:40:51.409Z</time>
      </trkpt>
      <trkpt lat="48.41717" lon="2.6281">
        <ele>173.713474</ele>
        <time>2022-06-18T11:40:53.705Z</time>
      </trkpt>
      <trkpt lat="48.41728" lon="2.62815">
        <ele>173.90189</ele>
        <time>2022-06-18T11:40:56.167Z</time>
      </trkpt>
      <trkpt lat="48.41738" lon="2.62821">
        <ele>174.082241</ele>
        <time>2022-06-18T11:40:58.482Z</time>
      </trkpt>
      <trkpt lat="48.41747" lon="2.62825">
        <ele>174.232108</ele>
        <time>2022-06-18T11:41:00.483Z</time>
      </trkpt>
      <trkpt lat="48.41756" lon="2.62828">
        <ele>174.383827</ele>
        <time>2022-06-18T11:41:02.459Z</time>
      </trkpt>
      <trkpt lat="48.41766" lon="2.62832">
        <ele>174.553722</ele>
        <time>2022-06-18T11:41:04.677Z</time>
      </trkpt>
      <trkpt lat="48.41776" lon="2.62836">
        <ele>174.720698</ele>
        <time>2022-06-18T11:41:06.887Z</time>
      </trkpt>
      <trkpt lat="48.41787" lon="2.62839">
        <ele>174.901947</ele>
        <time>2022-06-18T11:41:09.278Z</time>
      </trkpt>
      <trkpt lat="48.41796" lon="2.62844">
        <ele>175.06371</ele>
        <time>2022-06-18T11:41:11.343Z</time>
      </trkpt>
      <trkpt lat="48.41808" lon="2.62849">
        <ele>175.256805</ele>
        <time>2022-06-18T11:41:13.986Z</time>
      </trkpt>
      <trkpt lat="48.41817" lon="2.62854">
        <ele>175.417209</ele>
        <time>2022-06-18T11:41:16.048Z</time>
      </trkpt>
      <trkpt lat="48.41826" lon="2.62857">
        <ele>175.565227</ele>
        <time>2022-06-18T11:41:18.016Z</time>
      </trkpt>
      <trkpt lat="48.41835" lon="2.6286">
        <ele>175.712874</ele>
        <time>2022-06-18T11:41:19.983Z</time>
      </trkpt>
      <trkpt lat="48.41844" lon="2.62864">
        <ele>175.867732</ele>
        <time>2022-06-18T11:41:21.995Z</time>
      </trkpt>
      <trkpt lat="48.41854" lon="2.62869">
        <ele>176.033279</ele>
        <time>2022-06-18T11:41:24.236Z</time>
      </trkpt>
      <trkpt lat="48.41862" lon="2.62873">
        <ele>175.276124</ele>
        <time>2022-06-18T11:41:24.992Z</time>
      </trkpt>
      <trkpt lat="48.41872" lon="2.62875">
        <ele>174.259846</ele>
        <time>2022-06-18T11:41:25.897Z</time>
      </trkpt>
      <trkpt lat="48.41881" lon="2.62883">
        <ele>173.260398</ele>
        <time>2022-06-18T11:41:26.833Z</time>
      </trkpt>
      <trkpt lat="48.41889" lon="2.62894">
        <ele>172.190193</ele>
        <time>2022-06-18T11:41:27.805Z</time>
      </trkpt>
      <trkpt lat="48.41896" lon="2.62904">
        <ele>171.258526</ele>
        <time>2022-06-18T11:41:28.670Z</time>
      </trkpt>
      <trkpt lat="48.41903" lon="2.62913">
        <ele>170.319284</ele>
        <time>2022-06-18T11:41:29.495Z</time>
      </trkpt>
      <trkpt lat="48.41913" lon="2.6292">
        <ele>169.225008</ele>
        <time>2022-06-18T11:41:30.483Z</time>
      </trkpt>
      <trkpt lat="48.41923" lon="2.6292">
        <ele>168.249631</ele>
        <time>2022-06-18T11:41:31.380Z</time>
      </trkpt>
      <trkpt lat="48.41931" lon="2.62912">
        <ele>167.300274</ele>
        <time>2022-06-18T11:41:32.241Z</time>
      </trkpt>
      <trkpt lat="48.41937" lon="2.62901">
        <ele>166.332687</ele>
        <time>2022-06-18T11:41:33.088Z</time>
      </trkpt>
      <trkpt lat="48.41944" lon="2.62891">
        <ele>165.396503</ele>
        <time>2022-06-18T11:41:33.953Z</time>
      </trkpt>
      <trkpt lat="48.41952" lon="2.62882">
        <ele>164.387169</ele>
        <time>2022-06-18T11:41:34.848Z</time>
      </trkpt>
      <trkpt lat="48.41954" lon="2.62868">
        <ele>163.450037</ele>
        <time>2022-06-18T11:41:35.701Z</time>
      </trkpt>
      <trkpt lat="48.4196" lon="2.62857">
        <ele>162.516163</ele>
        <time>2022-06-18T11:41:36.548Z</time>
      </trkpt>
      <trkpt lat="48.41969" lon="2.62854">
        <ele>161.576768</ele>
        <time>2022-06-18T11:41:37.374Z</time>
      </trkpt>
      <trkpt lat="48.41979" lon="2.62859">
        <ele>160.554935</ele>
        <time>2022-06-18T11:41:38.319Z</time>
      </trkpt>
      <trkpt lat="48.41988" lon="2.62868">
        <ele>159.455262</ele>
        <time>2022-06-18T11:41:39.288Z</time>
      </trkpt>
      <trkpt lat="48.41997" lon="2.62875">
        <ele>158.450464</ele>
        <time>2022-06-18T11:41:40.196Z</time>
      </trkpt>
      <trkpt lat="48.42006" lon="2.6288">
        <ele>157.636125</ele>
        <time>2022-06-18T11:41:41.056Z</time>
      </trkpt>
      <trkpt lat="48.42016" lon="2.62887">
        <ele>156.700745</ele>
        <time>2022-06-18T11:41:42.045Z</time>
      </trkpt>
      <trkpt lat="48.42025" lon="2.62894">
        <ele>155.881692</ele>
        <time>2022-06-18T11:41:42.953Z</time>
      </trkpt>
      <trkpt lat="48.42036" lon="2.62902">
        <ele>154.934006</ele>
        <time>2022-06-18T11:41:44.048Z</time>
      </trkpt>
      <trkpt lat="48.42044" lon="2.6291">
        <ele>154.141074</ele>
        <time>2022-06-18T11:41:44.909Z</time>
      </trkpt>
      <trkpt lat="48.42052" lon="2.62917">
        <ele>153.380225</ele>
        <time>2022-06-18T11:41:45.739Z</time>
      </trkpt>
      <trkpt lat="48.42061" lon="2.62925">
        <ele>152.523141</ele>
        <time>2022-06-18T11:41:46.676Z</time>
      </trkpt>
      <trkpt lat="48.4207" lon="2.62932">
        <ele>151.73052</ele>
        <time>2022-06-18T11:41:47.584Z</time>
      </trkpt>
      <trkpt lat="48.42079" lon="2.6294">
        <ele>150.833882</ele>
        <time>2022-06-18T11:41:48.521Z</time>
      </trkpt>
      <trkpt lat="48.42089" lon="2.62948">
        <ele>149.957303</ele>
        <time>2022-06-18T11:41:49.536Z</time>
      </trkpt>
      <trkpt lat="48.42097" lon="2.62955">
        <ele>149.162131</ele>
        <time>2022-06-18T11:41:50.365Z</time>
      </trkpt>
      <trkpt lat="48.42106" lon="2.62962">
        <ele>148.381835</ele>
        <time>2022-06-18T11:41:51.274Z</time>
      </trkpt>
      <trkpt lat="48.42117" lon="2.62969">
        <ele>147.44033</ele>
        <time>2022-06-18T11:41:52.344Z</time>
      </trkpt>
      <trkpt lat="48.42127" lon="2.62977">
        <ele>146.502363</ele>
        <time>2022-06-18T11:41:53.359Z</time>
      </trkpt>
      <trkpt lat="48.42135" lon="2.62983">
        <ele>145.721734</ele>
        <time>2022-06-18T11:41:54.161Z</time>
      </trkpt>
      <trkpt lat="48.42144" lon="2.62989">
        <ele>144.919484</ele>
        <time>2022-06-18T11:41:55.043Z</time>
      </trkpt>
      <trkpt lat="48.42153" lon="2.62997">
        <ele>144.091644</ele>
        <time>2022-06-18T11:41:55.980Z</time>
      </trkpt>
      <trkpt lat="48.42164" lon="2.63006">
        <ele>144.14455</ele>
        <time>2022-06-18T11:41:58.351Z</time>
      </trkpt>
      <trkpt lat="48.42174" lon="2.63013">
        <ele>145.382305</ele>
        <time>2022-06-18T11:42:04.280Z</time>
      </trkpt>
      <trkpt lat="48.42184" lon="2.63022">
        <ele>146.646005</ele>
        <time>2022-06-18T11:42:10.292Z</time>
      </trkpt>
      <trkpt lat="48.42193" lon="2.63028">
        <ele>147.805177</ele>
        <time>2022-06-18T11:42:15.929Z</time>
      </trkpt>
      <trkpt lat="48.42203" lon="2.63037">
        <ele>149.084099</ele>
        <time>2022-06-18T11:42:22.026Z</time>
      </trkpt>
      <trkpt lat="48.42212" lon="2.63046">
        <ele>150.267915</ele>
        <time>2022-06-18T11:42:27.668Z</time>
      </trkpt>
      <trkpt lat="48.42225" lon="2.63054">
        <ele>151.829213</ele>
        <time>2022-06-18T11:42:35.130Z</time>
      </trkpt>
      <trkpt lat="48.42235" lon="2.63062">
        <ele>153.043398</ele>
        <time>2022-06-18T11:42:40.898Z</time>
      </trkpt>
      <trkpt lat="48.42247" lon="2.63062">
        <ele>154.443446</ele>
        <time>2022-06-18T11:42:47.682Z</time>
      </trkpt>
      <trkpt lat="48.4226" lon="2.63063">
        <ele>155.81285</ele>
        <time>2022-06-18T11:42:54.174Z</time>
      </trkpt>
      <trkpt lat="48.42269" lon="2.63065">
        <ele>156.874882</ele>
        <time>2022-06-18T11:42:59.321Z</time>
      </trkpt>
      <trkpt lat="48.42278" lon="2.63062">
        <ele>157.914833</ele>
        <time>2022-06-18T11:43:04.309Z</time>
      </trkpt>
      <trkpt lat="48.42297" lon="2.63055">
        <ele>160.019916</ele>
        <time>2022-06-18T11:43:14.313Z</time>
      </trkpt>
      <trkpt lat="48.42306" lon="2.63053">
        <ele>161.087767</ele>
        <time>2022-06-18T11:43:19.499Z</time>
      </trkpt>
      <trkpt lat="48.42315" lon="2.6305">
        <ele>162.141429</ele>
        <time>2022-06-18T11:43:24.571Z</time>
      </trkpt>
      <trkpt lat="48.42327" lon="2.63048">
        <ele>163.457718</ele>
        <time>2022-06-18T11:43:30.838Z</time>
      </trkpt>
      <trkpt lat="48.4234" lon="2.63045">
        <ele>164.751616</ele>
        <time>2022-06-18T11:43:36.969Z</time>
      </trkpt>
      <trkpt lat="48.42355" lon="2.63044">
        <ele>166.403708</ele>
        <time>2022-06-18T11:43:44.848Z</time>
      </trkpt>
      <trkpt lat="48.42367" lon="2.63042">
        <ele>167.63229</ele>
        <time>2022-06-18T11:43:50.665Z</time>
      </trkpt>
      <trkpt lat="48.4238" lon="2.63037">
        <ele>168.980998</ele>
        <time>2022-06-18T11:43:57.050Z</time>
      </trkpt>
      <trkpt lat="48.42393" lon="2.63035">
        <ele>170.333441</ele>
        <time>2022-06-18T11:44:03.455Z</time>
      </trkpt>
      <trkpt lat="48.42405" lon="2.63034">
        <ele>171.632572</ele>
        <time>2022-06-18T11:44:09.633Z</time>
      </trkpt>
      <trkpt lat="48.42424" lon="2.63029">
        <ele>173.631621</ele>
        <time>2022-06-18T11:44:19.102Z</time>
      </trkpt>
      <trkpt lat="48.42436" lon="2.63026">
        <ele>174.805106</ele>
        <time>2022-06-18T11:44:24.670Z</time>
      </trkpt>
      <trkpt lat="48.4245" lon="2.63021">
        <ele>176.386662</ele>
        <time>2022-06-18T11:44:32.212Z</time>
      </trkpt>
      <trkpt lat="48.42462" lon="2.63019">
        <ele>177.56437</ele>
        <time>2022-06-18T11:44:37.795Z</time>
      </trkpt>
      <trkpt lat="48.42474" lon="2.63021">
        <ele>178.812964</ele>
        <time>2022-06-18T11:44:43.708Z</time>
      </trkpt>
      <trkpt lat="48.42487" lon="2.63014">
        <ele>180.307453</ele>
        <time>2022-06-18T11:44:50.816Z</time>
      </trkpt>
      <trkpt lat="48.42502" lon="2.63011">
        <ele>181.856139</ele>
        <time>2022-06-18T11:44:58.149Z</time>
      </trkpt>
      <trkpt lat="48.42519" lon="2.63008">
        <ele>182.216083</ele>
        <time>2022-06-18T11:45:02.009Z</time>
      </trkpt>
      <trkpt lat="48.42534" lon="2.63011">
        <ele>182.281829</ele>
        <time>2022-06-18T11:45:04.878Z</time>
      </trkpt>
      <trkpt lat="48.42548" lon="2.6301">
        <ele>182.343653</ele>
        <time>2022-06-18T11:45:07.537Z</time>
      </trkpt>
      <trkpt lat="48.42562" lon="2.63008">
        <ele>182.409844</ele>
        <time>2022-06-18T11:45:10.213Z</time>
      </trkpt>
      <trkpt lat="48.42575" lon="2.63005">
        <ele>182.465514</ele>
        <time>2022-06-18T11:45:12.704Z</time>
      </trkpt>
      <trkpt lat="48.42586" lon="2.63005">
        <ele>182.516124</ele>
        <time>2022-06-18T11:45:14.795Z</time>
      </trkpt>
      <trkpt lat="48.42597" lon="2.63001">
        <ele>182.565728</ele>
        <time>2022-06-18T11:45:16.942Z</time>
      </trkpt>
      <trkpt lat="48.4261" lon="2.62998">
        <ele>182.624772</ele>
        <time>2022-06-18T11:45:19.439Z</time>
      </trkpt>
      <trkpt lat="48.42622" lon="2.62998">
        <ele>182.679412</ele>
        <time>2022-06-18T11:45:21.719Z</time>
      </trkpt>
      <trkpt lat="48.42631" lon="2.62995">
        <ele>182.722639</ele>
        <time>2022-06-18T11:45:23.473Z</time>
      </trkpt>
      <trkpt lat="48.42642" lon="2.62996">
        <ele>182.772442</ele>
        <time>2022-06-18T11:45:25.566Z</time>
      </trkpt>
      <trkpt lat="48.42657" lon="2.62994">
        <ele>182.838026</ele>
        <time>2022-06-18T11:45:28.421Z</time>
      </trkpt>
      <trkpt lat="48.42669" lon="2.6299">
        <ele>182.892068</ele>
        <time>2022-06-18T11:45:30.753Z</time>
      </trkpt>
      <trkpt lat="48.4268" lon="2.62988">
        <ele>182.944638</ele>
        <time>2022-06-18T11:45:32.862Z</time>
      </trkpt>
      <trkpt lat="48.42698" lon="2.62989">
        <ele>183.320416</ele>
        <time>2022-06-18T11:45:36.916Z</time>
      </trkpt>
      <trkpt lat="48.42711" lon="2.62982">
        <ele>183.642752</ele>
        <time>2022-06-18T11:45:40.114Z</time>
      </trkpt>
      <trkpt lat="48.42722" lon="2.62979">
        <ele>183.931515</ele>
        <time>2022-06-18T11:45:42.780Z</time>
      </trkpt>
      <trkpt lat="48.42731" lon="2.62977">
        <ele>184.157417</ele>
        <time>2022-06-18T11:45:44.924Z</time>
      </trkpt>
      <trkpt lat="48.42742" lon="2.62977">
        <ele>184.432017</ele>
        <time>2022-06-18T11:45:47.521Z</time>
      </trkpt>
      <trkpt lat="48.42753" lon="2.62974">
        <ele>184.688848</ele>
        <time>2022-06-18T11:45:50.098Z</time>
      </trkpt>
      <trkpt lat="48.42764" lon="2.62974">
        <ele>184.956037</ele>
        <time>2022-06-18T11:45:52.674Z</time>
      </trkpt>
      <trkpt lat="48.42776" lon="2.62973">
        <ele>185.250712</ele>
        <time>2022-06-18T11:45:55.496Z</time>
      </trkpt>
      <trkpt lat="48.42785" lon="2.62969">
        <ele>185.480515</ele>
        <time>2022-06-18T11:45:57.699Z</time>
      </trkpt>
      <trkpt lat="48.42795" lon="2.62973">
        <ele>185.729038</ele>
        <time>2022-06-18T11:46:00.114Z</time>
      </trkpt>
      <trkpt lat="48.42802" lon="2.62984">
        <ele>185.98333</ele>
        <time>2022-06-18T11:46:02.506Z</time>
      </trkpt>
      <trkpt lat="48.42808" lon="2.62998">
        <ele>186.258508</ele>
        <time>2022-06-18T11:46:05.114Z</time>
      </trkpt>
      <trkpt lat="48.42812" lon="2.63018">
        <ele>186.592884</ele>
        <time>2022-06-18T11:46:08.354Z</time>
      </trkpt>
      <trkpt lat="48.42819" lon="2.63033">
        <ele>186.891078</ele>
        <time>2022-06-18T11:46:11.211Z</time>
      </trkpt>
      <trkpt lat="48.42825" lon="2.63045">
        <ele>187.14083</ele>
        <time>2022-06-18T11:46:13.567Z</time>
      </trkpt>
      <trkpt lat="48.42833" lon="2.63058">
        <ele>187.325169</ele>
        <time>2022-06-18T11:46:16.068Z</time>
      </trkpt>
      <trkpt lat="48.42836" lon="2.63075">
        <ele>187.147401</ele>
        <time>2022-06-18T11:46:17.639Z</time>
      </trkpt>
      <trkpt lat="48.42842" lon="2.63088">
        <ele>186.986359</ele>
        <time>2022-06-18T11:46:19.052Z</time>
      </trkpt>
      <trkpt lat="48.42846" lon="2.63101">
        <ele>186.824151</ele>
        <time>2022-06-18T11:46:20.304Z</time>
      </trkpt>
      <trkpt lat="48.42853" lon="2.63118">
        <ele>186.62068</ele>
        <time>2022-06-18T11:46:22.089Z</time>
      </trkpt>
      <trkpt lat="48.42857" lon="2.63136">
        <ele>186.427264</ele>
        <time>2022-06-18T11:46:23.782Z</time>
      </trkpt>
      <trkpt lat="48.42865" lon="2.63152">
        <ele>186.21684</ele>
        <time>2022-06-18T11:46:25.559Z</time>
      </trkpt>
      <trkpt lat="48.42869" lon="2.63164">
        <ele>186.074604</ele>
        <time>2022-06-18T11:46:26.748Z</time>
      </trkpt>
      <trkpt lat="48.42873" lon="2.63181">
        <ele>185.878455</ele>
        <time>2022-06-18T11:46:28.336Z</time>
      </trkpt>
      <trkpt lat="48.42879" lon="2.63194">
        <ele>185.721795</ele>
        <time>2022-06-18T11:46:29.757Z</time>
      </trkpt>
      <trkpt lat="48.42884" lon="2.63211">
        <ele>185.514684</ele>
        <time>2022-06-18T11:46:31.386Z</time>
      </trkpt>
      <trkpt lat="48.42889" lon="2.63226">
        <ele>185.339864</ele>
        <time>2022-06-18T11:46:32.877Z</time>
      </trkpt>
      <trkpt lat="48.42894" lon="2.6324">
        <ele>185.172579</ele>
        <time>2022-06-18T11:46:34.287Z</time>
      </trkpt>
      <trkpt lat="48.42903" lon="2.63256">
        <ele>184.954144</ele>
        <time>2022-06-18T11:46:36.150Z</time>
      </trkpt>
      <trkpt lat="48.4291" lon="2.6327">
        <ele>184.766146</ele>
        <time>2022-06-18T11:46:37.698Z</time>
      </trkpt>
      <trkpt lat="48.42919" lon="2.63286">
        <ele>184.552314</ele>
        <time>2022-06-18T11:46:39.569Z</time>
      </trkpt>
      <trkpt lat="48.42924" lon="2.63305">
        <ele>184.499752</ele>
        <time>2022-06-18T11:46:41.900Z</time>
      </trkpt>
      <trkpt lat="48.42928" lon="2.63319">
        <ele>184.48227</ele>
        <time>2022-06-18T11:46:43.694Z</time>
      </trkpt>
      <trkpt lat="48.42934" lon="2.63332">
        <ele>184.463545</ele>
        <time>2022-06-18T11:46:45.556Z</time>
      </trkpt>
      <trkpt lat="48.42941" lon="2.63349">
        <ele>184.440278</ele>
        <time>2022-06-18T11:46:47.910Z</time>
      </trkpt>
      <trkpt lat="48.42947" lon="2.63369">
        <ele>184.415275</ele>
        <time>2022-06-18T11:46:50.494Z</time>
      </trkpt>
      <trkpt lat="48.42954" lon="2.63384">
        <ele>184.393558</ele>
        <time>2022-06-18T11:46:52.650Z</time>
      </trkpt>
      <trkpt lat="48.42959" lon="2.63396">
        <ele>184.377059</ele>
        <time>2022-06-18T11:46:54.317Z</time>
      </trkpt>
      <trkpt lat="48.42965" lon="2.6341">
        <ele>184.356988</ele>
        <time>2022-06-18T11:46:56.276Z</time>
      </trkpt>
      <trkpt lat="48.42971" lon="2.63425">
        <ele>184.336524</ele>
        <time>2022-06-18T11:46:58.337Z</time>
      </trkpt>
      <trkpt lat="48.42977" lon="2.63439">
        <ele>184.318204</ele>
        <time>2022-06-18T11:47:00.300Z</time>
      </trkpt>
      <trkpt lat="48.42981" lon="2.63455">
        <ele>184.298546</ele>
        <time>2022-06-18T11:47:02.313Z</time>
      </trkpt>
      <trkpt lat="48.42987" lon="2.63466">
        <ele>184.28113</ele>
        <time>2022-06-18T11:47:03.986Z</time>
      </trkpt>
      <trkpt lat="48.42993" lon="2.63479">
        <ele>184.26231</ele>
        <time>2022-06-18T11:47:05.848Z</time>
      </trkpt>
      <trkpt lat="48.42999" lon="2.63493">
        <ele>184.243982</ele>
        <time>2022-06-18T11:47:07.811Z</time>
      </trkpt>
      <trkpt lat="48.43005" lon="2.63508">
        <ele>184.22341</ele>
        <time>2022-06-18T11:47:09.871Z</time>
      </trkpt>
      <trkpt lat="48.43015" lon="2.63514">
        <ele>184.205158</ele>
        <time>2022-06-18T11:47:11.782Z</time>
      </trkpt>
      <trkpt lat="48.4302" lon="2.63495">
        <ele>184.277603</ele>
        <time>2022-06-18T11:47:14.378Z</time>
      </trkpt>
      <trkpt lat="48.43022" lon="2.63477">
        <ele>184.345231</ele>
        <time>2022-06-18T11:47:16.702Z</time>
      </trkpt>
      <trkpt lat="48.43024" lon="2.63459">
        <ele>184.410538</ele>
        <time>2022-06-18T11:47:19.021Z</time>
      </trkpt>
      <trkpt lat="48.43032" lon="2.6344">
        <ele>184.491748</ele>
        <time>2022-06-18T11:47:21.882Z</time>
      </trkpt>
      <trkpt lat="48.43038" lon="2.63428">
        <ele>184.548386</ele>
        <time>2022-06-18T11:47:23.797Z</time>
      </trkpt>
      <trkpt lat="48.43043" lon="2.63413">
        <ele>184.609986</ele>
        <time>2022-06-18T11:47:25.933Z</time>
      </trkpt>
      <trkpt lat="48.43048" lon="2.63396">
        <ele>184.675305</ele>
        <time>2022-06-18T11:47:28.294Z</time>
      </trkpt>
      <trkpt lat="48.43054" lon="2.63383">
        <ele>184.733743</ele>
        <time>2022-06-18T11:47:30.310Z</time>
      </trkpt>
      <trkpt lat="48.43057" lon="2.6337">
        <ele>184.783979</ele>
        <time>2022-06-18T11:47:32.061Z</time>
      </trkpt>
      <trkpt lat="48.43058" lon="2.63357">
        <ele>184.834957</ele>
        <time>2022-06-18T11:47:33.732Z</time>
      </trkpt>
      <trkpt lat="48.4306" lon="2.63342">
        <ele>184.887833</ele>
        <time>2022-06-18T11:47:35.673Z</time>
      </trkpt>
      <trkpt lat="48.43062" lon="2.63328">
        <ele>184.940956</ele>
        <time>2022-06-18T11:47:37.497Z</time>
      </trkpt>
      <trkpt lat="48.43063" lon="2.63311">
        <ele>185.003666</ele>
        <time>2022-06-18T11:47:39.669Z</time>
      </trkpt>
      <trkpt lat="48.43064" lon="2.63297">
        <ele>185.053181</ele>
        <time>2022-06-18T11:47:41.457Z</time>
      </trkpt>
      <trkpt lat="48.43068" lon="2.63282">
        <ele>185.11104</ele>
        <time>2022-06-18T11:47:43.511Z</time>
      </trkpt>
      <trkpt lat="48.43069" lon="2.63268">
        <ele>185.162894</ele>
        <time>2022-06-18T11:47:45.303Z</time>
      </trkpt>
      <trkpt lat="48.43073" lon="2.63256">
        <ele>184.960437</ele>
        <time>2022-06-18T11:47:46.401Z</time>
      </trkpt>
      <trkpt lat="48.43077" lon="2.63242">
        <ele>184.312949</ele>
        <time>2022-06-18T11:47:47.249Z</time>
      </trkpt>
      <trkpt lat="48.4308" lon="2.63227">
        <ele>183.668108</ele>
        <time>2022-06-18T11:47:48.134Z</time>
      </trkpt>
      <trkpt lat="48.43078" lon="2.63214">
        <ele>183.074027</ele>
        <time>2022-06-18T11:47:48.928Z</time>
      </trkpt>
      <trkpt lat="48.43083" lon="2.63201">
        <ele>182.470144</ele>
        <time>2022-06-18T11:47:49.786Z</time>
      </trkpt>
      <trkpt lat="48.43087" lon="2.63188">
        <ele>181.820684</ele>
        <time>2022-06-18T11:47:50.639Z</time>
      </trkpt>
      <trkpt lat="48.43091" lon="2.63175">
        <ele>181.234458</ele>
        <time>2022-06-18T11:47:51.451Z</time>
      </trkpt>
      <trkpt lat="48.43093" lon="2.63161">
        <ele>180.629331</ele>
        <time>2022-06-18T11:47:52.249Z</time>
      </trkpt>
      <trkpt lat="48.43094" lon="2.63146">
        <ele>179.994165</ele>
        <time>2022-06-18T11:47:53.091Z</time>
      </trkpt>
      <trkpt lat="48.43095" lon="2.63133">
        <ele>179.417995</ele>
        <time>2022-06-18T11:47:53.806Z</time>
      </trkpt>
      <trkpt lat="48.43099" lon="2.63117">
        <ele>178.709151</ele>
        <time>2022-06-18T11:47:54.769Z</time>
      </trkpt>
      <trkpt lat="48.43103" lon="2.63103">
        <ele>178.058433</ele>
        <time>2022-06-18T11:47:55.615Z</time>
      </trkpt>
      <trkpt lat="48.43107" lon="2.63089">
        <ele>177.403466</ele>
        <time>2022-06-18T11:47:56.458Z</time>
      </trkpt>
      <trkpt lat="48.43107" lon="2.63073">
        <ele>176.713755</ele>
        <time>2022-06-18T11:47:57.341Z</time>
      </trkpt>
      <trkpt lat="48.4311" lon="2.6306">
        <ele>176.135556</ele>
        <time>2022-06-18T11:47:58.111Z</time>
      </trkpt>
      <trkpt lat="48.43112" lon="2.63046">
        <ele>175.529726</ele>
        <time>2022-06-18T11:47:58.909Z</time>
      </trkpt>
      <trkpt lat="48.43118" lon="2.63031">
        <ele>174.804868</ele>
        <time>2022-06-18T11:47:59.896Z</time>
      </trkpt>
      <trkpt lat="48.4312" lon="2.63015">
        <ele>174.098429</ele>
        <time>2022-06-18T11:48:00.792Z</time>
      </trkpt>
      <trkpt lat="48.43124" lon="2.63">
        <ele>173.559042</ele>
        <time>2022-06-18T11:48:01.798Z</time>
      </trkpt>
      <trkpt lat="48.43128" lon="2.62983">
        <ele>173.202725</ele>
        <time>2022-06-18T11:48:03.162Z</time>
      </trkpt>
      <trkpt lat="48.43134" lon="2.62962">
        <ele>172.761535</ele>
        <time>2022-06-18T11:48:04.905Z</time>
      </trkpt>
      <trkpt lat="48.43138" lon="2.62942">
        <ele>172.36245</ele>
        <time>2022-06-18T11:48:06.502Z</time>
      </trkpt>
      <trkpt lat="48.43143" lon="2.62925">
        <ele>172.008497</ele>
        <time>2022-06-18T11:48:07.925Z</time>
      </trkpt>
      <trkpt lat="48.43147" lon="2.62908">
        <ele>171.652951</ele>
        <time>2022-06-18T11:48:09.291Z</time>
      </trkpt>
      <trkpt lat="48.43151" lon="2.6289">
        <ele>171.28311</ele>
        <time>2022-06-18T11:48:10.733Z</time>
      </trkpt>
      <trkpt lat="48.43155" lon="2.62874">
        <ele>170.958401</ele>
        <time>2022-06-18T11:48:12.043Z</time>
      </trkpt>
      <trkpt lat="48.43158" lon="2.62861">
        <ele>170.688837</ele>
        <time>2022-06-18T11:48:13.087Z</time>
      </trkpt>
      <trkpt lat="48.43161" lon="2.62845">
        <ele>170.378443</ele>
        <time>2022-06-18T11:48:14.367Z</time>
      </trkpt>
      <trkpt lat="48.43163" lon="2.62832">
        <ele>170.112603</ele>
        <time>2022-06-18T11:48:15.374Z</time>
      </trkpt>
      <trkpt lat="48.4317" lon="2.6282">
        <ele>169.808078</ele>
        <time>2022-06-18T11:48:16.597Z</time>
      </trkpt>
      <trkpt lat="48.4317" lon="2.62805">
        <ele>169.529596</ele>
        <time>2022-06-18T11:48:17.753Z</time>
      </trkpt>
      <trkpt lat="48.43171" lon="2.62791">
        <ele>169.24919</ele>
        <time>2022-06-18T11:48:18.816Z</time>
      </trkpt>
      <trkpt lat="48.43177" lon="2.62778">
        <ele>168.953012</ele>
        <time>2022-06-18T11:48:20.034Z</time>
      </trkpt>
      <trkpt lat="48.43182" lon="2.62765">
        <ele>168.665775</ele>
        <time>2022-06-18T11:48:21.183Z</time>
      </trkpt>
      <trkpt lat="48.43183" lon="2.62751">
        <ele>168.456903</ele>
        <time>2022-06-18T11:48:22.339Z</time>
      </trkpt>
      <trkpt lat="48.43195" lon="2.62705">
        <ele>168.921701</ele>
        <time>2022-06-18T11:48:29.201Z</time>
      </trkpt>
      <trkpt lat="48.43199" lon="2.6269">
        <ele>169.069385</ele>
        <time>2022-06-18T11:48:31.435Z</time>
      </trkpt>
      <trkpt lat="48.43202" lon="2.62672">
        <ele>169.247119</ele>
        <time>2022-06-18T11:48:34.019Z</time>
      </trkpt>
      <trkpt lat="48.43206" lon="2.62655">
        <ele>169.419169</ele>
        <time>2022-06-18T11:48:36.529Z</time>
      </trkpt>
      <trkpt lat="48.4321" lon="2.62638">
        <ele>169.587385</ele>
        <time>2022-06-18T11:48:39.030Z</time>
      </trkpt>
      <trkpt lat="48.43212" lon="2.62623">
        <ele>169.723947</ele>
        <time>2022-06-18T11:48:41.138Z</time>
      </trkpt>
      <trkpt lat="48.43211" lon="2.62607">
        <ele>169.877228</ele>
        <time>2022-06-18T11:48:43.374Z</time>
      </trkpt>
      <trkpt lat="48.43213" lon="2.6259">
        <ele>170.037427</ele>
        <time>2022-06-18T11:48:45.766Z</time>
      </trkpt>
      <trkpt lat="48.43221" lon="2.62584">
        <ele>170.166996</ele>
        <time>2022-06-18T11:48:47.642Z</time>
      </trkpt>
      <trkpt lat="48.43222" lon="2.62567">
        <ele>170.324003</ele>
        <time>2022-06-18T11:48:50.004Z</time>
      </trkpt>
      <trkpt lat="48.43221" lon="2.6255">
        <ele>170.485989</ele>
        <time>2022-06-18T11:48:52.376Z</time>
      </trkpt>
      <trkpt lat="48.43228" lon="2.62538">
        <ele>170.63365</ele>
        <time>2022-06-18T11:48:54.589Z</time>
      </trkpt>
      <trkpt lat="48.43232" lon="2.62525">
        <ele>170.773987</ele>
        <time>2022-06-18T11:48:56.591Z</time>
      </trkpt>
      <trkpt lat="48.43234" lon="2.62511">
        <ele>170.905925</ele>
        <time>2022-06-18T11:48:58.573Z</time>
      </trkpt>
      <trkpt lat="48.43231" lon="2.62498">
        <ele>170.90397</ele>
        <time>2022-06-18T11:49:00.230Z</time>
      </trkpt>
      <trkpt lat="48.43233" lon="2.62484">
        <ele>170.706342</ele>
        <time>2022-06-18T11:49:01.427Z</time>
      </trkpt>
      <trkpt lat="48.43234" lon="2.6247">
        <ele>170.521305</ele>
        <time>2022-06-18T11:49:02.617Z</time>
      </trkpt>
      <trkpt lat="48.43234" lon="2.62456">
        <ele>170.331635</ele>
        <time>2022-06-18T11:49:03.792Z</time>
      </trkpt>
      <trkpt lat="48.43236" lon="2.62443">
        <ele>170.145315</ele>
        <time>2022-06-18T11:49:04.904Z</time>
      </trkpt>
      <trkpt lat="48.43239" lon="2.6243">
        <ele>169.959643</ele>
        <time>2022-06-18T11:49:06.060Z</time>
      </trkpt>
      <trkpt lat="48.43237" lon="2.62416">
        <ele>169.761591</ele>
        <time>2022-06-18T11:49:07.256Z</time>
      </trkpt>
      <trkpt lat="48.43235" lon="2.62401">
        <ele>169.55325</ele>
        <time>2022-06-18T11:49:08.538Z</time>
      </trkpt>
      <trkpt lat="48.43235" lon="2.62385">
        <ele>169.350223</ele>
        <time>2022-06-18T11:49:09.901Z</time>
      </trkpt>
      <trkpt lat="48.43242" lon="2.62375">
        <ele>169.153433</ele>
        <time>2022-06-18T11:49:11.122Z</time>
      </trkpt>
      <trkpt lat="48.4325" lon="2.62387">
        <ele>168.931387</ele>
        <time>2022-06-18T11:49:12.562Z</time>
      </trkpt>
      <trkpt lat="48.4325" lon="2.62404">
        <ele>168.699915</ele>
        <time>2022-06-18T11:49:13.987Z</time>
      </trkpt>
      <trkpt lat="48.43251" lon="2.62418">
        <ele>168.511708</ele>
        <time>2022-06-18T11:49:15.172Z</time>
      </trkpt>
      <trkpt lat="48.43253" lon="2.62433">
        <ele>168.303752</ele>
        <time>2022-06-18T11:49:16.455Z</time>
      </trkpt>
      <trkpt lat="48.43255" lon="2.62448">
        <ele>168.098075</ele>
        <time>2022-06-18T11:49:17.741Z</time>
      </trkpt>
      <trkpt lat="48.43258" lon="2.62461">
        <ele>167.907295</ele>
        <time>2022-06-18T11:49:18.890Z</time>
      </trkpt>
      <trkpt lat="48.43259" lon="2.62478">
        <ele>167.687912</ele>
        <time>2022-06-18T11:49:20.340Z</time>
      </trkpt>
      <trkpt lat="48.43259" lon="2.62493">
        <ele>167.488919</ele>
        <time>2022-06-18T11:49:21.605Z</time>
      </trkpt>
      <trkpt lat="48.43265" lon="2.62504">
        <ele>167.179838</ele>
        <time>2022-06-18T11:49:22.650Z</time>
      </trkpt>
      <trkpt lat="48.43272" lon="2.62515">
        <ele>166.484245</ele>
        <time>2022-06-18T11:49:23.557Z</time>
      </trkpt>
      <trkpt lat="48.43263" lon="2.62509">
        <ele>165.840018</ele>
        <time>2022-06-18T11:49:24.373Z</time>
      </trkpt>
      <trkpt lat="48.4326" lon="2.62496">
        <ele>165.201268</ele>
        <time>2022-06-18T11:49:25.192Z</time>
      </trkpt>
      <trkpt lat="48.43259" lon="2.62482">
        <ele>164.553542</ele>
        <time>2022-06-18T11:49:26.029Z</time>
      </trkpt>
      <trkpt lat="48.43258" lon="2.62468">
        <ele>163.903906</ele>
        <time>2022-06-18T11:49:26.867Z</time>
      </trkpt>
      <trkpt lat="48.43255" lon="2.62453">
        <ele>163.160439</ele>
        <time>2022-06-18T11:49:27.799Z</time>
      </trkpt>
      <trkpt lat="48.43253" lon="2.62439">
        <ele>162.524906</ele>
        <time>2022-06-18T11:49:28.651Z</time>
      </trkpt>
      <trkpt lat="48.4325" lon="2.62426">
        <ele>161.897311</ele>
        <time>2022-06-18T11:49:29.470Z</time>
      </trkpt>
      <trkpt lat="48.4325" lon="2.62411">
        <ele>161.208099</ele>
        <time>2022-06-18T11:49:30.362Z</time>
      </trkpt>
      <trkpt lat="48.43251" lon="2.62397">
        <ele>160.560373</ele>
        <time>2022-06-18T11:49:31.200Z</time>
      </trkpt>
      <trkpt lat="48.43258" lon="2.62386">
        <ele>159.846804</ele>
        <time>2022-06-18T11:49:32.107Z</time>
      </trkpt>
      <trkpt lat="48.43266" lon="2.62392">
        <ele>159.198706</ele>
        <time>2022-06-18T11:49:32.908Z</time>
      </trkpt>
      <trkpt lat="48.43274" lon="2.624">
        <ele>158.556784</ele>
        <time>2022-06-18T11:49:33.769Z</time>
      </trkpt>
      <trkpt lat="48.43282" lon="2.62409">
        <ele>157.872794</ele>
        <time>2022-06-18T11:49:34.664Z</time>
      </trkpt>
      <trkpt lat="48.4329" lon="2.62417">
        <ele>157.17776</ele>
        <time>2022-06-18T11:49:35.525Z</time>
      </trkpt>
      <trkpt lat="48.43299" lon="2.62422">
        <ele>156.534379</ele>
        <time>2022-06-18T11:49:36.385Z</time>
      </trkpt>
      <trkpt lat="48.43309" lon="2.62424">
        <ele>155.818034</ele>
        <time>2022-06-18T11:49:37.290Z</time>
      </trkpt>
      <trkpt lat="48.43318" lon="2.62422">
        <ele>155.174374</ele>
        <time>2022-06-18T11:49:38.105Z</time>
      </trkpt>
      <trkpt lat="48.43328" lon="2.62421">
        <ele>154.471595</ele>
        <time>2022-06-18T11:49:39.004Z</time>
      </trkpt>
      <trkpt lat="48.43337" lon="2.62414">
        <ele>153.655144</ele>
        <time>2022-06-18T11:49:39.912Z</time>
      </trkpt>
      <trkpt lat="48.43345" lon="2.62405">
        <ele>152.829286</ele>
        <time>2022-06-18T11:49:40.807Z</time>
      </trkpt>
      <trkpt lat="48.43356" lon="2.62402">
        <ele>151.93988</ele>
        <time>2022-06-18T11:49:41.810Z</time>
      </trkpt>
      <trkpt lat="48.43366" lon="2.62403">
        <ele>151.145173</ele>
        <time>2022-06-18T11:49:42.708Z</time>
      </trkpt>
      <trkpt lat="48.43376" lon="2.62405">
        <ele>150.315338</ele>
        <time>2022-06-18T11:49:43.613Z</time>
      </trkpt>
      <trkpt lat="48.43384" lon="2.62411">
        <ele>149.542427</ele>
        <time>2022-06-18T11:49:44.414Z</time>
      </trkpt>
      <trkpt lat="48.43392" lon="2.62419">
        <ele>148.804087</ele>
        <time>2022-06-18T11:49:45.275Z</time>
      </trkpt>
      <trkpt lat="48.43399" lon="2.62427">
        <ele>148.064622</ele>
        <time>2022-06-18T11:49:46.062Z</time>
      </trkpt>
      <trkpt lat="48.43409" lon="2.62432">
        <ele>147.20157</ele>
        <time>2022-06-18T11:49:47.007Z</time>
      </trkpt>
      <trkpt lat="48.43418" lon="2.62443">
        <ele>146.31955</ele>
        <time>2022-06-18T11:49:48.046Z</time>
      </trkpt>
      <trkpt lat="48.43425" lon="2.62454">
        <ele>145.488356</ele>
        <time>2022-06-18T11:49:48.953Z</time>
      </trkpt>
      <trkpt lat="48.43432" lon="2.62464">
        <ele>144.695771</ele>
        <time>2022-06-18T11:49:49.818Z</time>
      </trkpt>
      <trkpt lat="48.43443" lon="2.62462">
        <ele>143.831517</ele>
        <time>2022-06-18T11:49:50.811Z</time>
      </trkpt>
      <trkpt lat="48.43452" lon="2.62462">
        <ele>143.093413</ele>
        <time>2022-06-18T11:49:51.618Z</time>
      </trkpt>
      <trkpt lat="48.43461" lon="2.62461">
        <ele>142.322724</ele>
        <time>2022-06-18T11:49:52.427Z</time>
      </trkpt>
      <trkpt lat="48.43471" lon="2.62462">
        <ele>141.559682</ele>
        <time>2022-06-18T11:49:53.326Z</time>
      </trkpt>
      <trkpt lat="48.4348" lon="2.62461">
        <ele>140.79664</ele>
        <time>2022-06-18T11:49:54.135Z</time>
      </trkpt>
      <trkpt lat="48.4349" lon="2.62456">
        <ele>140.092416</ele>
        <time>2022-06-18T11:49:55.080Z</time>
      </trkpt>
      <trkpt lat="48.43499" lon="2.62461">
        <ele>139.595489</ele>
        <time>2022-06-18T11:49:55.968Z</time>
      </trkpt>
      <trkpt lat="48.43512" lon="2.62457">
        <ele>138.952896</ele>
        <time>2022-06-18T11:49:57.233Z</time>
      </trkpt>
      <trkpt lat="48.43523" lon="2.62452">
        <ele>138.393251</ele>
        <time>2022-06-18T11:49:58.325Z</time>
      </trkpt>
      <trkpt lat="48.43532" lon="2.62454">
        <ele>137.92961</ele>
        <time>2022-06-18T11:49:59.173Z</time>
      </trkpt>
      <trkpt lat="48.43541" lon="2.62454">
        <ele>137.45265</ele>
        <time>2022-06-18T11:49:59.998Z</time>
      </trkpt>
      <trkpt lat="48.43551" lon="2.62453">
        <ele>136.964309</ele>
        <time>2022-06-18T11:50:00.951Z</time>
      </trkpt>
      <trkpt lat="48.4356" lon="2.62446">
        <ele>136.477025</ele>
        <time>2022-06-18T11:50:01.919Z</time>
      </trkpt>
      <trkpt lat="48.43569" lon="2.62436">
        <ele>135.895985</ele>
        <time>2022-06-18T11:50:02.953Z</time>
      </trkpt>
      <trkpt lat="48.43578" lon="2.62426">
        <ele>135.334813</ele>
        <time>2022-06-18T11:50:04.002Z</time>
      </trkpt>
      <trkpt lat="48.43591" lon="2.62423">
        <ele>134.669967</ele>
        <time>2022-06-18T11:50:05.233Z</time>
      </trkpt>
      <trkpt lat="48.43603" lon="2.6242">
        <ele>134.067104</ele>
        <time>2022-06-18T11:50:06.381Z</time>
      </trkpt>
      <trkpt lat="48.43616" lon="2.62418">
        <ele>133.420306</ele>
        <time>2022-06-18T11:50:07.615Z</time>
      </trkpt>
      <trkpt lat="48.43625" lon="2.62418">
        <ele>132.968418</ele>
        <time>2022-06-18T11:50:08.459Z</time>
      </trkpt>
      <trkpt lat="48.43636" lon="2.62417">
        <ele>132.3809</ele>
        <time>2022-06-18T11:50:09.467Z</time>
      </trkpt>
      <trkpt lat="48.43648" lon="2.62414">
        <ele>131.801877</ele>
        <time>2022-06-18T11:50:10.635Z</time>
      </trkpt>
      <trkpt lat="48.4366" lon="2.62411">
        <ele>131.299678</ele>
        <time>2022-06-18T11:50:11.872Z</time>
      </trkpt>
      <trkpt lat="48.43674" lon="2.62411">
        <ele>131.520361</ele>
        <time>2022-06-18T11:50:14.851Z</time>
      </trkpt>
      <trkpt lat="48.43686" lon="2.62408">
        <ele>131.704157</ele>
        <time>2022-06-18T11:50:17.421Z</time>
      </trkpt>
      <trkpt lat="48.43699" lon="2.62408">
        <ele>131.907755</ele>
        <time>2022-06-18T11:50:20.185Z</time>
      </trkpt>
      <trkpt lat="48.43716" lon="2.62407">
        <ele>132.181715</ele>
        <time>2022-06-18T11:50:23.818Z</time>
      </trkpt>
      <trkpt lat="48.43726" lon="2.62403">
        <ele>132.344007</ele>
        <time>2022-06-18T11:50:26.018Z</time>
      </trkpt>
      <trkpt lat="48.43738" lon="2.62405">
        <ele>132.522493</ele>
        <time>2022-06-18T11:50:28.561Z</time>
      </trkpt>
      <trkpt lat="48.43751" lon="2.62404">
        <ele>132.730807</ele>
        <time>2022-06-18T11:50:31.338Z</time>
      </trkpt>
      <trkpt lat="48.43765" lon="2.62402">
        <ele>132.942891</ele>
        <time>2022-06-18T11:50:34.309Z</time>
      </trkpt>
      <trkpt lat="48.43777" lon="2.62402">
        <ele>133.134057</ele>
        <time>2022-06-18T11:50:36.867Z</time>
      </trkpt>
      <trkpt lat="48.43789" lon="2.62404">
        <ele>133.31491</ele>
        <time>2022-06-18T11:50:39.415Z</time>
      </trkpt>
      <trkpt lat="48.438" lon="2.62405">
        <ele>133.497033</ele>
        <time>2022-06-18T11:50:41.779Z</time>
      </trkpt>
      <trkpt lat="48.43811" lon="2.62406">
        <ele>133.658988</ele>
        <time>2022-06-18T11:50:44.098Z</time>
      </trkpt>
      <trkpt lat="48.43821" lon="2.62406">
        <ele>133.814399</ele>
        <time>2022-06-18T11:50:46.221Z</time>
      </trkpt>
      <trkpt lat="48.43831" lon="2.62407">
        <ele>133.976581</ele>
        <time>2022-06-18T11:50:48.363Z</time>
      </trkpt>
      <trkpt lat="48.43842" lon="2.62409">
        <ele>134.134614</ele>
        <time>2022-06-18T11:50:50.683Z</time>
      </trkpt>
      <trkpt lat="48.43854" lon="2.62412">
        <ele>134.315621</ele>
        <time>2022-06-18T11:50:53.248Z</time>
      </trkpt>
      <trkpt lat="48.43864" lon="2.62415">
        <ele>134.465922</ele>
        <time>2022-06-18T11:50:55.394Z</time>
      </trkpt>
      <trkpt lat="48.43877" lon="2.62417">
        <ele>134.644925</ele>
        <time>2022-06-18T11:50:58.115Z</time>
      </trkpt>
      <trkpt lat="48.43888" lon="2.62419">
        <ele>134.811652</ele>
        <time>2022-06-18T11:51:00.454Z</time>
      </trkpt>
      <trkpt lat="48.439" lon="2.62422">
        <ele>134.994687</ele>
        <time>2022-06-18T11:51:03.023Z</time>
      </trkpt>
      <trkpt lat="48.43913" lon="2.62425">
        <ele>135.173916</ele>
        <time>2022-06-18T11:51:05.759Z</time>
      </trkpt>
      <trkpt lat="48.43925" lon="2.62425">
        <ele>135.34604</ele>
        <time>2022-06-18T11:51:08.275Z</time>
      </trkpt>
      <trkpt lat="48.43936" lon="2.62427">
        <ele>135.509368</ele>
        <time>2022-06-18T11:51:10.607Z</time>
      </trkpt>
      <trkpt lat="48.43947" lon="2.62429">
        <ele>135.673895</ele>
        <time>2022-06-18T11:51:12.942Z</time>
      </trkpt>
      <trkpt lat="48.43959" lon="2.62432">
        <ele>135.848367</ele>
        <time>2022-06-18T11:51:15.492Z</time>
      </trkpt>
      <trkpt lat="48.43972" lon="2.62434">
        <ele>136.030041</ele>
        <time>2022-06-18T11:51:18.218Z</time>
      </trkpt>
      <trkpt lat="48.43983" lon="2.62436">
        <ele>136.192918</ele>
        <time>2022-06-18T11:51:20.549Z</time>
      </trkpt>
      <trkpt lat="48.43995" lon="2.62437">
        <ele>136.368482</ele>
        <time>2022-06-18T11:51:23.076Z</time>
      </trkpt>
      <trkpt lat="48.44005" lon="2.62438">
        <ele>136.514547</ele>
        <time>2022-06-18T11:51:25.181Z</time>
      </trkpt>
      <trkpt lat="48.44014" lon="2.62438">
        <ele>136.652087</ele>
        <time>2022-06-18T11:51:27.087Z</time>
      </trkpt>
      <trkpt lat="48.44025" lon="2.6244">
        <ele>136.993095</ele>
        <time>2022-06-18T11:51:29.896Z</time>
      </trkpt>
      <trkpt lat="48.44035" lon="2.62435">
        <ele>137.367701</ele>
        <time>2022-06-18T11:51:32.741Z</time>
      </trkpt>
      <trkpt lat="48.44041" lon="2.62422">
        <ele>137.730959</ele>
        <time>2022-06-18T11:51:35.540Z</time>
      </trkpt>
      <trkpt lat="48.44052" lon="2.62418">
        <ele>138.14073</ele>
        <time>2022-06-18T11:51:38.623Z</time>
      </trkpt>
      <trkpt lat="48.44063" lon="2.62417">
        <ele>138.521678</ele>
        <time>2022-06-18T11:51:41.559Z</time>
      </trkpt>
      <trkpt lat="48.44073" lon="2.62414">
        <ele>138.885464</ele>
        <time>2022-06-18T11:51:44.317Z</time>
      </trkpt>
      <trkpt lat="48.44081" lon="2.62422">
        <ele>139.219477</ele>
        <time>2022-06-18T11:51:46.883Z</time>
      </trkpt>
      <trkpt lat="48.44089" lon="2.6243">
        <ele>139.560014</ele>
        <time>2022-06-18T11:51:49.472Z</time>
      </trkpt>
      <trkpt lat="48.44098" lon="2.6242">
        <ele>139.947735</ele>
        <time>2022-06-18T11:51:52.455Z</time>
      </trkpt>
      <trkpt lat="48.44103" lon="2.62408">
        <ele>140.285389</ele>
        <time>2022-06-18T11:51:55.006Z</time>
      </trkpt>
      <trkpt lat="48.44108" lon="2.62397">
        <ele>140.605536</ele>
        <time>2022-06-18T11:51:57.416Z</time>
      </trkpt>
      <trkpt lat="48.44116" lon="2.62391">
        <ele>143.05592</ele>
        <time>2022-06-18T11:52:03.691Z</time>
      </trkpt>
      <trkpt lat="48.44111" lon="2.62378">
        <ele>138.595991</ele>
        <time>2022-06-18T11:52:04.585Z</time>
      </trkpt>
      <trkpt lat="48.44108" lon="2.62386">
        <ele>138.595991</ele>
        <time>2022-06-18T11:52:05.695Z</time>
      </trkpt>
      <trkpt lat="48.44106" lon="2.624">
        <ele>138.595991</ele>
        <time>2022-06-18T11:52:07.424Z</time>
      </trkpt>
      <trkpt lat="48.44103" lon="2.62419">
        <ele>138.595991</ele>
        <time>2022-06-18T11:52:09.783Z</time>
      </trkpt>
      <trkpt lat="48.44097" lon="2.62436">
        <ele>138.595991</ele>
        <time>2022-06-18T11:52:12.109Z</time>
      </trkpt>
      <trkpt lat="48.44089" lon="2.62444">
        <ele>138.595991</ele>
        <time>2022-06-18T11:52:13.857Z</time>
      </trkpt>
      <trkpt lat="48.44078" lon="2.62443">
        <ele>138.595991</ele>
        <time>2022-06-18T11:52:15.864Z</time>
      </trkpt>
      <trkpt lat="48.44063" lon="2.62446">
        <ele>138.595991</ele>
        <time>2022-06-18T11:52:18.619Z</time>
      </trkpt>
      <trkpt lat="48.44054" lon="2.62443">
        <ele>138.595991</ele>
        <time>2022-06-18T11:52:20.297Z</time>
      </trkpt>
      <trkpt lat="48.44045" lon="2.62444">
        <ele>138.595991</ele>
        <time>2022-06-18T11:52:21.940Z</time>
      </trkpt>
      <trkpt lat="48.44036" lon="2.62439">
        <ele>138.595991</ele>
        <time>2022-06-18T11:52:23.687Z</time>
      </trkpt>
      <trkpt lat="48.44027" lon="2.62445">
        <ele>138.595991</ele>
        <time>2022-06-18T11:52:25.478Z</time>
      </trkpt>
      <trkpt lat="48.4402" lon="2.62453">
        <ele>138.595991</ele>
        <time>2022-06-18T11:52:27.078Z</time>
      </trkpt>
      <trkpt lat="48.44011" lon="2.62461">
        <ele>138.595991</ele>
        <time>2022-06-18T11:52:28.980Z</time>
      </trkpt>
      <trkpt lat="48.44001" lon="2.62468">
        <ele>138.595991</ele>
        <time>2022-06-18T11:52:30.988Z</time>
      </trkpt>
      <trkpt lat="48.43991" lon="2.62477">
        <ele>138.595991</ele>
        <time>2022-06-18T11:52:33.108Z</time>
      </trkpt>
      <trkpt lat="48.43986" lon="2.62489">
        <ele>138.595991</ele>
        <time>2022-06-18T11:52:34.820Z</time>
      </trkpt>
      <trkpt lat="48.43979" lon="2.62497">
        <ele>138.595991</ele>
        <time>2022-06-18T11:52:36.419Z</time>
      </trkpt>
      <trkpt lat="48.43971" lon="2.62504">
        <ele>138.595991</ele>
        <time>2022-06-18T11:52:38.104Z</time>
      </trkpt>
      <trkpt lat="48.4396" lon="2.62507">
        <ele>138.595991</ele>
        <time>2022-06-18T11:52:40.139Z</time>
      </trkpt>
      <trkpt lat="48.4395" lon="2.62503">
        <ele>138.595991</ele>
        <time>2022-06-18T11:52:42.023Z</time>
      </trkpt>
      <trkpt lat="48.4394" lon="2.62494">
        <ele>138.595991</ele>
        <time>2022-06-18T11:52:44.143Z</time>
      </trkpt>
      <trkpt lat="48.4393" lon="2.62495">
        <ele>138.605702</ele>
        <time>2022-06-18T11:52:45.984Z</time>
      </trkpt>
      <trkpt lat="48.4392" lon="2.62511">
        <ele>138.622615</ele>
        <time>2022-06-18T11:52:48.668Z</time>
      </trkpt>
      <trkpt lat="48.43907" lon="2.62511">
        <ele>138.637379</ele>
        <time>2022-06-18T11:52:51.060Z</time>
      </trkpt>
      <trkpt lat="48.43897" lon="2.62497">
        <ele>138.653676</ele>
        <time>2022-06-18T11:52:53.572Z</time>
      </trkpt>
      <trkpt lat="48.43887" lon="2.62492">
        <ele>138.665694</ele>
        <time>2022-06-18T11:52:55.511Z</time>
      </trkpt>
      <trkpt lat="48.43878" lon="2.62486">
        <ele>138.677192</ele>
        <time>2022-06-18T11:52:57.322Z</time>
      </trkpt>
      <trkpt lat="48.43869" lon="2.62479">
        <ele>138.689262</ele>
        <time>2022-06-18T11:52:59.186Z</time>
      </trkpt>
      <trkpt lat="48.43861" lon="2.62473">
        <ele>138.700026</ele>
        <time>2022-06-18T11:53:00.832Z</time>
      </trkpt>
      <trkpt lat="48.43853" lon="2.62464">
        <ele>138.712003</ele>
        <time>2022-06-18T11:53:02.669Z</time>
      </trkpt>
      <trkpt lat="48.43845" lon="2.62456">
        <ele>138.723453</ele>
        <time>2022-06-18T11:53:04.437Z</time>
      </trkpt>
      <trkpt lat="48.43834" lon="2.6245">
        <ele>138.737435</ele>
        <time>2022-06-18T11:53:06.590Z</time>
      </trkpt>
      <trkpt lat="48.43823" lon="2.62442">
        <ele>138.75123</ele>
        <time>2022-06-18T11:53:08.837Z</time>
      </trkpt>
      <trkpt lat="48.43806" lon="2.62439">
        <ele>138.771492</ele>
        <time>2022-06-18T11:53:11.988Z</time>
      </trkpt>
      <trkpt lat="48.43793" lon="2.62439">
        <ele>138.786727</ele>
        <time>2022-06-18T11:53:14.380Z</time>
      </trkpt>
      <trkpt lat="48.43781" lon="2.62437">
        <ele>138.801549</ele>
        <time>2022-06-18T11:53:16.603Z</time>
      </trkpt>
      <trkpt lat="48.4377" lon="2.62437">
        <ele>138.783504</ele>
        <time>2022-06-18T11:53:18.557Z</time>
      </trkpt>
      <trkpt lat="48.43761" lon="2.62436">
        <ele>138.734308</ele>
        <time>2022-06-18T11:53:20.074Z</time>
      </trkpt>
      <trkpt lat="48.43751" lon="2.62438">
        <ele>138.681054</ele>
        <time>2022-06-18T11:53:21.773Z</time>
      </trkpt>
      <trkpt lat="48.43741" lon="2.62444">
        <ele>138.623168</ele>
        <time>2022-06-18T11:53:23.583Z</time>
      </trkpt>
      <trkpt lat="48.4373" lon="2.62451">
        <ele>138.554894</ele>
        <time>2022-06-18T11:53:25.582Z</time>
      </trkpt>
      <trkpt lat="48.43717" lon="2.62457">
        <ele>138.486406</ele>
        <time>2022-06-18T11:53:27.880Z</time>
      </trkpt>
      <trkpt lat="48.43706" lon="2.62465">
        <ele>138.415263</ele>
        <time>2022-06-18T11:53:29.922Z</time>
      </trkpt>
      <trkpt lat="48.43699" lon="2.62475">
        <ele>138.364134</ele>
        <time>2022-06-18T11:53:31.546Z</time>
      </trkpt>
      <trkpt lat="48.43691" lon="2.6249">
        <ele>138.295824</ele>
        <time>2022-06-18T11:53:33.695Z</time>
      </trkpt>
      <trkpt lat="48.43683" lon="2.62505">
        <ele>138.226898</ele>
        <time>2022-06-18T11:53:35.842Z</time>
      </trkpt>
      <trkpt lat="48.43678" lon="2.62519">
        <ele>138.169847</ele>
        <time>2022-06-18T11:53:37.616Z</time>
      </trkpt>
      <trkpt lat="48.43672" lon="2.62534">
        <ele>138.107928</ele>
        <time>2022-06-18T11:53:39.572Z</time>
      </trkpt>
      <trkpt lat="48.43672" lon="2.62551">
        <ele>138.04801</ele>
        <time>2022-06-18T11:53:41.471Z</time>
      </trkpt>
      <trkpt lat="48.43668" lon="2.62568">
        <ele>137.983032</ele>
        <time>2022-06-18T11:53:43.482Z</time>
      </trkpt>
      <trkpt lat="48.43661" lon="2.62579">
        <ele>137.928445</ele>
        <time>2022-06-18T11:53:45.183Z</time>
      </trkpt>
      <trkpt lat="48.43652" lon="2.62595">
        <ele>137.854346</ele>
        <time>2022-06-18T11:53:47.526Z</time>
      </trkpt>
      <trkpt lat="48.43646" lon="2.62612">
        <ele>137.827233</ele>
        <time>2022-06-18T11:53:49.778Z</time>
      </trkpt>
      <trkpt lat="48.43642" lon="2.62627">
        <ele>137.817331</ele>
        <time>2022-06-18T11:53:51.704Z</time>
      </trkpt>
      <trkpt lat="48.43637" lon="2.62639">
        <ele>137.807954</ele>
        <time>2022-06-18T11:53:53.390Z</time>
      </trkpt>
      <trkpt lat="48.43632" lon="2.62651">
        <ele>137.799047</ele>
        <time>2022-06-18T11:53:55.077Z</time>
      </trkpt>
      <trkpt lat="48.43623" lon="2.62665">
        <ele>137.786654</ele>
        <time>2022-06-18T11:53:57.398Z</time>
      </trkpt>
      <trkpt lat="48.43613" lon="2.62676">
        <ele>137.774754</ele>
        <time>2022-06-18T11:53:59.619Z</time>
      </trkpt>
      <trkpt lat="48.43604" lon="2.62683">
        <ele>137.764563</ele>
        <time>2022-06-18T11:54:01.435Z</time>
      </trkpt>
      <trkpt lat="48.43593" lon="2.62687">
        <ele>137.753829</ele>
        <time>2022-06-18T11:54:03.466Z</time>
      </trkpt>
      <trkpt lat="48.43586" lon="2.62707">
        <ele>137.739442</ele>
        <time>2022-06-18T11:54:06.158Z</time>
      </trkpt>
      <trkpt lat="48.43583" lon="2.62726">
        <ele>137.726863</ele>
        <time>2022-06-18T11:54:08.483Z</time>
      </trkpt>
      <trkpt lat="48.43577" lon="2.62739">
        <ele>137.717115</ele>
        <time>2022-06-18T11:54:10.369Z</time>
      </trkpt>
      <trkpt lat="48.43571" lon="2.62752">
        <ele>137.706943</ele>
        <time>2022-06-18T11:54:12.254Z</time>
      </trkpt>
      <trkpt lat="48.43564" lon="2.62768">
        <ele>137.694481</ele>
        <time>2022-06-18T11:54:14.535Z</time>
      </trkpt>
      <trkpt lat="48.43558" lon="2.6278">
        <ele>137.684891</ele>
        <time>2022-06-18T11:54:16.324Z</time>
      </trkpt>
      <trkpt lat="48.43552" lon="2.62791">
        <ele>137.676192</ele>
        <time>2022-06-18T11:54:18.020Z</time>
      </trkpt>
      <trkpt lat="48.43545" lon="2.62809">
        <ele>137.807583</ele>
        <time>2022-06-18T11:54:20.780Z</time>
      </trkpt>
      <trkpt lat="48.4354" lon="2.62824">
        <ele>138.765597</ele>
        <time>2022-06-18T11:54:25.421Z</time>
      </trkpt>
      <trkpt lat="48.43535" lon="2.6284">
        <ele>139.683763</ele>
        <time>2022-06-18T11:54:30.006Z</time>
      </trkpt>
      <trkpt lat="48.43529" lon="2.62856">
        <ele>140.705531</ele>
        <time>2022-06-18T11:54:34.992Z</time>
      </trkpt>
      <trkpt lat="48.43525" lon="2.62869">
        <ele>141.484369</ele>
        <time>2022-06-18T11:54:38.819Z</time>
      </trkpt>
      <trkpt lat="48.43518" lon="2.6289">
        <ele>142.782877</ele>
        <time>2022-06-18T11:54:45.167Z</time>
      </trkpt>
      <trkpt lat="48.4351" lon="2.62909">
        <ele>144.019006</ele>
        <time>2022-06-18T11:54:51.221Z</time>
      </trkpt>
      <trkpt lat="48.435" lon="2.62927">
        <ele>145.355846</ele>
        <time>2022-06-18T11:54:57.702Z</time>
      </trkpt>
      <trkpt lat="48.4349" lon="2.62943">
        <ele>146.577052</ele>
        <time>2022-06-18T11:55:03.662Z</time>
      </trkpt>
      <trkpt lat="48.4348" lon="2.62962">
        <ele>147.915315</ele>
        <time>2022-06-18T11:55:10.207Z</time>
      </trkpt>
      <trkpt lat="48.43476" lon="2.6298">
        <ele>148.954265</ele>
        <time>2022-06-18T11:55:15.302Z</time>
      </trkpt>
      <trkpt lat="48.43474" lon="2.62994">
        <ele>149.711976</ele>
        <time>2022-06-18T11:55:19.059Z</time>
      </trkpt>
      <trkpt lat="48.43498" lon="2.63038">
        <ele>152.57321</ele>
        <time>2022-06-18T11:55:33.528Z</time>
      </trkpt>
      <trkpt lat="48.43506" lon="2.63045">
        <ele>152.435463</ele>
        <time>2022-06-18T11:55:34.779Z</time>
      </trkpt>
      <trkpt lat="48.43513" lon="2.63056">
        <ele>152.302648</ele>
        <time>2022-06-18T11:55:36.177Z</time>
      </trkpt>
      <trkpt lat="48.43522" lon="2.63066">
        <ele>152.146476</ele>
        <time>2022-06-18T11:55:37.706Z</time>
      </trkpt>
      <trkpt lat="48.43526" lon="2.63084">
        <ele>151.974504</ele>
        <time>2022-06-18T11:55:39.435Z</time>
      </trkpt>
      <trkpt lat="48.43526" lon="2.63102">
        <ele>151.806773</ele>
        <time>2022-06-18T11:55:41.067Z</time>
      </trkpt>
      <trkpt lat="48.43521" lon="2.63115">
        <ele>151.66594</ele>
        <time>2022-06-18T11:55:42.428Z</time>
      </trkpt>
      <trkpt lat="48.4352" lon="2.63129">
        <ele>151.538402</ele>
        <time>2022-06-18T11:55:43.711Z</time>
      </trkpt>
      <trkpt lat="48.43517" lon="2.63147">
        <ele>151.362818</ele>
        <time>2022-06-18T11:55:45.389Z</time>
      </trkpt>
      <trkpt lat="48.43512" lon="2.63161">
        <ele>151.21907</ele>
        <time>2022-06-18T11:55:46.838Z</time>
      </trkpt>
      <trkpt lat="48.43506" lon="2.63181">
        <ele>151.022147</ele>
        <time>2022-06-18T11:55:48.841Z</time>
      </trkpt>
      <trkpt lat="48.43504" lon="2.63194">
        <ele>150.893651</ele>
        <time>2022-06-18T11:55:50.044Z</time>
      </trkpt>
      <trkpt lat="48.43498" lon="2.63211">
        <ele>150.716102</ele>
        <time>2022-06-18T11:55:51.793Z</time>
      </trkpt>
      <trkpt lat="48.43491" lon="2.63225">
        <ele>150.55597</ele>
        <time>2022-06-18T11:55:53.388Z</time>
      </trkpt>
      <trkpt lat="48.43486" lon="2.63244">
        <ele>150.368927</ele>
        <time>2022-06-18T11:55:55.247Z</time>
      </trkpt>
      <trkpt lat="48.43482" lon="2.63262">
        <ele>150.193014</ele>
        <time>2022-06-18T11:55:56.969Z</time>
      </trkpt>
      <trkpt lat="48.43478" lon="2.63274">
        <ele>150.185355</ele>
        <time>2022-06-18T11:55:58.571Z</time>
      </trkpt>
      <trkpt lat="48.43474" lon="2.63292">
        <ele>150.606802</ele>
        <time>2022-06-18T11:56:01.877Z</time>
      </trkpt>
      <trkpt lat="48.43471" lon="2.63306">
        <ele>150.945983</ele>
        <time>2022-06-18T11:56:04.484Z</time>
      </trkpt>
      <trkpt lat="48.43466" lon="2.63321">
        <ele>151.312473</ele>
        <time>2022-06-18T11:56:07.387Z</time>
      </trkpt>
      <trkpt lat="48.4346" lon="2.63333">
        <ele>151.660359</ele>
        <time>2022-06-18T11:56:10.055Z</time>
      </trkpt>
      <trkpt lat="48.43453" lon="2.63343">
        <ele>151.989379</ele>
        <time>2022-06-18T11:56:12.609Z</time>
      </trkpt>
      <trkpt lat="48.43447" lon="2.63357">
        <ele>152.356579</ele>
        <time>2022-06-18T11:56:15.503Z</time>
      </trkpt>
      <trkpt lat="48.43446" lon="2.63372">
        <ele>152.696525</ele>
        <time>2022-06-18T11:56:18.147Z</time>
      </trkpt>
      <trkpt lat="48.43438" lon="2.63381">
        <ele>153.012884</ele>
        <time>2022-06-18T11:56:20.708Z</time>
      </trkpt>
      <trkpt lat="48.43427" lon="2.63389">
        <ele>153.415161</ele>
        <time>2022-06-18T11:56:23.893Z</time>
      </trkpt>
      <trkpt lat="48.43418" lon="2.63392">
        <ele>153.730753</ele>
        <time>2022-06-18T11:56:26.338Z</time>
      </trkpt>
      <trkpt lat="48.43406" lon="2.63398">
        <ele>154.159202</ele>
        <time>2022-06-18T11:56:29.676Z</time>
      </trkpt>
      <trkpt lat="48.43398" lon="2.63405">
        <ele>154.478086</ele>
        <time>2022-06-18T11:56:32.137Z</time>
      </trkpt>
      <trkpt lat="48.43389" lon="2.63417">
        <ele>154.86444</ele>
        <time>2022-06-18T11:56:35.239Z</time>
      </trkpt>
      <trkpt lat="48.43382" lon="2.63429">
        <ele>155.237877</ele>
        <time>2022-06-18T11:56:38.088Z</time>
      </trkpt>
      <trkpt lat="48.43374" lon="2.63444">
        <ele>155.665854</ele>
        <time>2022-06-18T11:56:41.443Z</time>
      </trkpt>
      <trkpt lat="48.43367" lon="2.63456">
        <ele>156.026512</ele>
        <time>2022-06-18T11:56:44.247Z</time>
      </trkpt>
      <trkpt lat="48.43361" lon="2.63467">
        <ele>156.608742</ele>
        <time>2022-06-18T11:56:47.503Z</time>
      </trkpt>
      <trkpt lat="48.43353" lon="2.63477">
        <ele>157.41676</ele>
        <time>2022-06-18T11:56:51.547Z</time>
      </trkpt>
      <trkpt lat="48.43346" lon="2.63485">
        <ele>158.143163</ele>
        <time>2022-06-18T11:56:55.106Z</time>
      </trkpt>
      <trkpt lat="48.43339" lon="2.63493">
        <ele>158.914533</ele>
        <time>2022-06-18T11:56:58.824Z</time>
      </trkpt>
      <trkpt lat="48.43335" lon="2.63508">
        <ele>159.754127</ele>
        <time>2022-06-18T11:57:03.015Z</time>
      </trkpt>
      <trkpt lat="48.43331" lon="2.63525">
        <ele>160.729136</ele>
        <time>2022-06-18T11:57:07.815Z</time>
      </trkpt>
      <trkpt lat="48.43328" lon="2.63539">
        <ele>161.49658</ele>
        <time>2022-06-18T11:57:11.640Z</time>
      </trkpt>
      <trkpt lat="48.43326" lon="2.63552">
        <ele>162.229914</ele>
        <time>2022-06-18T11:57:15.231Z</time>
      </trkpt>
      <trkpt lat="48.4332" lon="2.63565">
        <ele>163.068393</ele>
        <time>2022-06-18T11:57:19.388Z</time>
      </trkpt>
      <trkpt lat="48.43312" lon="2.63571">
        <ele>163.828822</ele>
        <time>2022-06-18T11:57:23.083Z</time>
      </trkpt>
      <trkpt lat="48.4331" lon="2.63586">
        <ele>164.642676</ele>
        <time>2022-06-18T11:57:27.111Z</time>
      </trkpt>
      <trkpt lat="48.43306" lon="2.63601">
        <ele>165.487373</ele>
        <time>2022-06-18T11:57:31.318Z</time>
      </trkpt>
      <trkpt lat="48.43314" lon="2.6361">
        <ele>166.283527</ele>
        <time>2022-06-18T11:57:35.266Z</time>
      </trkpt>
      <trkpt lat="48.43307" lon="2.63602">
        <ele>167.008716</ele>
        <time>2022-06-18T11:57:38.821Z</time>
      </trkpt>
      <trkpt lat="48.43298" lon="2.636">
        <ele>167.742014</ele>
        <time>2022-06-18T11:57:42.444Z</time>
      </trkpt>
      <trkpt lat="48.43292" lon="2.63611">
        <ele>168.521521</ele>
        <time>2022-06-18T11:57:46.266Z</time>
      </trkpt>
      <trkpt lat="48.43285" lon="2.63601">
        <ele>169.280005</ele>
        <time>2022-06-18T11:57:50.046Z</time>
      </trkpt>
      <trkpt lat="48.43283" lon="2.63586">
        <ele>170.092173</ele>
        <time>2022-06-18T11:57:54.069Z</time>
      </trkpt>
      <trkpt lat="48.43279" lon="2.63599">
        <ele>170.69532</ele>
        <time>2022-06-18T11:57:57.388Z</time>
      </trkpt>
      <trkpt lat="48.43275" lon="2.63586">
        <ele>170.592605</ele>
        <time>2022-06-18T11:57:58.742Z</time>
      </trkpt>
      <trkpt lat="48.43266" lon="2.6358">
        <ele>170.485107</ele>
        <time>2022-06-18T11:58:00.142Z</time>
      </trkpt>
      <trkpt lat="48.43259" lon="2.63588">
        <ele>170.385439</ele>
        <time>2022-06-18T11:58:01.385Z</time>
      </trkpt>
      <trkpt lat="48.43254" lon="2.636">
        <ele>170.283315</ele>
        <time>2022-06-18T11:58:02.723Z</time>
      </trkpt>
      <trkpt lat="48.4325" lon="2.63613">
        <ele>170.182056</ele>
        <time>2022-06-18T11:58:04.081Z</time>
      </trkpt>
      <trkpt lat="48.43252" lon="2.63627">
        <ele>170.081818</ele>
        <time>2022-06-18T11:58:05.439Z</time>
      </trkpt>
      <trkpt lat="48.43257" lon="2.6364">
        <ele>169.968135</ele>
        <time>2022-06-18T11:58:06.848Z</time>
      </trkpt>
      <trkpt lat="48.4326" lon="2.63653">
        <ele>169.863865</ele>
        <time>2022-06-18T11:58:08.139Z</time>
      </trkpt>
      <trkpt lat="48.43263" lon="2.63667">
        <ele>169.755404</ele>
        <time>2022-06-18T11:58:09.524Z</time>
      </trkpt>
      <trkpt lat="48.43267" lon="2.6368">
        <ele>169.655755</ele>
        <time>2022-06-18T11:58:10.884Z</time>
      </trkpt>
      <trkpt lat="48.43273" lon="2.6369">
        <ele>169.555412</ele>
        <time>2022-06-18T11:58:12.152Z</time>
      </trkpt>
      <trkpt lat="48.43283" lon="2.63693">
        <ele>169.448954</ele>
        <time>2022-06-18T11:58:13.611Z</time>
      </trkpt>
      <trkpt lat="48.43273" lon="2.63685">
        <ele>169.329903</ele>
        <time>2022-06-18T11:58:15.230Z</time>
      </trkpt>
      <trkpt lat="48.43265" lon="2.63677">
        <ele>169.217622</ele>
        <time>2022-06-18T11:58:16.582Z</time>
      </trkpt>
      <trkpt lat="48.43254" lon="2.63675">
        <ele>169.10063</ele>
        <time>2022-06-18T11:58:18.166Z</time>
      </trkpt>
      <trkpt lat="48.43246" lon="2.63668">
        <ele>168.994382</ele>
        <time>2022-06-18T11:58:19.472Z</time>
      </trkpt>
      <trkpt lat="48.43236" lon="2.63669">
        <ele>168.888708</ele>
        <time>2022-06-18T11:58:20.905Z</time>
      </trkpt>
      <trkpt lat="48.43226" lon="2.63669">
        <ele>168.77985</ele>
        <time>2022-06-18T11:58:22.328Z</time>
      </trkpt>
      <trkpt lat="48.43214" lon="2.63653">
        <ele>169.686761</ele>
        <time>2022-06-18T11:58:27.659Z</time>
      </trkpt>
      <trkpt lat="48.43204" lon="2.63649">
        <ele>170.433921</ele>
        <time>2022-06-18T11:58:31.515Z</time>
      </trkpt>
      <trkpt lat="48.43195" lon="2.63644">
        <ele>171.1673</ele>
        <time>2022-06-18T11:58:35.209Z</time>
      </trkpt>
      <trkpt lat="48.43187" lon="2.63637">
        <ele>171.897775</ele>
        <time>2022-06-18T11:58:38.844Z</time>
      </trkpt>
      <trkpt lat="48.43179" lon="2.63631">
        <ele>172.621711</ele>
        <time>2022-06-18T11:58:42.414Z</time>
      </trkpt>
      <trkpt lat="48.4317" lon="2.63623">
        <ele>173.407862</ele>
        <time>2022-06-18T11:58:46.400Z</time>
      </trkpt>
      <trkpt lat="48.43163" lon="2.63615">
        <ele>174.122015</ele>
        <time>2022-06-18T11:58:49.918Z</time>
      </trkpt>
      <trkpt lat="48.43155" lon="2.63606">
        <ele>174.88542</ele>
        <time>2022-06-18T11:58:53.763Z</time>
      </trkpt>
      <trkpt lat="48.43149" lon="2.63596">
        <ele>175.577811</ele>
        <time>2022-06-18T11:58:57.234Z</time>
      </trkpt>
      <trkpt lat="48.4314" lon="2.63588">
        <ele>176.348778</ele>
        <time>2022-06-18T11:59:01.175Z</time>
      </trkpt>
      <trkpt lat="48.43136" lon="2.63575">
        <ele>177.085583</ele>
        <time>2022-06-18T11:59:04.867Z</time>
      </trkpt>
      <trkpt lat="48.43126" lon="2.63581">
        <ele>177.903106</ele>
        <time>2022-06-18T11:59:08.996Z</time>
      </trkpt>
      <trkpt lat="48.43117" lon="2.63589">
        <ele>178.779941</ele>
        <time>2022-06-18T11:59:13.273Z</time>
      </trkpt>
      <trkpt lat="48.43109" lon="2.63597">
        <ele>179.510194</ele>
        <time>2022-06-18T11:59:16.959Z</time>
      </trkpt>
      <trkpt lat="48.43103" lon="2.6361">
        <ele>180.285961</ele>
        <time>2022-06-18T11:59:20.923Z</time>
      </trkpt>
      <trkpt lat="48.431" lon="2.63624">
        <ele>181.050386</ele>
        <time>2022-06-18T11:59:24.739Z</time>
      </trkpt>
      <trkpt lat="48.43101" lon="2.63641">
        <ele>181.939152</ele>
        <time>2022-06-18T11:59:29.171Z</time>
      </trkpt>
      <trkpt lat="48.43097" lon="2.63654">
        <ele>182.632021</ele>
        <time>2022-06-18T11:59:32.732Z</time>
      </trkpt>
      <trkpt lat="48.43094" lon="2.63668">
        <ele>182.569</ele>
        <time>2022-06-18T11:59:34.349Z</time>
      </trkpt>
      <trkpt lat="48.43093" lon="2.63684">
        <ele>182.465419</ele>
        <time>2022-06-18T11:59:35.890Z</time>
      </trkpt>
      <trkpt lat="48.4309" lon="2.63702">
        <ele>182.352418</ele>
        <time>2022-06-18T11:59:37.683Z</time>
      </trkpt>
      <trkpt lat="48.4309" lon="2.63716">
        <ele>182.263934</ele>
        <time>2022-06-18T11:59:39.029Z</time>
      </trkpt>
      <trkpt lat="48.43084" lon="2.63726">
        <ele>182.177276</ele>
        <time>2022-06-18T11:59:40.323Z</time>
      </trkpt>
      <trkpt lat="48.43073" lon="2.6373">
        <ele>182.07663</ele>
        <time>2022-06-18T11:59:41.976Z</time>
      </trkpt>
      <trkpt lat="48.43062" lon="2.63724">
        <ele>181.964919</ele>
        <time>2022-06-18T11:59:43.671Z</time>
      </trkpt>
      <trkpt lat="48.4305" lon="2.6372">
        <ele>181.851044</ele>
        <time>2022-06-18T11:59:45.458Z</time>
      </trkpt>
      <trkpt lat="48.4304" lon="2.63721">
        <ele>181.752734</ele>
        <time>2022-06-18T11:59:46.905Z</time>
      </trkpt>
      <trkpt lat="48.43027" lon="2.63729">
        <ele>181.619808</ele>
        <time>2022-06-18T11:59:48.941Z</time>
      </trkpt>
      <trkpt lat="48.4302" lon="2.63739">
        <ele>181.53034</ele>
        <time>2022-06-18T11:59:50.343Z</time>
      </trkpt>
      <trkpt lat="48.43011" lon="2.6375">
        <ele>181.421947</ele>
        <time>2022-06-18T11:59:52.026Z</time>
      </trkpt>
      <trkpt lat="48.43003" lon="2.63761">
        <ele>181.319403</ele>
        <time>2022-06-18T11:59:53.596Z</time>
      </trkpt>
      <trkpt lat="48.43001" lon="2.63777">
        <ele>181.220561</ele>
        <time>2022-06-18T11:59:55.170Z</time>
      </trkpt>
      <trkpt lat="48.43003" lon="2.63793">
        <ele>181.117093</ele>
        <time>2022-06-18T11:59:56.734Z</time>
      </trkpt>
      <trkpt lat="48.43007" lon="2.63807">
        <ele>181.022477</ele>
        <time>2022-06-18T11:59:58.203Z</time>
      </trkpt>
      <trkpt lat="48.43003" lon="2.63822">
        <ele>180.975299</ele>
        <time>2022-06-18T12:00:00.033Z</time>
      </trkpt>
      <trkpt lat="48.43003" lon="2.63835">
        <ele>180.992303</ele>
        <time>2022-06-18T12:00:01.632Z</time>
      </trkpt>
      <trkpt lat="48.43002" lon="2.63849">
        <ele>181.009003</ele>
        <time>2022-06-18T12:00:03.362Z</time>
      </trkpt>
      <trkpt lat="48.43003" lon="2.63863">
        <ele>181.026619</ele>
        <time>2022-06-18T12:00:05.093Z</time>
      </trkpt>
      <trkpt lat="48.43012" lon="2.63869">
        <ele>181.044478</ele>
        <time>2022-06-18T12:00:06.915Z</time>
      </trkpt>
      <trkpt lat="48.43022" lon="2.6387">
        <ele>181.06371</ele>
        <time>2022-06-18T12:00:08.772Z</time>
      </trkpt>
      <trkpt lat="48.43032" lon="2.63875">
        <ele>181.083253</ele>
        <time>2022-06-18T12:00:10.724Z</time>
      </trkpt>
      <trkpt lat="48.43042" lon="2.63878">
        <ele>181.101517</ele>
        <time>2022-06-18T12:00:12.611Z</time>
      </trkpt>
      <trkpt lat="48.43053" lon="2.6388">
        <ele>181.121127</ele>
        <time>2022-06-18T12:00:14.662Z</time>
      </trkpt>
      <trkpt lat="48.43064" lon="2.63882">
        <ele>181.142097</ele>
        <time>2022-06-18T12:00:16.715Z</time>
      </trkpt>
      <trkpt lat="48.43073" lon="2.6388">
        <ele>181.159352</ele>
        <time>2022-06-18T12:00:18.400Z</time>
      </trkpt>
      <trkpt lat="48.4308" lon="2.639">
        <ele>181.186651</ele>
        <time>2022-06-18T12:00:21.178Z</time>
      </trkpt>
      <trkpt lat="48.4307" lon="2.63892">
        <ele>181.208119</ele>
        <time>2022-06-18T12:00:23.276Z</time>
      </trkpt>
      <trkpt lat="48.43061" lon="2.63882">
        <ele>181.227464</ele>
        <time>2022-06-18T12:00:25.345Z</time>
      </trkpt>
      <trkpt lat="48.4305" lon="2.63879">
        <ele>181.249389</ele>
        <time>2022-06-18T12:00:27.417Z</time>
      </trkpt>
      <trkpt lat="48.43038" lon="2.63879">
        <ele>181.270755</ele>
        <time>2022-06-18T12:00:29.639Z</time>
      </trkpt>
      <trkpt lat="48.43029" lon="2.63876">
        <ele>181.287838</ele>
        <time>2022-06-18T12:00:31.346Z</time>
      </trkpt>
      <trkpt lat="48.43019" lon="2.6387">
        <ele>181.280491</ele>
        <time>2022-06-18T12:00:33.285Z</time>
      </trkpt>
      <trkpt lat="48.43008" lon="2.63871">
        <ele>181.238273</ele>
        <time>2022-06-18T12:00:35.180Z</time>
      </trkpt>
      <trkpt lat="48.42998" lon="2.63878">
        <ele>181.199701</ele>
        <time>2022-06-18T12:00:37.086Z</time>
      </trkpt>
      <trkpt lat="48.4299" lon="2.63886">
        <ele>181.165161</ele>
        <time>2022-06-18T12:00:38.743Z</time>
      </trkpt>
      <trkpt lat="48.4298" lon="2.63889">
        <ele>181.125438</ele>
        <time>2022-06-18T12:00:40.495Z</time>
      </trkpt>
      <trkpt lat="48.42971" lon="2.639">
        <ele>181.084097</ele>
        <time>2022-06-18T12:00:42.495Z</time>
      </trkpt>
      <trkpt lat="48.42971" lon="2.63914">
        <ele>181.04828</ele>
        <time>2022-06-18T12:00:44.092Z</time>
      </trkpt>
      <trkpt lat="48.42973" lon="2.6393">
        <ele>181.008625</ele>
        <time>2022-06-18T12:00:45.954Z</time>
      </trkpt>
      <trkpt lat="48.42975" lon="2.63946">
        <ele>180.970553</ele>
        <time>2022-06-18T12:00:47.821Z</time>
      </trkpt>
      <trkpt lat="48.42973" lon="2.63961">
        <ele>180.932827</ele>
        <time>2022-06-18T12:00:49.569Z</time>
      </trkpt>
      <trkpt lat="48.4297" lon="2.63978">
        <ele>180.889853</ele>
        <time>2022-06-18T12:00:51.581Z</time>
      </trkpt>
      <trkpt lat="48.42968" lon="2.63992">
        <ele>180.856054</ele>
        <time>2022-06-18T12:00:53.222Z</time>
      </trkpt>
      <trkpt lat="48.42964" lon="2.64004">
        <ele>180.821746</ele>
        <time>2022-06-18T12:00:54.754Z</time>
      </trkpt>
      <trkpt lat="48.4296" lon="2.6402">
        <ele>180.781352</ele>
        <time>2022-06-18T12:00:56.713Z</time>
      </trkpt>
      <trkpt lat="48.42956" lon="2.64034">
        <ele>180.741982</ele>
        <time>2022-06-18T12:00:58.451Z</time>
      </trkpt>
      <trkpt lat="48.42955" lon="2.64049">
        <ele>180.70487</ele>
        <time>2022-06-18T12:01:00.174Z</time>
      </trkpt>
      <trkpt lat="48.42952" lon="2.64065">
        <ele>180.666636</ele>
        <time>2022-06-18T12:01:02.081Z</time>
      </trkpt>
      <trkpt lat="48.4295" lon="2.64078">
        <ele>180.545756</ele>
        <time>2022-06-18T12:01:03.297Z</time>
      </trkpt>
      <trkpt lat="48.42946" lon="2.64095">
        <ele>179.939757</ele>
        <time>2022-06-18T12:01:04.417Z</time>
      </trkpt>
      <trkpt lat="48.42941" lon="2.64107">
        <ele>179.479339</ele>
        <time>2022-06-18T12:01:05.308Z</time>
      </trkpt>
      <trkpt lat="48.42933" lon="2.64118">
        <ele>178.93849</ele>
        <time>2022-06-18T12:01:06.327Z</time>
      </trkpt>
      <trkpt lat="48.42927" lon="2.64128">
        <ele>178.46554</ele>
        <time>2022-06-18T12:01:07.148Z</time>
      </trkpt>
      <trkpt lat="48.42921" lon="2.64143">
        <ele>177.894474</ele>
        <time>2022-06-18T12:01:08.249Z</time>
      </trkpt>
      <trkpt lat="48.42917" lon="2.6416">
        <ele>177.285079</ele>
        <time>2022-06-18T12:01:09.365Z</time>
      </trkpt>
      <trkpt lat="48.42916" lon="2.64176">
        <ele>176.720655</ele>
        <time>2022-06-18T12:01:10.343Z</time>
      </trkpt>
      <trkpt lat="48.42914" lon="2.64194">
        <ele>176.135668</ele>
        <time>2022-06-18T12:01:11.499Z</time>
      </trkpt>
      <trkpt lat="48.4291" lon="2.6421">
        <ele>175.55782</ele>
        <time>2022-06-18T12:01:12.557Z</time>
      </trkpt>
      <trkpt lat="48.42908" lon="2.64224">
        <ele>175.063407</ele>
        <time>2022-06-18T12:01:13.435Z</time>
      </trkpt>
      <trkpt lat="48.42907" lon="2.6424">
        <ele>174.533273</ele>
        <time>2022-06-18T12:01:14.440Z</time>
      </trkpt>
      <trkpt lat="48.42907" lon="2.64258">
        <ele>173.926844</ele>
        <time>2022-06-18T12:01:15.555Z</time>
      </trkpt>
      <trkpt lat="48.42904" lon="2.64272">
        <ele>173.420999</ele>
        <time>2022-06-18T12:01:16.459Z</time>
      </trkpt>
      <trkpt lat="48.42902" lon="2.64289">
        <ele>172.841014</ele>
        <time>2022-06-18T12:01:17.530Z</time>
      </trkpt>
      <trkpt lat="48.429" lon="2.64304">
        <ele>172.323458</ele>
        <time>2022-06-18T12:01:18.477Z</time>
      </trkpt>
      <trkpt lat="48.42893" lon="2.64325">
        <ele>171.532343</ele>
        <time>2022-06-18T12:01:19.934Z</time>
      </trkpt>
      <trkpt lat="48.42887" lon="2.64335">
        <ele>172.10614</ele>
        <time>2022-06-18T12:01:23.072Z</time>
      </trkpt>
      <trkpt lat="48.42878" lon="2.64348">
        <ele>172.949524</ele>
        <time>2022-06-18T12:01:27.560Z</time>
      </trkpt>
      <trkpt lat="48.42868" lon="2.64366">
        <ele>174.045819</ele>
        <time>2022-06-18T12:01:33.284Z</time>
      </trkpt>
      <trkpt lat="48.4286" lon="2.64384">
        <ele>175.006514</ele>
        <time>2022-06-18T12:01:38.428Z</time>
      </trkpt>
      <trkpt lat="48.42851" lon="2.64403">
        <ele>176.099039</ele>
        <time>2022-06-18T12:01:44.126Z</time>
      </trkpt>
      <trkpt lat="48.42839" lon="2.64424">
        <ele>177.380152</ele>
        <time>2022-06-18T12:01:50.846Z</time>
      </trkpt>
      <trkpt lat="48.42831" lon="2.64441">
        <ele>178.298426</ele>
        <time>2022-06-18T12:01:55.779Z</time>
      </trkpt>
      <trkpt lat="48.42823" lon="2.64461">
        <ele>179.393766</ele>
        <time>2022-06-18T12:02:01.486Z</time>
      </trkpt>
      <trkpt lat="48.42816" lon="2.64479">
        <ele>180.327773</ele>
        <time>2022-06-18T12:02:06.463Z</time>
      </trkpt>
      <trkpt lat="48.42806" lon="2.64495">
        <ele>181.355567</ele>
        <time>2022-06-18T12:02:11.826Z</time>
      </trkpt>
      <trkpt lat="48.42799" lon="2.64509">
        <ele>182.140828</ele>
        <time>2022-06-18T12:02:16.009Z</time>
      </trkpt>
      <trkpt lat="48.42791" lon="2.64531">
        <ele>183.28518</ele>
        <time>2022-06-18T12:02:22.051Z</time>
      </trkpt>
      <trkpt lat="48.42784" lon="2.64545">
        <ele>183.770311</ele>
        <time>2022-06-18T12:02:25.478Z</time>
      </trkpt>
      <trkpt lat="48.42775" lon="2.64561">
        <ele>183.001989</ele>
        <time>2022-06-18T12:02:26.730Z</time>
      </trkpt>
      <trkpt lat="48.42771" lon="2.64573">
        <ele>182.493502</ele>
        <time>2022-06-18T12:02:27.519Z</time>
      </trkpt>
      <trkpt lat="48.42764" lon="2.64586">
        <ele>181.905525</ele>
        <time>2022-06-18T12:02:28.538Z</time>
      </trkpt>
      <trkpt lat="48.42753" lon="2.64607">
        <ele>180.944585</ele>
        <time>2022-06-18T12:02:30.150Z</time>
      </trkpt>
      <trkpt lat="48.42744" lon="2.64615">
        <ele>180.376915</ele>
        <time>2022-06-18T12:02:31.096Z</time>
      </trkpt>
      <trkpt lat="48.42736" lon="2.6462">
        <ele>179.868195</ele>
        <time>2022-06-18T12:02:31.853Z</time>
      </trkpt>
      <trkpt lat="48.42727" lon="2.64625">
        <ele>179.378627</ele>
        <time>2022-06-18T12:02:32.747Z</time>
      </trkpt>
      <trkpt lat="48.42718" lon="2.64632">
        <ele>178.831209</ele>
        <time>2022-06-18T12:02:33.667Z</time>
      </trkpt>
      <trkpt lat="48.42708" lon="2.64639">
        <ele>178.240547</ele>
        <time>2022-06-18T12:02:34.673Z</time>
      </trkpt>
      <trkpt lat="48.42698" lon="2.64646">
        <ele>177.602689</ele>
        <time>2022-06-18T12:02:35.643Z</time>
      </trkpt>
      <trkpt lat="48.42688" lon="2.64654">
        <ele>176.995309</ele>
        <time>2022-06-18T12:02:36.675Z</time>
      </trkpt>
      <trkpt lat="48.4268" lon="2.6466">
        <ele>176.491771</ele>
        <time>2022-06-18T12:02:37.471Z</time>
      </trkpt>
      <trkpt lat="48.4267" lon="2.64668">
        <ele>175.90393</ele>
        <time>2022-06-18T12:02:38.518Z</time>
      </trkpt>
      <trkpt lat="48.42664" lon="2.64679">
        <ele>175.372978</ele>
        <time>2022-06-18T12:02:39.361Z</time>
      </trkpt>
      <trkpt lat="48.42655" lon="2.64685">
        <ele>174.843593</ele>
        <time>2022-06-18T12:02:40.257Z</time>
      </trkpt>
      <trkpt lat="48.42646" lon="2.64691">
        <ele>174.334472</ele>
        <time>2022-06-18T12:02:41.169Z</time>
      </trkpt>
      <trkpt lat="48.42638" lon="2.64697">
        <ele>174.219759</ele>
        <time>2022-06-18T12:02:42.409Z</time>
      </trkpt>
      <trkpt lat="48.42629" lon="2.64704">
        <ele>174.452652</ele>
        <time>2022-06-18T12:02:44.745Z</time>
      </trkpt>
      <trkpt lat="48.42619" lon="2.64712">
        <ele>174.719812</ele>
        <time>2022-06-18T12:02:47.375Z</time>
      </trkpt>
      <trkpt lat="48.42611" lon="2.64719">
        <ele>174.939029</ele>
        <time>2022-06-18T12:02:49.526Z</time>
      </trkpt>
      <trkpt lat="48.42603" lon="2.64728">
        <ele>175.180927</ele>
        <time>2022-06-18T12:02:51.862Z</time>
      </trkpt>
      <trkpt lat="48.42594" lon="2.64739">
        <ele>175.455951</ele>
        <time>2022-06-18T12:02:54.558Z</time>
      </trkpt>
      <trkpt lat="48.42583" lon="2.64746">
        <ele>175.72809</ele>
        <time>2022-06-18T12:02:57.306Z</time>
      </trkpt>
      <trkpt lat="48.42573" lon="2.64749">
        <ele>175.975342</ele>
        <time>2022-06-18T12:02:59.692Z</time>
      </trkpt>
      <trkpt lat="48.42563" lon="2.64755">
        <ele>176.21934</ele>
        <time>2022-06-18T12:03:02.166Z</time>
      </trkpt>
      <trkpt lat="48.42553" lon="2.64757">
        <ele>176.465485</ele>
        <time>2022-06-18T12:03:04.531Z</time>
      </trkpt>
      <trkpt lat="48.42542" lon="2.64749">
        <ele>176.734023</ele>
        <time>2022-06-18T12:03:07.316Z</time>
      </trkpt>
      <trkpt lat="48.42532" lon="2.64749">
        <ele>176.978267</ele>
        <time>2022-06-18T12:03:09.661Z</time>
      </trkpt>
      <trkpt lat="48.4252" lon="2.64752">
        <ele>177.270796</ele>
        <time>2022-06-18T12:03:12.502Z</time>
      </trkpt>
      <trkpt lat="48.4251" lon="2.64766">
        <ele>177.580519</ele>
        <time>2022-06-18T12:03:15.639Z</time>
      </trkpt>
      <trkpt lat="48.42498" lon="2.64765">
        <ele>177.881174</ele>
        <time>2022-06-18T12:03:18.478Z</time>
      </trkpt>
      <trkpt lat="48.42488" lon="2.64766">
        <ele>178.10465</ele>
        <time>2022-06-18T12:03:20.771Z</time>
      </trkpt>
      <trkpt lat="48.42481" lon="2.64775">
        <ele>178.322564</ele>
        <time>2022-06-18T12:03:22.910Z</time>
      </trkpt>
      <trkpt lat="48.42476" lon="2.64788">
        <ele>179.160799</ele>
        <time>2022-06-18T12:03:26.997Z</time>
      </trkpt>
      <trkpt lat="48.42473" lon="2.64801">
        <ele>179.901656</ele>
        <time>2022-06-18T12:03:30.649Z</time>
      </trkpt>
      <trkpt lat="48.42467" lon="2.64817">
        <ele>180.885035</ele>
        <time>2022-06-18T12:03:35.507Z</time>
      </trkpt>
      <trkpt lat="48.42458" lon="2.64827">
        <ele>181.788756</ele>
        <time>2022-06-18T12:03:39.968Z</time>
      </trkpt>
      <trkpt lat="48.42451" lon="2.64836">
        <ele>182.553542</ele>
        <time>2022-06-18T12:03:43.709Z</time>
      </trkpt>
      <trkpt lat="48.4244" lon="2.64844">
        <ele>183.605937</ele>
        <time>2022-06-18T12:03:48.805Z</time>
      </trkpt>
      <trkpt lat="48.42428" lon="2.64843">
        <ele>184.554607</ele>
        <time>2022-06-18T12:03:53.527Z</time>
      </trkpt>
      <trkpt lat="48.42417" lon="2.64845">
        <ele>185.442061</ele>
        <time>2022-06-18T12:03:57.920Z</time>
      </trkpt>
      <trkpt lat="48.42407" lon="2.6485">
        <ele>186.321023</ele>
        <time>2022-06-18T12:04:02.215Z</time>
      </trkpt>
      <trkpt lat="48.42398" lon="2.64848">
        <ele>187.075231</ele>
        <time>2022-06-18T12:04:05.908Z</time>
      </trkpt>
      <trkpt lat="48.42389" lon="2.64844">
        <ele>187.824398</ele>
        <time>2022-06-18T12:04:09.621Z</time>
      </trkpt>
      <trkpt lat="48.42377" lon="2.6484">
        <ele>188.789697</ele>
        <time>2022-06-18T12:04:14.434Z</time>
      </trkpt>
      <trkpt lat="48.42366" lon="2.64845">
        <ele>189.740698</ele>
        <time>2022-06-18T12:04:19.092Z</time>
      </trkpt>
      <trkpt lat="48.42359" lon="2.64853">
        <ele>190.485663</ele>
        <time>2022-06-18T12:04:22.715Z</time>
      </trkpt>
      <trkpt lat="48.42349" lon="2.6486">
        <ele>191.383951</ele>
        <time>2022-06-18T12:04:27.137Z</time>
      </trkpt>
      <trkpt lat="48.42338" lon="2.64862">
        <ele>192.232145</ele>
        <time>2022-06-18T12:04:31.408Z</time>
      </trkpt>
      <trkpt lat="48.4233" lon="2.64868">
        <ele>193.012011</ele>
        <time>2022-06-18T12:04:35.172Z</time>
      </trkpt>
      <trkpt lat="48.42319" lon="2.64873">
        <ele>192.903525</ele>
        <time>2022-06-18T12:04:36.839Z</time>
      </trkpt>
      <trkpt lat="48.42308" lon="2.64872">
        <ele>192.791571</ele>
        <time>2022-06-18T12:04:38.422Z</time>
      </trkpt>
      <trkpt lat="48.42298" lon="2.64872">
        <ele>192.698368</ele>
        <time>2022-06-18T12:04:39.875Z</time>
      </trkpt>
      <trkpt lat="48.4229" lon="2.64879">
        <ele>192.611412</ele>
        <time>2022-06-18T12:04:41.218Z</time>
      </trkpt>
      <trkpt lat="48.4228" lon="2.64889">
        <ele>192.496336</ele>
        <time>2022-06-18T12:04:42.955Z</time>
      </trkpt>
      <trkpt lat="48.42271" lon="2.64902">
        <ele>192.373938</ele>
        <time>2022-06-18T12:04:44.755Z</time>
      </trkpt>
      <trkpt lat="48.42263" lon="2.64911">
        <ele>192.276169</ele>
        <time>2022-06-18T12:04:46.196Z</time>
      </trkpt>
      <trkpt lat="48.42253" lon="2.64923">
        <ele>192.15846</ele>
        <time>2022-06-18T12:04:48.056Z</time>
      </trkpt>
      <trkpt lat="48.42244" lon="2.64934">
        <ele>192.047461</ele>
        <time>2022-06-18T12:04:49.734Z</time>
      </trkpt>
      <trkpt lat="48.42235" lon="2.64946">
        <ele>191.93437</ele>
        <time>2022-06-18T12:04:51.478Z</time>
      </trkpt>
      <trkpt lat="48.42227" lon="2.6496">
        <ele>191.810469</ele>
        <time>2022-06-18T12:04:53.241Z</time>
      </trkpt>
      <trkpt lat="48.4222" lon="2.64976">
        <ele>191.691023</ele>
        <time>2022-06-18T12:04:55.087Z</time>
      </trkpt>
      <trkpt lat="48.42214" lon="2.64992">
        <ele>191.571323</ele>
        <time>2022-06-18T12:04:56.848Z</time>
      </trkpt>
      <trkpt lat="48.42207" lon="2.65009">
        <ele>191.447577</ele>
        <time>2022-06-18T12:04:58.777Z</time>
      </trkpt>
      <trkpt lat="48.42202" lon="2.65021">
        <ele>191.35625</ele>
        <time>2022-06-18T12:05:00.136Z</time>
      </trkpt>
      <trkpt lat="48.42195" lon="2.65036">
        <ele>191.072745</ele>
        <time>2022-06-18T12:05:01.625Z</time>
      </trkpt>
      <trkpt lat="48.42188" lon="2.65052">
        <ele>190.446461</ele>
        <time>2022-06-18T12:05:02.829Z</time>
      </trkpt>
      <trkpt lat="48.42179" lon="2.65066">
        <ele>189.845336</ele>
        <time>2022-06-18T12:05:04.084Z</time>
      </trkpt>
      <trkpt lat="48.4217" lon="2.65077">
        <ele>189.293617</ele>
        <time>2022-06-18T12:05:05.196Z</time>
      </trkpt>
      <trkpt lat="48.42162" lon="2.65085">
        <ele>188.868068</ele>
        <time>2022-06-18T12:05:06.146Z</time>
      </trkpt>
      <trkpt lat="48.42154" lon="2.65096">
        <ele>188.334577</ele>
        <time>2022-06-18T12:05:07.171Z</time>
      </trkpt>
      <trkpt lat="48.42144" lon="2.65105">
        <ele>187.791801</ele>
        <time>2022-06-18T12:05:08.299Z</time>
      </trkpt>
      <trkpt lat="48.42134" lon="2.65112">
        <ele>187.268913</ele>
        <time>2022-06-18T12:05:09.359Z</time>
      </trkpt>
      <trkpt lat="48.42126" lon="2.65101">
        <ele>186.772147</ele>
        <time>2022-06-18T12:05:10.416Z</time>
      </trkpt>
      <trkpt lat="48.42126" lon="2.65087">
        <ele>186.343423</ele>
        <time>2022-06-18T12:05:11.319Z</time>
      </trkpt>
      <trkpt lat="48.42127" lon="2.65072">
        <ele>185.870891</ele>
        <time>2022-06-18T12:05:12.283Z</time>
      </trkpt>
      <trkpt lat="48.42126" lon="2.65053">
        <ele>185.294638</ele>
        <time>2022-06-18T12:05:13.520Z</time>
      </trkpt>
      <trkpt lat="48.42125" lon="2.65037">
        <ele>184.769941</ele>
        <time>2022-06-18T12:05:14.530Z</time>
      </trkpt>
      <trkpt lat="48.42125" lon="2.65019">
        <ele>184.225135</ele>
        <time>2022-06-18T12:05:15.698Z</time>
      </trkpt>
      <trkpt lat="48.42124" lon="2.65005">
        <ele>183.771011</ele>
        <time>2022-06-18T12:05:16.587Z</time>
      </trkpt>
      <trkpt lat="48.42123" lon="2.64987">
        <ele>183.215521</ele>
        <time>2022-06-18T12:05:17.751Z</time>
      </trkpt>
      <trkpt lat="48.42124" lon="2.6497">
        <ele>182.884482</ele>
        <time>2022-06-18T12:05:19.050Z</time>
      </trkpt>
      <trkpt lat="48.42127" lon="2.64954">
        <ele>183.236065</ele>
        <time>2022-06-18T12:05:21.887Z</time>
      </trkpt>
      <trkpt lat="48.42129" lon="2.6494">
        <ele>183.52133</ele>
        <time>2022-06-18T12:05:24.274Z</time>
      </trkpt>
      <trkpt lat="48.42131" lon="2.64927">
        <ele>183.809988</ele>
        <time>2022-06-18T12:05:26.572Z</time>
      </trkpt>
      <trkpt lat="48.42132" lon="2.64913">
        <ele>184.090422</ele>
        <time>2022-06-18T12:05:28.919Z</time>
      </trkpt>
      <trkpt lat="48.42131" lon="2.64898">
        <ele>184.406678</ele>
        <time>2022-06-18T12:05:31.483Z</time>
      </trkpt>
      <trkpt lat="48.42128" lon="2.64882">
        <ele>184.753166</ele>
        <time>2022-06-18T12:05:34.303Z</time>
      </trkpt>
      <trkpt lat="48.42125" lon="2.64869">
        <ele>185.0392</ele>
        <time>2022-06-18T12:05:36.635Z</time>
      </trkpt>
      <trkpt lat="48.42121" lon="2.64855">
        <ele>185.342162</ele>
        <time>2022-06-18T12:05:39.173Z</time>
      </trkpt>
      <trkpt lat="48.42117" lon="2.64842">
        <ele>185.642983</ele>
        <time>2022-06-18T12:05:41.611Z</time>
      </trkpt>
      <trkpt lat="48.42112" lon="2.64827">
        <ele>186.001448</ele>
        <time>2022-06-18T12:05:44.487Z</time>
      </trkpt>
      <trkpt lat="48.42108" lon="2.64813">
        <ele>186.314406</ele>
        <time>2022-06-18T12:05:47.057Z</time>
      </trkpt>
      <trkpt lat="48.42102" lon="2.648">
        <ele>186.658786</ele>
        <time>2022-06-18T12:05:49.791Z</time>
      </trkpt>
      <trkpt lat="48.42097" lon="2.64787">
        <ele>186.967497</ele>
        <time>2022-06-18T12:05:52.325Z</time>
      </trkpt>
      <trkpt lat="48.42094" lon="2.64772">
        <ele>187.284691</ele>
        <time>2022-06-18T12:05:54.953Z</time>
      </trkpt>
      <trkpt lat="48.4209" lon="2.64754">
        <ele>187.675012</ele>
        <time>2022-06-18T12:05:58.155Z</time>
      </trkpt>
      <trkpt lat="48.42087" lon="2.64741">
        <ele>187.96523</ele>
        <time>2022-06-18T12:06:00.501Z</time>
      </trkpt>
      <trkpt lat="48.42082" lon="2.64725">
        <ele>188.340364</ele>
        <time>2022-06-18T12:06:03.523Z</time>
      </trkpt>
      <trkpt lat="48.42078" lon="2.6471">
        <ele>188.150039</ele>
        <time>2022-06-18T12:06:04.923Z</time>
      </trkpt>
      <trkpt lat="48.42075" lon="2.64694">
        <ele>187.754925</ele>
        <time>2022-06-18T12:06:06.106Z</time>
      </trkpt>
      <trkpt lat="48.42075" lon="2.64679">
        <ele>187.392079</ele>
        <time>2022-06-18T12:06:07.167Z</time>
      </trkpt>
      <trkpt lat="48.42071" lon="2.64666">
        <ele>187.051602</ele>
        <time>2022-06-18T12:06:08.187Z</time>
      </trkpt>
      <trkpt lat="48.42071" lon="2.64648">
        <ele>186.623518</ele>
        <time>2022-06-18T12:06:09.467Z</time>
      </trkpt>
      <trkpt lat="48.42072" lon="2.64633">
        <ele>186.250916</ele>
        <time>2022-06-18T12:06:10.525Z</time>
      </trkpt>
      <trkpt lat="48.42075" lon="2.64608">
        <ele>185.641344</ele>
        <time>2022-06-18T12:06:12.327Z</time>
      </trkpt>
      <trkpt lat="48.42076" lon="2.6459">
        <ele>185.221526</ele>
        <time>2022-06-18T12:06:13.622Z</time>
      </trkpt>
      <trkpt lat="48.42076" lon="2.64573">
        <ele>184.810025</ele>
        <time>2022-06-18T12:06:14.824Z</time>
      </trkpt>
      <trkpt lat="48.42077" lon="2.64558">
        <ele>184.446265</ele>
        <time>2022-06-18T12:06:15.891Z</time>
      </trkpt>
      <trkpt lat="48.42076" lon="2.64543">
        <ele>184.074791</ele>
        <time>2022-06-18T12:06:16.950Z</time>
      </trkpt>
      <trkpt lat="48.42078" lon="2.64529">
        <ele>183.735308</ele>
        <time>2022-06-18T12:06:17.970Z</time>
      </trkpt>
      <trkpt lat="48.42077" lon="2.64503">
        <ele>183.103357</ele>
        <time>2022-06-18T12:06:19.809Z</time>
      </trkpt>
      <trkpt lat="48.42076" lon="2.64488">
        <ele>182.734258</ele>
        <time>2022-06-18T12:06:20.871Z</time>
      </trkpt>
      <trkpt lat="48.42074" lon="2.6447">
        <ele>182.309478</ele>
        <time>2022-06-18T12:06:22.179Z</time>
      </trkpt>
      <trkpt lat="48.42072" lon="2.64452">
        <ele>181.840815</ele>
        <time>2022-06-18T12:06:23.441Z</time>
      </trkpt>
      <trkpt lat="48.42076" lon="2.64467">
        <ele>181.254819</ele>
        <time>2022-06-18T12:06:24.411Z</time>
      </trkpt>
      <trkpt lat="48.42071" lon="2.64438">
        <ele>180.155939</ele>
        <time>2022-06-18T12:06:26.199Z</time>
      </trkpt>
      <trkpt lat="48.42069" lon="2.64423">
        <ele>179.60514</ele>
        <time>2022-06-18T12:06:27.120Z</time>
      </trkpt>
      <trkpt lat="48.42067" lon="2.64401">
        <ele>178.804572</ele>
        <time>2022-06-18T12:06:28.455Z</time>
      </trkpt>
      <trkpt lat="48.42066" lon="2.64387">
        <ele>178.296414</ele>
        <time>2022-06-18T12:06:29.302Z</time>
      </trkpt>
      <trkpt lat="48.42066" lon="2.64371">
        <ele>177.682562</ele>
        <time>2022-06-18T12:06:30.237Z</time>
      </trkpt>
      <trkpt lat="48.42065" lon="2.64356">
        <ele>177.150437</ele>
        <time>2022-06-18T12:06:31.152Z</time>
      </trkpt>
      <trkpt lat="48.42065" lon="2.64341">
        <ele>176.584058</ele>
        <time>2022-06-18T12:06:32.035Z</time>
      </trkpt>
      <trkpt lat="48.42067" lon="2.64325">
        <ele>175.993632</ele>
        <time>2022-06-18T12:06:33.012Z</time>
      </trkpt>
      <trkpt lat="48.42064" lon="2.64302">
        <ele>175.161133</ele>
        <time>2022-06-18T12:06:34.431Z</time>
      </trkpt>
      <trkpt lat="48.42061" lon="2.64282">
        <ele>174.41897</ele>
        <time>2022-06-18T12:06:35.662Z</time>
      </trkpt>
      <trkpt lat="48.42062" lon="2.64265">
        <ele>173.76409</ele>
        <time>2022-06-18T12:06:36.660Z</time>
      </trkpt>
      <trkpt lat="48.42058" lon="2.64251">
        <ele>173.231555</ele>
        <time>2022-06-18T12:06:37.589Z</time>
      </trkpt>
      <trkpt lat="48.42057" lon="2.64235">
        <ele>172.639581</ele>
        <time>2022-06-18T12:06:38.546Z</time>
      </trkpt>
      <trkpt lat="48.42052" lon="2.64217">
        <ele>172.095037</ele>
        <time>2022-06-18T12:06:39.854Z</time>
      </trkpt>
      <trkpt lat="48.42047" lon="2.64204">
        <ele>172.618485</ele>
        <time>2022-06-18T12:06:43.082Z</time>
      </trkpt>
      <trkpt lat="48.42045" lon="2.64187">
        <ele>173.235219</ele>
        <time>2022-06-18T12:06:46.823Z</time>
      </trkpt>
      <trkpt lat="48.42041" lon="2.64164">
        <ele>174.0515</ele>
        <time>2022-06-18T12:06:51.904Z</time>
      </trkpt>
      <trkpt lat="48.42036" lon="2.64148">
        <ele>174.676857</ele>
        <time>2022-06-18T12:06:55.723Z</time>
      </trkpt>
      <trkpt lat="48.42031" lon="2.64134">
        <ele>175.247267</ele>
        <time>2022-06-18T12:06:59.174Z</time>
      </trkpt>
      <trkpt lat="48.42024" lon="2.64124">
        <ele>175.756165</ele>
        <time>2022-06-18T12:07:02.302Z</time>
      </trkpt>
      <trkpt lat="48.42013" lon="2.64114">
        <ele>176.414098</ele>
        <time>2022-06-18T12:07:06.424Z</time>
      </trkpt>
      <trkpt lat="48.42003" lon="2.64106">
        <ele>177.040012</ele>
        <time>2022-06-18T12:07:10.158Z</time>
      </trkpt>
      <trkpt lat="48.41991" lon="2.64099">
        <ele>177.688039</ele>
        <time>2022-06-18T12:07:14.265Z</time>
      </trkpt>
      <trkpt lat="48.41981" lon="2.64091">
        <ele>178.321401</ele>
        <time>2022-06-18T12:07:18.015Z</time>
      </trkpt>
      <trkpt lat="48.4197" lon="2.64081">
        <ele>178.981187</ele>
        <time>2022-06-18T12:07:22.142Z</time>
      </trkpt>
      <trkpt lat="48.41959" lon="2.6407">
        <ele>179.654299</ele>
        <time>2022-06-18T12:07:26.372Z</time>
      </trkpt>
      <trkpt lat="48.41948" lon="2.64061">
        <ele>180.342641</ele>
        <time>2022-06-18T12:07:30.492Z</time>
      </trkpt>
      <trkpt lat="48.41937" lon="2.64055">
        <ele>180.961018</ele>
        <time>2022-06-18T12:07:34.288Z</time>
      </trkpt>
      <trkpt lat="48.41926" lon="2.64045">
        <ele>181.511509</ele>
        <time>2022-06-18T12:07:38.138Z</time>
      </trkpt>
      <trkpt lat="48.41915" lon="2.64038">
        <ele>181.518312</ele>
        <time>2022-06-18T12:07:40.324Z</time>
      </trkpt>
      <trkpt lat="48.41903" lon="2.6403">
        <ele>181.525546</ele>
        <time>2022-06-18T12:07:42.725Z</time>
      </trkpt>
      <trkpt lat="48.41893" lon="2.6402">
        <ele>181.532295</ele>
        <time>2022-06-18T12:07:44.922Z</time>
      </trkpt>
      <trkpt lat="48.41882" lon="2.64013">
        <ele>181.539099</ele>
        <time>2022-06-18T12:07:47.107Z</time>
      </trkpt>
      <trkpt lat="48.41872" lon="2.64003">
        <ele>181.546059</ele>
        <time>2022-06-18T12:07:49.304Z</time>
      </trkpt>
      <trkpt lat="48.4186" lon="2.63996">
        <ele>181.553115</ele>
        <time>2022-06-18T12:07:51.659Z</time>
      </trkpt>
      <trkpt lat="48.41847" lon="2.63987">
        <ele>181.561248</ele>
        <time>2022-06-18T12:07:54.277Z</time>
      </trkpt>
      <trkpt lat="48.41836" lon="2.63979">
        <ele>181.567963</ele>
        <time>2022-06-18T12:07:56.512Z</time>
      </trkpt>
      <trkpt lat="48.41825" lon="2.63969">
        <ele>181.575183</ele>
        <time>2022-06-18T12:07:58.864Z</time>
      </trkpt>
      <trkpt lat="48.41816" lon="2.6396">
        <ele>181.581216</ele>
        <time>2022-06-18T12:08:00.840Z</time>
      </trkpt>
      <trkpt lat="48.41807" lon="2.63952">
        <ele>181.587124</ele>
        <time>2022-06-18T12:08:02.753Z</time>
      </trkpt>
      <trkpt lat="48.41797" lon="2.63942">
        <ele>181.593799</ele>
        <time>2022-06-18T12:08:04.949Z</time>
      </trkpt>
      <trkpt lat="48.41788" lon="2.63934">
        <ele>181.600025</ele>
        <time>2022-06-18T12:08:06.862Z</time>
      </trkpt>
      <trkpt lat="48.41777" lon="2.63928">
        <ele>181.606498</ele>
        <time>2022-06-18T12:08:09.003Z</time>
      </trkpt>
      <trkpt lat="48.41765" lon="2.63932">
        <ele>181.597288</ele>
        <time>2022-06-18T12:08:11.216Z</time>
      </trkpt>
      <trkpt lat="48.41755" lon="2.63937">
        <ele>181.554626</ele>
        <time>2022-06-18T12:08:13.022Z</time>
      </trkpt>
      <trkpt lat="48.41747" lon="2.63944">
        <ele>181.514453</ele>
        <time>2022-06-18T12:08:14.601Z</time>
      </trkpt>
      <trkpt lat="48.41737" lon="2.63949">
        <ele>181.472377</ele>
        <time>2022-06-18T12:08:16.409Z</time>
      </trkpt>
      <trkpt lat="48.41725" lon="2.63958">
        <ele>181.41801</ele>
        <time>2022-06-18T12:08:18.707Z</time>
      </trkpt>
      <trkpt lat="48.41715" lon="2.63964">
        <ele>181.371835</ele>
        <time>2022-06-18T12:08:20.546Z</time>
      </trkpt>
      <trkpt lat="48.41703" lon="2.63971">
        <ele>181.319662</ele>
        <time>2022-06-18T12:08:22.752Z</time>
      </trkpt>
      <trkpt lat="48.41692" lon="2.63981">
        <ele>181.268003</ele>
        <time>2022-06-18T12:08:24.955Z</time>
      </trkpt>
      <trkpt lat="48.41683" lon="2.63987">
        <ele>181.227518</ele>
        <time>2022-06-18T12:08:26.641Z</time>
      </trkpt>
      <trkpt lat="48.41673" lon="2.63994">
        <ele>181.182906</ele>
        <time>2022-06-18T12:08:28.531Z</time>
      </trkpt>
      <trkpt lat="48.41662" lon="2.64002">
        <ele>181.131036</ele>
        <time>2022-06-18T12:08:30.619Z</time>
      </trkpt>
      <trkpt lat="48.41652" lon="2.64006">
        <ele>181.092113</ele>
        <time>2022-06-18T12:08:32.400Z</time>
      </trkpt>
      <trkpt lat="48.41641" lon="2.64018">
        <ele>181.035287</ele>
        <time>2022-06-18T12:08:34.724Z</time>
      </trkpt>
      <trkpt lat="48.41632" lon="2.64025">
        <ele>180.994756</ele>
        <time>2022-06-18T12:08:36.462Z</time>
      </trkpt>
      <trkpt lat="48.41622" lon="2.64032">
        <ele>180.949134</ele>
        <time>2022-06-18T12:08:38.350Z</time>
      </trkpt>
      <trkpt lat="48.41612" lon="2.64039">
        <ele>180.903552</ele>
        <time>2022-06-18T12:08:40.238Z</time>
      </trkpt>
      <trkpt lat="48.41596" lon="2.64048">
        <ele>180.78766</ele>
        <time>2022-06-18T12:08:43.055Z</time>
      </trkpt>
      <trkpt lat="48.41588" lon="2.64055">
        <ele>180.707044</ele>
        <time>2022-06-18T12:08:44.410Z</time>
      </trkpt>
      <trkpt lat="48.41578" lon="2.64062">
        <ele>180.613961</ele>
        <time>2022-06-18T12:08:46.031Z</time>
      </trkpt>
      <trkpt lat="48.41568" lon="2.64069">
        <ele>180.515806</ele>
        <time>2022-06-18T12:08:47.642Z</time>
      </trkpt>
      <trkpt lat="48.41559" lon="2.64076">
        <ele>180.425386</ele>
        <time>2022-06-18T12:08:49.122Z</time>
      </trkpt>
      <trkpt lat="48.4155" lon="2.64085">
        <ele>180.332542</ele>
        <time>2022-06-18T12:08:50.707Z</time>
      </trkpt>
      <trkpt lat="48.41539" lon="2.64092">
        <ele>180.22815</ele>
        <time>2022-06-18T12:08:52.455Z</time>
      </trkpt>
      <trkpt lat="48.41531" lon="2.641">
        <ele>180.144569</ele>
        <time>2022-06-18T12:08:53.862Z</time>
      </trkpt>
      <trkpt lat="48.41522" lon="2.64105">
        <ele>180.065172</ele>
        <time>2022-06-18T12:08:55.275Z</time>
      </trkpt>
      <trkpt lat="48.4151" lon="2.64112">
        <ele>179.950547</ele>
        <time>2022-06-18T12:08:57.156Z</time>
      </trkpt>
      <trkpt lat="48.415" lon="2.64119">
        <ele>179.859366</ele>
        <time>2022-06-18T12:08:58.781Z</time>
      </trkpt>
      <trkpt lat="48.41492" lon="2.64129">
        <ele>179.766985</ele>
        <time>2022-06-18T12:09:00.300Z</time>
      </trkpt>
      <trkpt lat="48.41491" lon="2.64145">
        <ele>179.677523</ele>
        <time>2022-06-18T12:09:01.869Z</time>
      </trkpt>
      <trkpt lat="48.41499" lon="2.64161">
        <ele>179.559347</ele>
        <time>2022-06-18T12:09:03.813Z</time>
      </trkpt>
      <trkpt lat="48.41504" lon="2.64181">
        <ele>179.436978</ele>
        <time>2022-06-18T12:09:05.893Z</time>
      </trkpt>
      <trkpt lat="48.41509" lon="2.64197">
        <ele>179.336376</ele>
        <time>2022-06-18T12:09:07.616Z</time>
      </trkpt>
      <trkpt lat="48.41514" lon="2.64212">
        <ele>179.520445</ele>
        <time>2022-06-18T12:09:10.006Z</time>
      </trkpt>
      <trkpt lat="48.41519" lon="2.64234">
        <ele>179.904921</ele>
        <time>2022-06-18T12:09:13.647Z</time>
      </trkpt>
      <trkpt lat="48.41523" lon="2.64247">
        <ele>180.141876</ele>
        <time>2022-06-18T12:09:15.891Z</time>
      </trkpt>
      <trkpt lat="48.41528" lon="2.6426">
        <ele>180.373711</ele>
        <time>2022-06-18T12:09:18.198Z</time>
      </trkpt>
      <trkpt lat="48.41532" lon="2.64279">
        <ele>180.708008</ele>
        <time>2022-06-18T12:09:21.332Z</time>
      </trkpt>
      <trkpt lat="48.41538" lon="2.64295">
        <ele>181.009677</ele>
        <time>2022-06-18T12:09:24.203Z</time>
      </trkpt>
      <trkpt lat="48.41543" lon="2.64311">
        <ele>181.293265</ele>
        <time>2022-06-18T12:09:26.948Z</time>
      </trkpt>
      <trkpt lat="48.41544" lon="2.64325">
        <ele>181.524497</ele>
        <time>2022-06-18T12:09:29.148Z</time>
      </trkpt>
      <trkpt lat="48.41548" lon="2.64339">
        <ele>181.769889</ele>
        <time>2022-06-18T12:09:31.516Z</time>
      </trkpt>
      <trkpt lat="48.41554" lon="2.64353">
        <ele>182.047633</ele>
        <time>2022-06-18T12:09:34.132Z</time>
      </trkpt>
      <trkpt lat="48.4156" lon="2.64372">
        <ele>182.386089</ele>
        <time>2022-06-18T12:09:37.400Z</time>
      </trkpt>
      <trkpt lat="48.41567" lon="2.64387">
        <ele>182.68009</ele>
        <time>2022-06-18T12:09:40.245Z</time>
      </trkpt>
      <trkpt lat="48.41566" lon="2.64401">
        <ele>182.90335</ele>
        <time>2022-06-18T12:09:42.424Z</time>
      </trkpt>
      <trkpt lat="48.41568" lon="2.6442">
        <ele>183.225038</ele>
        <time>2022-06-18T12:09:45.446Z</time>
      </trkpt>
      <trkpt lat="48.41567" lon="2.64447">
        <ele>183.662795</ele>
        <time>2022-06-18T12:09:49.654Z</time>
      </trkpt>
      <trkpt lat="48.41568" lon="2.64463">
        <ele>183.95998</ele>
        <time>2022-06-18T12:09:52.261Z</time>
      </trkpt>
      <trkpt lat="48.41567" lon="2.64477">
        <ele>184.231194</ele>
        <time>2022-06-18T12:09:54.579Z</time>
      </trkpt>
      <trkpt lat="48.41563" lon="2.64491">
        <ele>184.546348</ele>
        <time>2022-06-18T12:09:57.157Z</time>
      </trkpt>
      <trkpt lat="48.41566" lon="2.64509">
        <ele>184.918078</ele>
        <time>2022-06-18T12:10:00.256Z</time>
      </trkpt>
      <trkpt lat="48.41575" lon="2.64521">
        <ele>185.2885</ele>
        <time>2022-06-18T12:10:03.305Z</time>
      </trkpt>
      <trkpt lat="48.41584" lon="2.64526">
        <ele>185.570039</ele>
        <time>2022-06-18T12:10:05.694Z</time>
      </trkpt>
      <trkpt lat="48.41593" lon="2.64533">
        <ele>185.86757</ele>
        <time>2022-06-18T12:10:08.217Z</time>
      </trkpt>
      <trkpt lat="48.41602" lon="2.64542">
        <ele>186.204182</ele>
        <time>2022-06-18T12:10:10.969Z</time>
      </trkpt>
      <trkpt lat="48.41611" lon="2.64549">
        <ele>186.491058</ele>
        <time>2022-06-18T12:10:13.459Z</time>
      </trkpt>
      <trkpt lat="48.41619" lon="2.64558">
        <ele>186.795269</ele>
        <time>2022-06-18T12:10:15.981Z</time>
      </trkpt>
      <trkpt lat="48.41628" lon="2.64572">
        <ele>187.183298</ele>
        <time>2022-06-18T12:10:19.229Z</time>
      </trkpt>
      <trkpt lat="48.41635" lon="2.64589">
        <ele>187.558682</ele>
        <time>2022-06-18T12:10:22.491Z</time>
      </trkpt>
      <trkpt lat="48.41641" lon="2.64601">
        <ele>187.851819</ele>
        <time>2022-06-18T12:10:24.976Z</time>
      </trkpt>
      <trkpt lat="48.41646" lon="2.64617">
        <ele>188.205793</ele>
        <time>2022-06-18T12:10:27.929Z</time>
      </trkpt>
      <trkpt lat="48.41652" lon="2.64631">
        <ele>188.532919</ele>
        <time>2022-06-18T12:10:30.691Z</time>
      </trkpt>
      <trkpt lat="48.4166" lon="2.64644">
        <ele>188.891799</ele>
        <time>2022-06-18T12:10:33.664Z</time>
      </trkpt>
      <trkpt lat="48.41667" lon="2.64656">
        <ele>189.039354</ele>
        <time>2022-06-18T12:10:35.876Z</time>
      </trkpt>
      <trkpt lat="48.41675" lon="2.64666">
        <ele>188.984023</ele>
        <time>2022-06-18T12:10:37.626Z</time>
      </trkpt>
      <trkpt lat="48.4168" lon="2.64679">
        <ele>188.929902</ele>
        <time>2022-06-18T12:10:39.302Z</time>
      </trkpt>
      <trkpt lat="48.41685" lon="2.64691">
        <ele>188.881049</ele>
        <time>2022-06-18T12:10:40.888Z</time>
      </trkpt>
      <trkpt lat="48.41691" lon="2.64706">
        <ele>188.819254</ele>
        <time>2022-06-18T12:10:42.845Z</time>
      </trkpt>
      <trkpt lat="48.41696" lon="2.6472">
        <ele>188.762572</ele>
        <time>2022-06-18T12:10:44.621Z</time>
      </trkpt>
      <trkpt lat="48.41701" lon="2.64734">
        <ele>188.708881</ele>
        <time>2022-06-18T12:10:46.403Z</time>
      </trkpt>
      <trkpt lat="48.41708" lon="2.64746">
        <ele>188.650637</ele>
        <time>2022-06-18T12:10:48.184Z</time>
      </trkpt>
      <trkpt lat="48.41715" lon="2.64758">
        <ele>188.594318</ele>
        <time>2022-06-18T12:10:49.969Z</time>
      </trkpt>
      <trkpt lat="48.41722" lon="2.6477">
        <ele>188.537328</ele>
        <time>2022-06-18T12:10:51.753Z</time>
      </trkpt>
      <trkpt lat="48.41721" lon="2.64784">
        <ele>188.487771</ele>
        <time>2022-06-18T12:10:53.326Z</time>
      </trkpt>
      <trkpt lat="48.41726" lon="2.64796">
        <ele>188.440125</ele>
        <time>2022-06-18T12:10:54.915Z</time>
      </trkpt>
      <trkpt lat="48.4172" lon="2.64806">
        <ele>188.39147</ele>
        <time>2022-06-18T12:10:56.419Z</time>
      </trkpt>
      <trkpt lat="48.41725" lon="2.64823">
        <ele>188.328848</ele>
        <time>2022-06-18T12:10:58.504Z</time>
      </trkpt>
      <trkpt lat="48.41732" lon="2.64837">
        <ele>188.267637</ele>
        <time>2022-06-18T12:11:00.464Z</time>
      </trkpt>
      <trkpt lat="48.41737" lon="2.64851">
        <ele>188.209572</ele>
        <time>2022-06-18T12:11:02.236Z</time>
      </trkpt>
      <trkpt lat="48.4174" lon="2.64866">
        <ele>188.153956</ele>
        <time>2022-06-18T12:11:03.985Z</time>
      </trkpt>
      <trkpt lat="48.41742" lon="2.64881">
        <ele>188.111751</ele>
        <time>2022-06-18T12:11:05.724Z</time>
      </trkpt>
      <trkpt lat="48.41742" lon="2.64897">
        <ele>188.152613</ele>
        <time>2022-06-18T12:11:07.728Z</time>
      </trkpt>
      <trkpt lat="48.41741" lon="2.64915">
        <ele>188.199082</ele>
        <time>2022-06-18T12:11:09.991Z</time>
      </trkpt>
      <trkpt lat="48.41741" lon="2.64935">
        <ele>188.250511</ele>
        <time>2022-06-18T12:11:12.497Z</time>
      </trkpt>
      <trkpt lat="48.41736" lon="2.64957">
        <ele>188.307481</ele>
        <time>2022-06-18T12:11:15.405Z</time>
      </trkpt>
      <trkpt lat="48.41732" lon="2.64976">
        <ele>188.359858</ele>
        <time>2022-06-18T12:11:17.904Z</time>
      </trkpt>
      <trkpt lat="48.41729" lon="2.64989">
        <ele>188.396453</ele>
        <time>2022-06-18T12:11:19.631Z</time>
      </trkpt>
      <trkpt lat="48.41722" lon="2.65003">
        <ele>188.441668</ele>
        <time>2022-06-18T12:11:21.827Z</time>
      </trkpt>
      <trkpt lat="48.41715" lon="2.6502">
        <ele>188.491485</ele>
        <time>2022-06-18T12:11:24.331Z</time>
      </trkpt>
      <trkpt lat="48.41705" lon="2.65032">
        <ele>188.539206</ele>
        <time>2022-06-18T12:11:26.741Z</time>
      </trkpt>
      <trkpt lat="48.41696" lon="2.65043">
        <ele>188.586059</ele>
        <time>2022-06-18T12:11:28.932Z</time>
      </trkpt>
      <trkpt lat="48.41688" lon="2.65055">
        <ele>188.628404</ele>
        <time>2022-06-18T12:11:31.061Z</time>
      </trkpt>
      <trkpt lat="48.41682" lon="2.65068">
        <ele>188.669751</ele>
        <time>2022-06-18T12:11:33.046Z</time>
      </trkpt>
      <trkpt lat="48.41673" lon="2.65084">
        <ele>188.7222</ele>
        <time>2022-06-18T12:11:35.671Z</time>
      </trkpt>
      <trkpt lat="48.41669" lon="2.65098">
        <ele>188.761265</ele>
        <time>2022-06-18T12:11:37.580Z</time>
      </trkpt>
      <trkpt lat="48.41665" lon="2.65117">
        <ele>188.769836</ele>
        <time>2022-06-18T12:11:40.003Z</time>
      </trkpt>
      <trkpt lat="48.41663" lon="2.65141">
        <ele>188.621859</ele>
        <time>2022-06-18T12:11:42.339Z</time>
      </trkpt>
      <trkpt lat="48.41658" lon="2.65157">
        <ele>188.512976</ele>
        <time>2022-06-18T12:11:44.046Z</time>
      </trkpt>
      <trkpt lat="48.41656" lon="2.65171">
        <ele>188.426094</ele>
        <time>2022-06-18T12:11:45.430Z</time>
      </trkpt>
      <trkpt lat="48.41651" lon="2.65183">
        <ele>188.334788</ele>
        <time>2022-06-18T12:11:46.790Z</time>
      </trkpt>
      <trkpt lat="48.41646" lon="2.65196">
        <ele>188.246265</ele>
        <time>2022-06-18T12:11:48.247Z</time>
      </trkpt>
      <trkpt lat="48.41643" lon="2.65214">
        <ele>188.134185</ele>
        <time>2022-06-18T12:11:50.042Z</time>
      </trkpt>
      <trkpt lat="48.41641" lon="2.65229">
        <ele>188.035402</ele>
        <time>2022-06-18T12:11:51.510Z</time>
      </trkpt>
      <trkpt lat="48.41637" lon="2.65243">
        <ele>187.944117</ele>
        <time>2022-06-18T12:11:52.985Z</time>
      </trkpt>
      <trkpt lat="48.41636" lon="2.65259">
        <ele>187.845126</ele>
        <time>2022-06-18T12:11:54.536Z</time>
      </trkpt>
      <trkpt lat="48.41637" lon="2.65274">
        <ele>187.752061</ele>
        <time>2022-06-18T12:11:55.990Z</time>
      </trkpt>
      <trkpt lat="48.41636" lon="2.65288">
        <ele>187.663108</ele>
        <time>2022-06-18T12:11:57.345Z</time>
      </trkpt>
      <trkpt lat="48.4164" lon="2.65308">
        <ele>187.533868</ele>
        <time>2022-06-18T12:11:59.359Z</time>
      </trkpt>
      <trkpt lat="48.41636" lon="2.65326">
        <ele>187.422895</ele>
        <time>2022-06-18T12:12:01.202Z</time>
      </trkpt>
      <trkpt lat="48.41639" lon="2.65347">
        <ele>187.290159</ele>
        <time>2022-06-18T12:12:03.274Z</time>
      </trkpt>
      <trkpt lat="48.4164" lon="2.65365">
        <ele>187.178375</ele>
        <time>2022-06-18T12:12:05.016Z</time>
      </trkpt>
      <trkpt lat="48.41641" lon="2.65382">
        <ele>187.131268</ele>
        <time>2022-06-18T12:12:06.955Z</time>
      </trkpt>
      <trkpt lat="48.41642" lon="2.65398">
        <ele>187.142515</ele>
        <time>2022-06-18T12:12:08.916Z</time>
      </trkpt>
      <trkpt lat="48.41644" lon="2.65415">
        <ele>187.155167</ele>
        <time>2022-06-18T12:12:11.024Z</time>
      </trkpt>
      <trkpt lat="48.41646" lon="2.65428">
        <ele>187.165298</ele>
        <time>2022-06-18T12:12:12.653Z</time>
      </trkpt>
      <trkpt lat="48.41651" lon="2.65446">
        <ele>187.179257</ele>
        <time>2022-06-18T12:12:15.035Z</time>
      </trkpt>
      <trkpt lat="48.41654" lon="2.65463">
        <ele>187.19209</ele>
        <time>2022-06-18T12:12:17.182Z</time>
      </trkpt>
      <trkpt lat="48.41657" lon="2.6548">
        <ele>187.205477</ele>
        <time>2022-06-18T12:12:19.330Z</time>
      </trkpt>
      <trkpt lat="48.41658" lon="2.65497">
        <ele>187.217591</ele>
        <time>2022-06-18T12:12:21.413Z</time>
      </trkpt>
      <trkpt lat="48.4166" lon="2.65512">
        <ele>187.228966</ele>
        <time>2022-06-18T12:12:23.281Z</time>
      </trkpt>
      <trkpt lat="48.41659" lon="2.65527">
        <ele>187.239383</ele>
        <time>2022-06-18T12:12:25.121Z</time>
      </trkpt>
      <trkpt lat="48.41664" lon="2.65546">
        <ele>187.254763</ele>
        <time>2022-06-18T12:12:27.617Z</time>
      </trkpt>
      <trkpt lat="48.41672" lon="2.65561">
        <ele>187.26818</ele>
        <time>2022-06-18T12:12:29.964Z</time>
      </trkpt>
      <trkpt lat="48.41679" lon="2.65575">
        <ele>187.281492</ele>
        <time>2022-06-18T12:12:32.105Z</time>
      </trkpt>
      <trkpt lat="48.41687" lon="2.65592">
        <ele>187.296721</ele>
        <time>2022-06-18T12:12:34.649Z</time>
      </trkpt>
      <trkpt lat="48.41694" lon="2.65601">
        <ele>187.30661</ele>
        <time>2022-06-18T12:12:36.341Z</time>
      </trkpt>
      <trkpt lat="48.41703" lon="2.65616">
        <ele>187.320841</ele>
        <time>2022-06-18T12:12:38.809Z</time>
      </trkpt>
      <trkpt lat="48.4171" lon="2.65631">
        <ele>187.018957</ele>
        <time>2022-06-18T12:12:40.273Z</time>
      </trkpt>
      <trkpt lat="48.41717" lon="2.65643">
        <ele>186.752057</ele>
        <time>2022-06-18T12:12:41.544Z</time>
      </trkpt>
      <trkpt lat="48.41721" lon="2.65657">
        <ele>186.479885</ele>
        <time>2022-06-18T12:12:42.733Z</time>
      </trkpt>
      <trkpt lat="48.41712" lon="2.65661">
        <ele>186.227283</ele>
        <time>2022-06-18T12:12:43.836Z</time>
      </trkpt>
      <trkpt lat="48.41701" lon="2.65658">
        <ele>185.943079</ele>
        <time>2022-06-18T12:12:45.172Z</time>
      </trkpt>
      <trkpt lat="48.41696" lon="2.6567">
        <ele>185.699449</ele>
        <time>2022-06-18T12:12:46.290Z</time>
      </trkpt>
      <trkpt lat="48.41688" lon="2.65677">
        <ele>185.439736</ele>
        <time>2022-06-18T12:12:47.364Z</time>
      </trkpt>
      <trkpt lat="48.41679" lon="2.65674">
        <ele>185.20314</ele>
        <time>2022-06-18T12:12:48.463Z</time>
      </trkpt>
      <trkpt lat="48.4167" lon="2.65665">
        <ele>184.92083</ele>
        <time>2022-06-18T12:12:49.743Z</time>
      </trkpt>
      <trkpt lat="48.41661" lon="2.6566">
        <ele>184.675988</ele>
        <time>2022-06-18T12:12:50.888Z</time>
      </trkpt>
      <trkpt lat="48.41651" lon="2.65658">
        <ele>184.398221</ele>
        <time>2022-06-18T12:12:52.066Z</time>
      </trkpt>
      <trkpt lat="48.41638" lon="2.65654">
        <ele>184.055759</ele>
        <time>2022-06-18T12:12:53.645Z</time>
      </trkpt>
      <trkpt lat="48.4163" lon="2.65646">
        <ele>183.817758</ele>
        <time>2022-06-18T12:12:54.801Z</time>
      </trkpt>
      <trkpt lat="48.4162" lon="2.65638">
        <ele>183.509788</ele>
        <time>2022-06-18T12:12:56.128Z</time>
      </trkpt>
      <trkpt lat="48.4161" lon="2.65633">
        <ele>183.22555</ele>
        <time>2022-06-18T12:12:57.366Z</time>
      </trkpt>
      <trkpt lat="48.41599" lon="2.65633">
        <ele>182.93966</ele>
        <time>2022-06-18T12:12:58.672Z</time>
      </trkpt>
      <trkpt lat="48.41588" lon="2.65643">
        <ele>182.619728</ele>
        <time>2022-06-18T12:13:00.216Z</time>
      </trkpt>
      <trkpt lat="48.4158" lon="2.6565">
        <ele>182.626058</ele>
        <time>2022-06-18T12:13:01.911Z</time>
      </trkpt>
      <trkpt lat="48.41569" lon="2.65656">
        <ele>182.650503</ele>
        <time>2022-06-18T12:13:04.083Z</time>
      </trkpt>
      <trkpt lat="48.41558" lon="2.6566">
        <ele>182.674914</ele>
        <time>2022-06-18T12:13:06.185Z</time>
      </trkpt>
      <trkpt lat="48.41548" lon="2.65663">
        <ele>182.697892</ele>
        <time>2022-06-18T12:13:08.080Z</time>
      </trkpt>
      <trkpt lat="48.41539" lon="2.65672">
        <ele>182.720708</ele>
        <time>2022-06-18T12:13:10.086Z</time>
      </trkpt>
      <trkpt lat="48.41534" lon="2.65683">
        <ele>182.740815</ele>
        <time>2022-06-18T12:13:11.731Z</time>
      </trkpt>
      <trkpt lat="48.41525" lon="2.65687">
        <ele>182.761422</ele>
        <time>2022-06-18T12:13:13.475Z</time>
      </trkpt>
      <trkpt lat="48.41515" lon="2.65678">
        <ele>182.786977</ele>
        <time>2022-06-18T12:13:15.639Z</time>
      </trkpt>
      <trkpt lat="48.41505" lon="2.65677">
        <ele>182.808306</ele>
        <time>2022-06-18T12:13:17.500Z</time>
      </trkpt>
      <trkpt lat="48.41496" lon="2.6568">
        <ele>182.828528</ele>
        <time>2022-06-18T12:13:19.213Z</time>
      </trkpt>
      <trkpt lat="48.41487" lon="2.65683">
        <ele>182.84893</ele>
        <time>2022-06-18T12:13:20.926Z</time>
      </trkpt>
      <trkpt lat="48.41477" lon="2.65681">
        <ele>182.871609</ele>
        <time>2022-06-18T12:13:22.801Z</time>
      </trkpt>
      <trkpt lat="48.41464" lon="2.65683">
        <ele>182.900044</ele>
        <time>2022-06-18T12:13:25.229Z</time>
      </trkpt>
      <trkpt lat="48.41454" lon="2.65689">
        <ele>182.924745</ele>
        <time>2022-06-18T12:13:27.231Z</time>
      </trkpt>
      <trkpt lat="48.41443" lon="2.65693">
        <ele>182.948825</ele>
        <time>2022-06-18T12:13:29.332Z</time>
      </trkpt>
      <trkpt lat="48.41432" lon="2.65694">
        <ele>182.971553</ele>
        <time>2022-06-18T12:13:31.377Z</time>
      </trkpt>
      <trkpt lat="48.41421" lon="2.65696">
        <ele>182.996604</ele>
        <time>2022-06-18T12:13:33.437Z</time>
      </trkpt>
      <trkpt lat="48.41412" lon="2.65697">
        <ele>182.787148</ele>
        <time>2022-06-18T12:13:34.543Z</time>
      </trkpt>
      <trkpt lat="48.41402" lon="2.65701">
        <ele>182.507222</ele>
        <time>2022-06-18T12:13:35.757Z</time>
      </trkpt>
      <trkpt lat="48.41392" lon="2.65708">
        <ele>182.216548</ele>
        <time>2022-06-18T12:13:37.061Z</time>
      </trkpt>
      <trkpt lat="48.41384" lon="2.65716">
        <ele>181.954549</ele>
        <time>2022-06-18T12:13:38.186Z</time>
      </trkpt>
      <trkpt lat="48.41377" lon="2.65724">
        <ele>181.700306</ele>
        <time>2022-06-18T12:13:39.196Z</time>
      </trkpt>
      <trkpt lat="48.41367" lon="2.65731">
        <ele>181.390964</ele>
        <time>2022-06-18T12:13:40.477Z</time>
      </trkpt>
      <trkpt lat="48.41361" lon="2.65743">
        <ele>181.122125</ele>
        <time>2022-06-18T12:13:41.649Z</time>
      </trkpt>
      <trkpt lat="48.41355" lon="2.65753">
        <ele>180.874817</ele>
        <time>2022-06-18T12:13:42.693Z</time>
      </trkpt>
      <trkpt lat="48.41346" lon="2.65763">
        <ele>180.582503</ele>
        <time>2022-06-18T12:13:44.018Z</time>
      </trkpt>
      <trkpt lat="48.41338" lon="2.65775">
        <ele>180.272241</ele>
        <time>2022-06-18T12:13:45.338Z</time>
      </trkpt>
      <trkpt lat="48.41335" lon="2.65788">
        <ele>180.009155</ele>
        <time>2022-06-18T12:13:46.390Z</time>
      </trkpt>
      <trkpt lat="48.4133" lon="2.65803">
        <ele>179.710109</ele>
        <time>2022-06-18T12:13:47.701Z</time>
      </trkpt>
      <trkpt lat="48.41327" lon="2.65816">
        <ele>179.458505</ele>
        <time>2022-06-18T12:13:48.768Z</time>
      </trkpt>
      <trkpt lat="48.41327" lon="2.65831">
        <ele>179.197343</ele>
        <time>2022-06-18T12:13:49.947Z</time>
      </trkpt>
      <trkpt lat="48.41328" lon="2.65846">
        <ele>178.913911</ele>
        <time>2022-06-18T12:13:51.106Z</time>
      </trkpt>
      <trkpt lat="48.41326" lon="2.65863">
        <ele>178.608555</ele>
        <time>2022-06-18T12:13:52.457Z</time>
      </trkpt>
      <trkpt lat="48.41324" lon="2.6588">
        <ele>178.301414</ele>
        <time>2022-06-18T12:13:53.806Z</time>
      </trkpt>
      <trkpt lat="48.41328" lon="2.65892">
        <ele>178.100131</ele>
        <time>2022-06-18T12:13:54.905Z</time>
      </trkpt>
      <trkpt lat="48.41333" lon="2.65903">
        <ele>178.178241</ele>
        <time>2022-06-18T12:13:56.658Z</time>
      </trkpt>
      <trkpt lat="48.41341" lon="2.65916">
        <ele>178.276585</ele>
        <time>2022-06-18T12:13:58.978Z</time>
      </trkpt>
      <trkpt lat="48.41344" lon="2.65929">
        <ele>178.354371</ele>
        <time>2022-06-18T12:14:00.782Z</time>
      </trkpt>
      <trkpt lat="48.41345" lon="2.65943">
        <ele>178.438521</ele>
        <time>2022-06-18T12:14:02.637Z</time>
      </trkpt>
      <trkpt lat="48.41352" lon="2.65956">
        <ele>178.536339</ele>
        <time>2022-06-18T12:14:04.837Z</time>
      </trkpt>
      <trkpt lat="48.41359" lon="2.65968">
        <ele>178.624252</ele>
        <time>2022-06-18T12:14:06.927Z</time>
      </trkpt>
      <trkpt lat="48.41366" lon="2.6598">
        <ele>178.714159</ele>
        <time>2022-06-18T12:14:09.020Z</time>
      </trkpt>
      <trkpt lat="48.41372" lon="2.6599">
        <ele>178.796898</ele>
        <time>2022-06-18T12:14:10.800Z</time>
      </trkpt>
      <trkpt lat="48.41381" lon="2.66001">
        <ele>178.892582</ele>
        <time>2022-06-18T12:14:13.083Z</time>
      </trkpt>
      <trkpt lat="48.41389" lon="2.66012">
        <ele>178.989017</ele>
        <time>2022-06-18T12:14:15.230Z</time>
      </trkpt>
      <trkpt lat="48.41397" lon="2.6602">
        <ele>179.070337</ele>
        <time>2022-06-18T12:14:17.125Z</time>
      </trkpt>
      <trkpt lat="48.41402" lon="2.66034">
        <ele>179.160346</ele>
        <time>2022-06-18T12:14:19.209Z</time>
      </trkpt>
      <trkpt lat="48.4141" lon="2.66047">
        <ele>179.26188</ele>
        <time>2022-06-18T12:14:21.535Z</time>
      </trkpt>
      <trkpt lat="48.41418" lon="2.66059">
        <ele>179.364586</ele>
        <time>2022-06-18T12:14:23.778Z</time>
      </trkpt>
      <trkpt lat="48.41425" lon="2.6607">
        <ele>179.449989</ele>
        <time>2022-06-18T12:14:25.774Z</time>
      </trkpt>
      <trkpt lat="48.41431" lon="2.6608">
        <ele>179.531676</ele>
        <time>2022-06-18T12:14:27.551Z</time>
      </trkpt>
      <trkpt lat="48.41437" lon="2.66093">
        <ele>179.617982</ele>
        <time>2022-06-18T12:14:29.621Z</time>
      </trkpt>
      <trkpt lat="48.41451" lon="2.66114">
        <ele>179.660914</ele>
        <time>2022-06-18T12:14:33.291Z</time>
      </trkpt>
      <trkpt lat="48.41458" lon="2.66125">
        <ele>179.66973</ele>
        <time>2022-06-18T12:14:35.147Z</time>
      </trkpt>
      <trkpt lat="48.41464" lon="2.66136">
        <ele>179.678217</ele>
        <time>2022-06-18T12:14:36.882Z</time>
      </trkpt>
      <trkpt lat="48.4147" lon="2.66146">
        <ele>179.686421</ele>
        <time>2022-06-18T12:14:38.525Z</time>
      </trkpt>
      <trkpt lat="48.41476" lon="2.66158">
        <ele>179.695367</ele>
        <time>2022-06-18T12:14:40.356Z</time>
      </trkpt>
      <trkpt lat="48.4148" lon="2.6617">
        <ele>179.703673</ele>
        <time>2022-06-18T12:14:41.992Z</time>
      </trkpt>
      <trkpt lat="48.41487" lon="2.66181">
        <ele>179.712433</ele>
        <time>2022-06-18T12:14:43.849Z</time>
      </trkpt>
      <trkpt lat="48.41491" lon="2.66196">
        <ele>179.721982</ele>
        <time>2022-06-18T12:14:45.818Z</time>
      </trkpt>
      <trkpt lat="48.41482" lon="2.66201">
        <ele>179.730343</ele>
        <time>2022-06-18T12:14:47.579Z</time>
      </trkpt>
      <trkpt lat="48.41473" lon="2.66204">
        <ele>179.738781</ele>
        <time>2022-06-18T12:14:49.271Z</time>
      </trkpt>
      <trkpt lat="48.41463" lon="2.66201">
        <ele>179.747331</ele>
        <time>2022-06-18T12:14:51.142Z</time>
      </trkpt>
      <trkpt lat="48.41454" lon="2.662">
        <ele>179.7559</ele>
        <time>2022-06-18T12:14:52.800Z</time>
      </trkpt>
      <trkpt lat="48.41444" lon="2.66198">
        <ele>179.764966</ele>
        <time>2022-06-18T12:14:54.652Z</time>
      </trkpt>
      <trkpt lat="48.41434" lon="2.66197">
        <ele>179.773891</ele>
        <time>2022-06-18T12:14:56.492Z</time>
      </trkpt>
      <trkpt lat="48.41425" lon="2.66199">
        <ele>179.781983</ele>
        <time>2022-06-18T12:14:58.162Z</time>
      </trkpt>
      <trkpt lat="48.41416" lon="2.66204">
        <ele>179.791147</ele>
        <time>2022-06-18T12:14:59.923Z</time>
      </trkpt>
      <trkpt lat="48.41406" lon="2.6621">
        <ele>179.800626</ele>
        <time>2022-06-18T12:15:01.899Z</time>
      </trkpt>
      <trkpt lat="48.41396" lon="2.6621">
        <ele>179.795717</ele>
        <time>2022-06-18T12:15:03.706Z</time>
      </trkpt>
      <trkpt lat="48.41388" lon="2.66219">
        <ele>179.728997</ele>
        <time>2022-06-18T12:15:05.355Z</time>
      </trkpt>
      <trkpt lat="48.41378" lon="2.66219">
        <ele>179.660385</ele>
        <time>2022-06-18T12:15:07.003Z</time>
      </trkpt>
      <trkpt lat="48.41368" lon="2.66218">
        <ele>179.597617</ele>
        <time>2022-06-18T12:15:08.668Z</time>
      </trkpt>
      <trkpt lat="48.41358" lon="2.66217">
        <ele>179.53249</ele>
        <time>2022-06-18T12:15:10.327Z</time>
      </trkpt>
      <trkpt lat="48.41348" lon="2.6622">
        <ele>179.459615</ele>
        <time>2022-06-18T12:15:12.001Z</time>
      </trkpt>
      <trkpt lat="48.41338" lon="2.66215">
        <ele>179.390109</ele>
        <time>2022-06-18T12:15:13.743Z</time>
      </trkpt>
      <trkpt lat="48.41328" lon="2.66209">
        <ele>179.32016</ele>
        <time>2022-06-18T12:15:15.525Z</time>
      </trkpt>
      <trkpt lat="48.41319" lon="2.66201">
        <ele>179.253028</ele>
        <time>2022-06-18T12:15:17.257Z</time>
      </trkpt>
      <trkpt lat="48.41312" lon="2.66191">
        <ele>179.188642</ele>
        <time>2022-06-18T12:15:18.851Z</time>
      </trkpt>
      <trkpt lat="48.41305" lon="2.6618">
        <ele>179.123316</ele>
        <time>2022-06-18T12:15:20.527Z</time>
      </trkpt>
      <trkpt lat="48.41303" lon="2.66196">
        <ele>179.054051</ele>
        <time>2022-06-18T12:15:22.318Z</time>
      </trkpt>
      <trkpt lat="48.41298" lon="2.6621">
        <ele>178.984749</ele>
        <time>2022-06-18T12:15:24.064Z</time>
      </trkpt>
      <trkpt lat="48.41299" lon="2.66224">
        <ele>178.921448</ele>
        <time>2022-06-18T12:15:25.606Z</time>
      </trkpt>
      <trkpt lat="48.41295" lon="2.66237">
        <ele>178.858098</ele>
        <time>2022-06-18T12:15:27.177Z</time>
      </trkpt>
      <trkpt lat="48.41292" lon="2.66251">
        <ele>178.792228</ele>
        <time>2022-06-18T12:15:28.789Z</time>
      </trkpt>
      <trkpt lat="48.41285" lon="2.66262">
        <ele>178.727819</ele>
        <time>2022-06-18T12:15:30.466Z</time>
      </trkpt>
      <trkpt lat="48.41284" lon="2.66276">
        <ele>178.66366</ele>
        <time>2022-06-18T12:15:32.006Z</time>
      </trkpt>
      <trkpt lat="48.41284" lon="2.6629">
        <ele>178.369088</ele>
        <time>2022-06-18T12:15:33.045Z</time>
      </trkpt>
      <trkpt lat="48.41284" lon="2.66307">
        <ele>177.374395</ele>
        <time>2022-06-18T12:15:34.057Z</time>
      </trkpt>
      <trkpt lat="48.41281" lon="2.66322">
        <ele>176.527011</ele>
        <time>2022-06-18T12:15:34.989Z</time>
      </trkpt>
      <trkpt lat="48.4128" lon="2.66336">
        <ele>175.662716</ele>
        <time>2022-06-18T12:15:35.827Z</time>
      </trkpt>
      <trkpt lat="48.41278" lon="2.66352">
        <ele>174.758193</ele>
        <time>2022-06-18T12:15:36.796Z</time>
      </trkpt>
      <trkpt lat="48.41278" lon="2.66367">
        <ele>173.891205</ele>
        <time>2022-06-18T12:15:37.689Z</time>
      </trkpt>
      <trkpt lat="48.41275" lon="2.66379">
        <ele>173.096867</ele>
        <time>2022-06-18T12:15:38.452Z</time>
      </trkpt>
      <trkpt lat="48.41272" lon="2.66392">
        <ele>172.305053</ele>
        <time>2022-06-18T12:15:39.271Z</time>
      </trkpt>
      <trkpt lat="48.41272" lon="2.66406">
        <ele>171.497093</ele>
        <time>2022-06-18T12:15:40.104Z</time>
      </trkpt>
      <trkpt lat="48.41272" lon="2.66421">
        <ele>170.631032</ele>
        <time>2022-06-18T12:15:40.997Z</time>
      </trkpt>
      <trkpt lat="48.41273" lon="2.66435">
        <ele>169.832529</ele>
        <time>2022-06-18T12:15:41.835Z</time>
      </trkpt>
      <trkpt lat="48.41273" lon="2.66449">
        <ele>169.006582</ele>
        <time>2022-06-18T12:15:42.668Z</time>
      </trkpt>
      <trkpt lat="48.41274" lon="2.66463">
        <ele>168.191823</ele>
        <time>2022-06-18T12:15:43.507Z</time>
      </trkpt>
      <trkpt lat="48.41278" lon="2.66475">
        <ele>167.403401</ele>
        <time>2022-06-18T12:15:44.306Z</time>
      </trkpt>
      <trkpt lat="48.41284" lon="2.66485">
        <ele>166.591476</ele>
        <time>2022-06-18T12:15:45.108Z</time>
      </trkpt>
      <trkpt lat="48.41281" lon="2.66498">
        <ele>165.758639</ele>
        <time>2022-06-18T12:15:45.927Z</time>
      </trkpt>
      <trkpt lat="48.41281" lon="2.66512">
        <ele>164.973676</ele>
        <time>2022-06-18T12:15:46.760Z</time>
      </trkpt>
      <trkpt lat="48.41282" lon="2.66527">
        <ele>164.106107</ele>
        <time>2022-06-18T12:15:47.658Z</time>
      </trkpt>
      <trkpt lat="48.41285" lon="2.6654">
        <ele>163.306332</ele>
        <time>2022-06-18T12:15:48.477Z</time>
      </trkpt>
      <trkpt lat="48.4129" lon="2.66553">
        <ele>162.49003</ele>
        <time>2022-06-18T12:15:49.371Z</time>
      </trkpt>
      <trkpt lat="48.41295" lon="2.66566">
        <ele>161.670197</ele>
        <time>2022-06-18T12:15:50.265Z</time>
      </trkpt>
      <trkpt lat="48.41301" lon="2.66577">
        <ele>160.921067</ele>
        <time>2022-06-18T12:15:51.113Z</time>
      </trkpt>
      <trkpt lat="48.41309" lon="2.66586">
        <ele>160.110347</ele>
        <time>2022-06-18T12:15:52.008Z</time>
      </trkpt>
      <trkpt lat="48.41318" lon="2.66594">
        <ele>159.329277</ele>
        <time>2022-06-18T12:15:52.945Z</time>
      </trkpt>
      <trkpt lat="48.41326" lon="2.66602">
        <ele>158.520116</ele>
        <time>2022-06-18T12:15:53.806Z</time>
      </trkpt>
      <trkpt lat="48.41336" lon="2.66608">
        <ele>157.70843</ele>
        <time>2022-06-18T12:15:54.771Z</time>
      </trkpt>
      <trkpt lat="48.41343" lon="2.66619">
        <ele>156.880346</ele>
        <time>2022-06-18T12:15:55.678Z</time>
      </trkpt>
      <trkpt lat="48.41349" lon="2.66631">
        <ele>156.072138</ele>
        <time>2022-06-18T12:15:56.572Z</time>
      </trkpt>
      <trkpt lat="48.41355" lon="2.66645">
        <ele>155.216533</ele>
        <time>2022-06-18T12:15:57.564Z</time>
      </trkpt>
      <trkpt lat="48.41363" lon="2.66655">
        <ele>154.373481</ele>
        <time>2022-06-18T12:15:58.496Z</time>
      </trkpt>
      <trkpt lat="48.41362" lon="2.66671">
        <ele>153.523782</ele>
        <time>2022-06-18T12:15:59.453Z</time>
      </trkpt>
      <trkpt lat="48.41358" lon="2.66684">
        <ele>152.743641</ele>
        <time>2022-06-18T12:16:00.305Z</time>
      </trkpt>
      <trkpt lat="48.41352" lon="2.66695">
        <ele>151.998997</ele>
        <time>2022-06-18T12:16:01.153Z</time>
      </trkpt>
      <trkpt lat="48.41345" lon="2.6671">
        <ele>151.029782</ele>
        <time>2022-06-18T12:16:02.244Z</time>
      </trkpt>
      <trkpt lat="48.4134" lon="2.66726">
        <ele>150.087418</ele>
        <time>2022-06-18T12:16:03.297Z</time>
      </trkpt>
      <trkpt lat="48.41335" lon="2.66738">
        <ele>149.346998</ele>
        <time>2022-06-18T12:16:04.140Z</time>
      </trkpt>
      <trkpt lat="48.4133" lon="2.6675">
        <ele>148.589152</ele>
        <time>2022-06-18T12:16:04.983Z</time>
      </trkpt>
      <trkpt lat="48.41323" lon="2.66761">
        <ele>148.301471</ele>
        <time>2022-06-18T12:16:06.153Z</time>
      </trkpt>
      <trkpt lat="48.41316" lon="2.66771">
        <ele>148.03868</ele>
        <time>2022-06-18T12:16:07.283Z</time>
      </trkpt>
      <trkpt lat="48.4131" lon="2.66782">
        <ele>147.798523</ele>
        <time>2022-06-18T12:16:08.412Z</time>
      </trkpt>
      <trkpt lat="48.41305" lon="2.66793">
        <ele>147.560008</ele>
        <time>2022-06-18T12:16:09.452Z</time>
      </trkpt>
      <trkpt lat="48.41299" lon="2.66805">
        <ele>147.303118</ele>
        <time>2022-06-18T12:16:10.640Z</time>
      </trkpt>
      <trkpt lat="48.41293" lon="2.66816">
        <ele>147.046228</ele>
        <time>2022-06-18T12:16:11.747Z</time>
      </trkpt>
      <trkpt lat="48.41288" lon="2.66828">
        <ele>146.804773</ele>
        <time>2022-06-18T12:16:12.868Z</time>
      </trkpt>
      <trkpt lat="48.41295" lon="2.66837">
        <ele>146.563962</ele>
        <time>2022-06-18T12:16:13.959Z</time>
      </trkpt>
      <trkpt lat="48.41306" lon="2.66838">
        <ele>146.276038</ele>
        <time>2022-06-18T12:16:15.266Z</time>
      </trkpt>
      <trkpt lat="48.41317" lon="2.66842">
        <ele>145.980817</ele>
        <time>2022-06-18T12:16:16.608Z</time>
      </trkpt>
      <trkpt lat="48.41325" lon="2.66851">
        <ele>145.699213</ele>
        <time>2022-06-18T12:16:17.766Z</time>
      </trkpt>
      <trkpt lat="48.41325" lon="2.66867">
        <ele>145.415734</ele>
        <time>2022-06-18T12:16:19.017Z</time>
      </trkpt>
      <trkpt lat="48.41321" lon="2.66882">
        <ele>145.135829</ele>
        <time>2022-06-18T12:16:20.290Z</time>
      </trkpt>
      <trkpt lat="48.41315" lon="2.66896">
        <ele>144.852268</ele>
        <time>2022-06-18T12:16:21.609Z</time>
      </trkpt>
      <trkpt lat="48.41307" lon="2.66906">
        <ele>144.576734</ele>
        <time>2022-06-18T12:16:22.836Z</time>
      </trkpt>
      <trkpt lat="48.41313" lon="2.66917">
        <ele>144.336663</ele>
        <time>2022-06-18T12:16:23.966Z</time>
      </trkpt>
      <trkpt lat="48.41309" lon="2.66932">
        <ele>144.043871</ele>
        <time>2022-06-18T12:16:25.222Z</time>
      </trkpt>
      <trkpt lat="48.41307" lon="2.66951">
        <ele>143.93304</ele>
        <time>2022-06-18T12:16:27.094Z</time>
      </trkpt>
      <trkpt lat="48.41303" lon="2.66966">
        <ele>144.223996</ele>
        <time>2022-06-18T12:16:29.693Z</time>
      </trkpt>
      <trkpt lat="48.41298" lon="2.66978">
        <ele>144.473013</ele>
        <time>2022-06-18T12:16:31.954Z</time>
      </trkpt>
      <trkpt lat="48.41294" lon="2.6699">
        <ele>144.723409</ele>
        <time>2022-06-18T12:16:34.139Z</time>
      </trkpt>
      <trkpt lat="48.4129" lon="2.67004">
        <ele>144.988738</ele>
        <time>2022-06-18T12:16:36.563Z</time>
      </trkpt>
      <trkpt lat="48.41289" lon="2.67018">
        <ele>145.2475</ele>
        <time>2022-06-18T12:16:38.843Z</time>
      </trkpt>
      <trkpt lat="48.41289" lon="2.67035">
        <ele>145.543382</ele>
        <time>2022-06-18T12:16:41.547Z</time>
      </trkpt>
      <trkpt lat="48.41292" lon="2.67057">
        <ele>145.955287</ele>
        <time>2022-06-18T12:16:45.181Z</time>
      </trkpt>
      <trkpt lat="48.41293" lon="2.67072">
        <ele>146.207412</ele>
        <time>2022-06-18T12:16:47.550Z</time>
      </trkpt>
      <trkpt lat="48.41293" lon="2.67086">
        <ele>146.462995</ele>
        <time>2022-06-18T12:16:49.811Z</time>
      </trkpt>
      <trkpt lat="48.41294" lon="2.671">
        <ele>146.719711</ele>
        <time>2022-06-18T12:16:52.085Z</time>
      </trkpt>
      <trkpt lat="48.41297" lon="2.67114">
        <ele>146.977071</ele>
        <time>2022-06-18T12:16:54.429Z</time>
      </trkpt>
      <trkpt lat="48.41302" lon="2.67131">
        <ele>147.3211</ele>
        <time>2022-06-18T12:16:57.447Z</time>
      </trkpt>
      <trkpt lat="48.41303" lon="2.67146">
        <ele>147.589091</ele>
        <time>2022-06-18T12:16:59.861Z</time>
      </trkpt>
      <trkpt lat="48.41307" lon="2.67161">
        <ele>147.877702</ele>
        <time>2022-06-18T12:17:02.453Z</time>
      </trkpt>
      <trkpt lat="48.4131" lon="2.67178">
        <ele>148.189109</ele>
        <time>2022-06-18T12:17:05.266Z</time>
      </trkpt>
      <trkpt lat="48.41313" lon="2.67195">
        <ele>148.494636</ele>
        <time>2022-06-18T12:17:08.062Z</time>
      </trkpt>
      <trkpt lat="48.41314" lon="2.67215">
        <ele>148.606071</ele>
        <time>2022-06-18T12:17:10.687Z</time>
      </trkpt>
      <trkpt lat="48.41316" lon="2.67234">
        <ele>148.513923</ele>
        <time>2022-06-18T12:17:12.781Z</time>
      </trkpt>
      <trkpt lat="48.41317" lon="2.67247">
        <ele>148.445861</ele>
        <time>2022-06-18T12:17:14.069Z</time>
      </trkpt>
      <trkpt lat="48.41319" lon="2.67263">
        <ele>148.368334</ele>
        <time>2022-06-18T12:17:15.841Z</time>
      </trkpt>
      <trkpt lat="48.41322" lon="2.67278">
        <ele>148.288874</ele>
        <time>2022-06-18T12:17:17.387Z</time>
      </trkpt>
      <trkpt lat="48.41324" lon="2.67293">
        <ele>148.216314</ele>
        <time>2022-06-18T12:17:19.054Z</time>
      </trkpt>
      <trkpt lat="48.41328" lon="2.67309">
        <ele>148.13129</ele>
        <time>2022-06-18T12:17:20.744Z</time>
      </trkpt>
      <trkpt lat="48.41332" lon="2.67322">
        <ele>148.058696</ele>
        <time>2022-06-18T12:17:22.158Z</time>
      </trkpt>
      <trkpt lat="48.41339" lon="2.67338">
        <ele>147.964374</ele>
        <time>2022-06-18T12:17:24.054Z</time>
      </trkpt>
      <trkpt lat="48.41345" lon="2.67351">
        <ele>147.888899</ele>
        <time>2022-06-18T12:17:25.778Z</time>
      </trkpt>
      <trkpt lat="48.41349" lon="2.67366">
        <ele>147.809972</ele>
        <time>2022-06-18T12:17:27.379Z</time>
      </trkpt>
      <trkpt lat="48.41352" lon="2.67381">
        <ele>147.73119</ele>
        <time>2022-06-18T12:17:28.927Z</time>
      </trkpt>
      <trkpt lat="48.41352" lon="2.67395">
        <ele>147.662778</ele>
        <time>2022-06-18T12:17:30.313Z</time>
      </trkpt>
      <trkpt lat="48.4135" lon="2.67413">
        <ele>147.572811</ele>
        <time>2022-06-18T12:17:32.119Z</time>
      </trkpt>
      <trkpt lat="48.41347" lon="2.67427">
        <ele>147.501798</ele>
        <time>2022-06-18T12:17:33.578Z</time>
      </trkpt>
      <trkpt lat="48.41349" lon="2.67445">
        <ele>147.409511</ele>
        <time>2022-06-18T12:17:35.379Z</time>
      </trkpt>
      <trkpt lat="48.41349" lon="2.67464">
        <ele>147.359075</ele>
        <time>2022-06-18T12:17:37.543Z</time>
      </trkpt>
    </trkseg>
  </trk>
</gpx>